Wetterdaten: Montag, 28.08.2023
Datum Zeit Temp. I. Temp. A. Feuchte I. Feuchte A. Luftdruck Regen Wind Richtung Richtung Sonnenschein Solar Taupunkt Windchill Windböen
28.08.2023 00:00 23,6 °C 14,9 °C 63 % 90 % 1010,9 hPa 0,0 l/m² 0,0 km/h (0 Bft) SW 236 ° 0 min 0 W/m² 13,3 °C 14,9 °C 0,0 km/h (0 Bft)
28.08.2023 00:02 23,6 °C 14,9 °C 63 % 89 % 1010,9 hPa 0,0 l/m² 0,0 km/h (0 Bft) SW 236 ° 0 min 0 W/m² 13,1 °C 14,9 °C 0,0 km/h (0 Bft)
28.08.2023 00:04 23,6 °C 14,9 °C 63 % 89 % 1010,8 hPa 0,0 l/m² 0,0 km/h (0 Bft) SW 236 ° 0 min 0 W/m² 13,1 °C 14,9 °C 0,0 km/h (0 Bft)
28.08.2023 00:05 23,6 °C 14,8 °C 63 % 89 % 1010,8 hPa 0,0 l/m² 0,0 km/h (0 Bft) SW 236 ° 0 min 0 W/m² 13,0 °C 14,8 °C 0,0 km/h (0 Bft)
28.08.2023 00:07 23,6 °C 14,8 °C 63 % 89 % 1010,7 hPa 0,0 l/m² 0,0 km/h (0 Bft) SW 236 ° 0 min 0 W/m² 13,0 °C 14,8 °C 1,6 km/h (1 Bft)
28.08.2023 00:09 23,6 °C 14,8 °C 63 % 90 % 1010,8 hPa 0,0 l/m² 0,0 km/h (0 Bft) SW 236 ° 0 min 0 W/m² 13,2 °C 14,8 °C 0,0 km/h (0 Bft)
28.08.2023 00:11 23,6 °C 14,7 °C 63 % 90 % 1010,9 hPa 0,0 l/m² 0,0 km/h (0 Bft) SW 236 ° 0 min 0 W/m² 13,1 °C 14,7 °C 0,0 km/h (0 Bft)
28.08.2023 00:12 23,6 °C 14,7 °C 63 % 90 % 1011,0 hPa 0,0 l/m² 0,5 km/h (0 Bft) SW 236 ° 0 min 0 W/m² 13,1 °C 14,7 °C 1,6 km/h (1 Bft)
28.08.2023 00:14 23,5 °C 14,7 °C 63 % 90 % 1010,9 hPa 0,0 l/m² 0,5 km/h (0 Bft) SW 236 ° 0 min 0 W/m² 13,1 °C 14,7 °C 3,2 km/h (1 Bft)
28.08.2023 00:15 23,6 °C 14,7 °C 63 % 90 % 1010,9 hPa 0,0 l/m² 0,0 km/h (0 Bft) SW 236 ° 0 min 0 W/m² 13,1 °C 14,7 °C 0,0 km/h (0 Bft)
28.08.2023 00:16 23,6 °C 14,7 °C 63 % 90 % 1011,0 hPa 0,0 l/m² 0,0 km/h (0 Bft) SW 236 ° 0 min 0 W/m² 13,1 °C 14,7 °C 0,0 km/h (0 Bft)
28.08.2023 00:18 23,6 °C 14,7 °C 63 % 90 % 1011,0 hPa 0,0 l/m² 1,2 km/h (1 Bft) SW 236 ° 0 min 0 W/m² 13,1 °C 14,7 °C 4,8 km/h (1 Bft)
28.08.2023 00:20 23,6 °C 14,7 °C 63 % 90 % 1011,1 hPa 0,0 l/m² 0,0 km/h (0 Bft) SW 236 ° 0 min 0 W/m² 13,1 °C 14,7 °C 0,0 km/h (0 Bft)
28.08.2023 00:23 23,6 °C 14,6 °C 63 % 90 % 1011,1 hPa 0,0 l/m² 0,0 km/h (0 Bft) SW 236 ° 0 min 0 W/m² 13,0 °C 14,6 °C 0,0 km/h (0 Bft)
28.08.2023 00:25 23,6 °C 14,6 °C 63 % 90 % 1011,1 hPa 0,0 l/m² 0,6 km/h (0 Bft) SW 236 ° 0 min 0 W/m² 13,0 °C 14,6 °C 3,2 km/h (1 Bft)
28.08.2023 00:27 23,5 °C 14,5 °C 63 % 90 % 1011,1 hPa 0,0 l/m² 0,0 km/h (0 Bft) SW 236 ° 0 min 0 W/m² 12,9 °C 14,5 °C 1,6 km/h (1 Bft)
28.08.2023 00:29 23,5 °C 14,5 °C 63 % 90 % 1011,1 hPa 0,0 l/m² 0,7 km/h (0 Bft) SW 235 ° 0 min 0 W/m² 12,9 °C 14,5 °C 3,2 km/h (1 Bft)
28.08.2023 00:31 23,5 °C 14,5 °C 63 % 90 % 1011,0 hPa 0,0 l/m² 1,0 km/h (0 Bft) SW 235 ° 0 min 0 W/m² 12,9 °C 14,5 °C 3,2 km/h (1 Bft)
28.08.2023 00:34 23,6 °C 14,4 °C 63 % 90 % 1011,1 hPa 0,0 l/m² 0,5 km/h (0 Bft) SW 235 ° 0 min 0 W/m² 12,8 °C 14,4 °C 3,2 km/h (1 Bft)
28.08.2023 00:36 23,5 °C 14,4 °C 63 % 90 % 1011,1 hPa 0,0 l/m² 0,0 km/h (0 Bft) SW 235 ° 0 min 0 W/m² 12,8 °C 14,4 °C 1,6 km/h (1 Bft)
28.08.2023 00:38 23,5 °C 14,4 °C 63 % 91 % 1011,2 hPa 0,0 l/m² 0,9 km/h (0 Bft) SW 235 ° 0 min 0 W/m² 12,9 °C 14,4 °C 3,2 km/h (1 Bft)
28.08.2023 00:40 23,5 °C 14,4 °C 63 % 91 % 1011,2 hPa 0,0 l/m² 0,7 km/h (0 Bft) SW 235 ° 0 min 0 W/m² 12,9 °C 14,4 °C 4,8 km/h (1 Bft)
28.08.2023 00:42 23,5 °C 14,4 °C 63 % 91 % 1011,2 hPa 0,0 l/m² 0,4 km/h (0 Bft) SW 235 ° 0 min 0 W/m² 12,9 °C 14,4 °C 1,6 km/h (1 Bft)
28.08.2023 00:44 23,4 °C 14,3 °C 63 % 90 % 1011,1 hPa 0,0 l/m² 1,4 km/h (1 Bft) S 170 ° 0 min 0 W/m² 12,7 °C 14,3 °C 3,2 km/h (1 Bft)
28.08.2023 00:46 23,5 °C 14,3 °C 63 % 90 % 1011,2 hPa 0,0 l/m² 0,3 km/h (0 Bft) S 170 ° 0 min 0 W/m² 12,7 °C 14,3 °C 3,2 km/h (1 Bft)
28.08.2023 00:48 23,5 °C 14,2 °C 63 % 90 % 1011,2 hPa 0,0 l/m² 0,0 km/h (0 Bft) S 170 ° 0 min 0 W/m² 12,6 °C 14,2 °C 0,0 km/h (0 Bft)
28.08.2023 00:49 23,5 °C 14,2 °C 63 % 91 % 1011,2 hPa 0,0 l/m² 0,0 km/h (0 Bft) S 170 ° 0 min 0 W/m² 12,8 °C 14,2 °C 0,0 km/h (0 Bft)
28.08.2023 00:51 23,5 °C 14,1 °C 63 % 91 % 1011,2 hPa 0,0 l/m² 0,0 km/h (0 Bft) S 170 ° 0 min 0 W/m² 12,7 °C 14,1 °C 0,0 km/h (0 Bft)
28.08.2023 00:52 23,5 °C 14,1 °C 63 % 91 % 1011,3 hPa 0,0 l/m² 1,0 km/h (0 Bft) S 171 ° 0 min 0 W/m² 12,7 °C 14,1 °C 3,2 km/h (1 Bft)
28.08.2023 00:53 23,4 °C 14,0 °C 63 % 91 % 1011,3 hPa 0,0 l/m² 0,0 km/h (0 Bft) S 171 ° 0 min 0 W/m² 12,6 °C 14,0 °C 0,0 km/h (0 Bft)
28.08.2023 00:54 23,4 °C 14,0 °C 63 % 91 % 1011,3 hPa 0,0 l/m² 0,0 km/h (0 Bft) S 171 ° 0 min 0 W/m² 12,6 °C 14,0 °C 0,0 km/h (0 Bft)
28.08.2023 00:56 23,5 °C 14,0 °C 63 % 91 % 1011,2 hPa 0,0 l/m² 0,1 km/h (0 Bft) S 171 ° 0 min 0 W/m² 12,6 °C 14,0 °C 1,6 km/h (1 Bft)
28.08.2023 00:58 23,5 °C 14,0 °C 63 % 91 % 1011,2 hPa 0,0 l/m² 3,0 km/h (1 Bft) SW 227 ° 0 min 0 W/m² 12,6 °C 14,0 °C 4,8 km/h (1 Bft)
28.08.2023 01:00 23,4 °C 14,0 °C 63 % 91 % 1011,3 hPa 0,0 l/m² 2,0 km/h (1 Bft) SW 227 ° 0 min 0 W/m² 12,6 °C 14,0 °C 4,8 km/h (1 Bft)
28.08.2023 01:02 23,4 °C 14,0 °C 63 % 91 % 1011,3 hPa 0,0 l/m² 3,2 km/h (1 Bft) SW 232 ° 0 min 0 W/m² 12,6 °C 14,0 °C 4,8 km/h (1 Bft)
28.08.2023 01:04 23,5 °C 14,0 °C 63 % 91 % 1011,3 hPa 0,0 l/m² 3,0 km/h (1 Bft) SW 232 ° 0 min 0 W/m² 12,6 °C 14,0 °C 4,8 km/h (1 Bft)
28.08.2023 01:06 23,5 °C 14,1 °C 63 % 91 % 1011,2 hPa 0,0 l/m² 1,2 km/h (1 Bft) SW 232 ° 0 min 0 W/m² 12,7 °C 14,1 °C 3,2 km/h (1 Bft)
28.08.2023 01:08 23,4 °C 14,0 °C 63 % 91 % 1011,3 hPa 0,0 l/m² 0,1 km/h (0 Bft) SW 232 ° 0 min 0 W/m² 12,6 °C 14,0 °C 1,6 km/h (1 Bft)
28.08.2023 01:10 23,4 °C 13,9 °C 63 % 91 % 1011,2 hPa 0,0 l/m² 0,0 km/h (0 Bft) SW 232 ° 0 min 0 W/m² 12,5 °C 13,9 °C 0,0 km/h (0 Bft)
28.08.2023 01:12 23,4 °C 13,8 °C 63 % 91 % 1011,3 hPa 0,0 l/m² 0,0 km/h (0 Bft) SW 232 ° 0 min 0 W/m² 12,4 °C 13,8 °C 0,0 km/h (0 Bft)
28.08.2023 01:14 23,4 °C 13,7 °C 63 % 91 % 1011,4 hPa 0,0 l/m² 0,0 km/h (0 Bft) SW 232 ° 0 min 0 W/m² 12,3 °C 13,7 °C 0,0 km/h (0 Bft)
28.08.2023 01:16 23,4 °C 13,7 °C 63 % 91 % 1011,3 hPa 0,0 l/m² 0,0 km/h (0 Bft) SW 232 ° 0 min 0 W/m² 12,3 °C 13,7 °C 0,0 km/h (0 Bft)
28.08.2023 01:18 23,4 °C 13,6 °C 63 % 91 % 1011,3 hPa 0,0 l/m² 1,2 km/h (1 Bft) SW 232 ° 0 min 0 W/m² 12,2 °C 13,6 °C 3,2 km/h (1 Bft)
28.08.2023 01:20 23,4 °C 13,5 °C 63 % 91 % 1011,3 hPa 0,0 l/m² 1,7 km/h (1 Bft) SW 232 ° 0 min 0 W/m² 12,1 °C 13,5 °C 3,2 km/h (1 Bft)
28.08.2023 01:22 23,4 °C 13,5 °C 63 % 91 % 1011,3 hPa 0,0 l/m² 1,6 km/h (1 Bft) SW 232 ° 0 min 0 W/m² 12,1 °C 13,5 °C 3,2 km/h (1 Bft)
28.08.2023 01:24 23,4 °C 13,4 °C 63 % 91 % 1011,3 hPa 0,0 l/m² 0,7 km/h (0 Bft) SW 232 ° 0 min 0 W/m² 12,0 °C 13,4 °C 3,2 km/h (1 Bft)
28.08.2023 01:26 23,4 °C 13,4 °C 63 % 92 % 1011,3 hPa 0,0 l/m² 0,3 km/h (0 Bft) SW 232 ° 0 min 0 W/m² 12,1 °C 13,4 °C 1,6 km/h (1 Bft)
28.08.2023 01:28 23,4 °C 13,4 °C 63 % 92 % 1011,3 hPa 0,0 l/m² 0,0 km/h (0 Bft) SW 232 ° 0 min 0 W/m² 12,1 °C 13,4 °C 0,0 km/h (0 Bft)
28.08.2023 01:30 23,4 °C 13,3 °C 63 % 92 % 1011,3 hPa 0,0 l/m² 0,0 km/h (0 Bft) SW 232 ° 0 min 0 W/m² 12,0 °C 13,3 °C 0,0 km/h (0 Bft)
28.08.2023 01:32 23,4 °C 13,3 °C 63 % 92 % 1011,3 hPa 0,0 l/m² 1,0 km/h (0 Bft) SW 232 ° 0 min 0 W/m² 12,0 °C 13,3 °C 3,2 km/h (1 Bft)
28.08.2023 01:34 23,4 °C 13,2 °C 63 % 92 % 1011,3 hPa 0,0 l/m² 1,8 km/h (1 Bft) SW 232 ° 0 min 0 W/m² 11,9 °C 13,2 °C 3,2 km/h (1 Bft)
28.08.2023 01:36 23,4 °C 13,3 °C 63 % 92 % 1011,3 hPa 0,0 l/m² 3,8 km/h (1 Bft) SW 232 ° 0 min 0 W/m² 12,0 °C 13,3 °C 4,8 km/h (1 Bft)
28.08.2023 01:38 23,4 °C 13,3 °C 63 % 92 % 1011,3 hPa 0,0 l/m² 4,2 km/h (1 Bft) SW 232 ° 0 min 0 W/m² 12,0 °C 13,3 °C 4,8 km/h (1 Bft)
28.08.2023 01:40 23,4 °C 13,4 °C 63 % 92 % 1011,2 hPa 0,0 l/m² 2,3 km/h (1 Bft) SW 232 ° 0 min 0 W/m² 12,1 °C 13,4 °C 3,2 km/h (1 Bft)
28.08.2023 01:42 23,4 °C 13,4 °C 63 % 92 % 1011,3 hPa 0,0 l/m² 2,4 km/h (1 Bft) SW 232 ° 0 min 0 W/m² 12,1 °C 13,4 °C 4,8 km/h (1 Bft)
28.08.2023 01:44 23,4 °C 13,4 °C 63 % 92 % 1011,3 hPa 0,0 l/m² 3,4 km/h (1 Bft) SW 232 ° 0 min 0 W/m² 12,1 °C 13,4 °C 4,8 km/h (1 Bft)
28.08.2023 01:46 23,4 °C 13,5 °C 63 % 92 % 1011,2 hPa 0,0 l/m² 2,2 km/h (1 Bft) SW 232 ° 0 min 0 W/m² 12,2 °C 13,5 °C 4,8 km/h (1 Bft)
28.08.2023 01:48 23,4 °C 13,5 °C 63 % 92 % 1011,1 hPa 0,0 l/m² 3,5 km/h (1 Bft) SW 232 ° 0 min 0 W/m² 12,2 °C 13,5 °C 4,8 km/h (1 Bft)
28.08.2023 01:50 23,4 °C 13,5 °C 63 % 92 % 1011,1 hPa 0,0 l/m² 3,7 km/h (1 Bft) SW 232 ° 0 min 0 W/m² 12,2 °C 13,5 °C 6,4 km/h (2 Bft)
28.08.2023 01:52 23,4 °C 13,6 °C 63 % 92 % 1011,2 hPa 0,0 l/m² 3,1 km/h (1 Bft) SW 232 ° 0 min 0 W/m² 12,3 °C 13,6 °C 4,8 km/h (1 Bft)
28.08.2023 01:53 23,4 °C 13,5 °C 63 % 92 % 1011,2 hPa 0,0 l/m² 1,7 km/h (1 Bft) SW 232 ° 0 min 0 W/m² 12,2 °C 13,5 °C 4,8 km/h (1 Bft)
28.08.2023 01:54 23,4 °C 13,5 °C 63 % 92 % 1011,1 hPa 0,0 l/m² 0,0 km/h (0 Bft) SW 232 ° 0 min 0 W/m² 12,2 °C 13,5 °C 0,0 km/h (0 Bft)
28.08.2023 01:55 23,4 °C 13,5 °C 63 % 92 % 1011,1 hPa 0,0 l/m² 0,7 km/h (0 Bft) SW 232 ° 0 min 0 W/m² 12,2 °C 13,5 °C 3,2 km/h (1 Bft)
28.08.2023 01:57 23,4 °C 13,4 °C 63 % 92 % 1011,2 hPa 0,0 l/m² 0,1 km/h (0 Bft) SW 232 ° 0 min 0 W/m² 12,1 °C 13,4 °C 1,6 km/h (1 Bft)
28.08.2023 01:59 23,4 °C 13,4 °C 63 % 92 % 1011,2 hPa 0,0 l/m² 0,0 km/h (0 Bft) SW 232 ° 0 min 0 W/m² 12,1 °C 13,4 °C 0,0 km/h (0 Bft)
28.08.2023 02:02 23,4 °C 13,2 °C 63 % 92 % 1011,2 hPa 0,0 l/m² 0,0 km/h (0 Bft) SW 232 ° 0 min 0 W/m² 11,9 °C 13,2 °C 0,0 km/h (0 Bft)
28.08.2023 02:03 23,4 °C 13,2 °C 63 % 92 % 1011,2 hPa 0,0 l/m² 0,0 km/h (0 Bft) SW 232 ° 0 min 0 W/m² 11,9 °C 13,2 °C 0,0 km/h (0 Bft)
28.08.2023 02:04 23,4 °C 13,1 °C 63 % 92 % 1011,2 hPa 0,0 l/m² 0,0 km/h (0 Bft) SW 232 ° 0 min 0 W/m² 11,8 °C 13,1 °C 0,0 km/h (0 Bft)
28.08.2023 02:05 23,4 °C 13,1 °C 63 % 92 % 1011,3 hPa 0,0 l/m² 1,1 km/h (1 Bft) SW 232 ° 0 min 0 W/m² 11,8 °C 13,1 °C 1,6 km/h (1 Bft)
28.08.2023 02:07 23,4 °C 13,2 °C 63 % 92 % 1011,2 hPa 0,0 l/m² 0,6 km/h (0 Bft) SW 232 ° 0 min 0 W/m² 11,9 °C 13,2 °C 1,6 km/h (1 Bft)
28.08.2023 02:09 23,3 °C 13,2 °C 63 % 92 % 1011,2 hPa 0,0 l/m² 1,1 km/h (1 Bft) SW 232 ° 0 min 0 W/m² 11,9 °C 13,2 °C 3,2 km/h (1 Bft)
28.08.2023 02:11 23,4 °C 13,2 °C 63 % 92 % 1011,2 hPa 0,0 l/m² 0,7 km/h (0 Bft) SW 232 ° 0 min 0 W/m² 11,9 °C 13,2 °C 3,2 km/h (1 Bft)
28.08.2023 02:12 23,4 °C 13,2 °C 63 % 92 % 1011,2 hPa 0,0 l/m² 0,4 km/h (0 Bft) SW 232 ° 0 min 0 W/m² 11,9 °C 13,2 °C 1,6 km/h (1 Bft)
28.08.2023 02:13 23,4 °C 13,2 °C 63 % 92 % 1011,2 hPa 0,0 l/m² 1,1 km/h (1 Bft) SW 232 ° 0 min 0 W/m² 11,9 °C 13,2 °C 3,2 km/h (1 Bft)
28.08.2023 02:14 23,4 °C 13,1 °C 63 % 92 % 1011,2 hPa 0,0 l/m² 0,7 km/h (0 Bft) SW 232 ° 0 min 0 W/m² 11,8 °C 13,1 °C 1,6 km/h (1 Bft)
28.08.2023 02:16 23,4 °C 13,0 °C 63 % 92 % 1011,1 hPa 0,0 l/m² 0,9 km/h (0 Bft) SW 232 ° 0 min 0 W/m² 11,7 °C 13,0 °C 1,6 km/h (1 Bft)
28.08.2023 02:18 23,4 °C 12,9 °C 63 % 92 % 1011,1 hPa 0,0 l/m² 0,4 km/h (0 Bft) SW 232 ° 0 min 0 W/m² 11,6 °C 12,9 °C 1,6 km/h (1 Bft)
28.08.2023 02:20 23,4 °C 12,9 °C 63 % 92 % 1011,2 hPa 0,0 l/m² 0,0 km/h (0 Bft) SW 232 ° 0 min 0 W/m² 11,6 °C 12,9 °C 1,6 km/h (1 Bft)
28.08.2023 02:22 23,4 °C 12,8 °C 63 % 92 % 1011,3 hPa 0,0 l/m² 0,6 km/h (0 Bft) SW 232 ° 0 min 0 W/m² 11,5 °C 12,8 °C 3,2 km/h (1 Bft)
28.08.2023 02:24 23,4 °C 12,8 °C 63 % 92 % 1011,3 hPa 0,0 l/m² 1,0 km/h (0 Bft) SW 232 ° 0 min 0 W/m² 11,5 °C 12,8 °C 3,2 km/h (1 Bft)
28.08.2023 02:26 23,4 °C 12,8 °C 63 % 92 % 1011,3 hPa 0,0 l/m² 0,6 km/h (0 Bft) SW 232 ° 0 min 0 W/m² 11,5 °C 12,8 °C 1,6 km/h (1 Bft)
28.08.2023 02:28 23,4 °C 12,7 °C 63 % 92 % 1011,3 hPa 0,0 l/m² 0,3 km/h (0 Bft) SW 232 ° 0 min 0 W/m² 11,4 °C 12,7 °C 1,6 km/h (1 Bft)
28.08.2023 02:30 23,4 °C 12,7 °C 63 % 92 % 1011,2 hPa 0,0 l/m² 0,0 km/h (0 Bft) SW 232 ° 0 min 0 W/m² 11,4 °C 12,7 °C 1,6 km/h (1 Bft)
28.08.2023 02:32 23,4 °C 12,5 °C 63 % 92 % 1011,2 hPa 0,0 l/m² 1,4 km/h (1 Bft) SW 232 ° 0 min 0 W/m² 11,2 °C 12,5 °C 1,6 km/h (1 Bft)
28.08.2023 02:34 23,4 °C 12,4 °C 63 % 92 % 1011,2 hPa 0,0 l/m² 1,6 km/h (1 Bft) SW 232 ° 0 min 0 W/m² 11,1 °C 12,4 °C 3,2 km/h (1 Bft)
28.08.2023 02:36 23,4 °C 12,5 °C 63 % 93 % 1011,2 hPa 0,0 l/m² 1,4 km/h (1 Bft) SW 232 ° 0 min 0 W/m² 11,4 °C 12,5 °C 3,2 km/h (1 Bft)
28.08.2023 02:38 23,4 °C 12,4 °C 63 % 93 % 1011,3 hPa 0,0 l/m² 1,5 km/h (1 Bft) SW 232 ° 0 min 0 W/m² 11,3 °C 12,4 °C 3,2 km/h (1 Bft)
28.08.2023 02:40 23,3 °C 12,4 °C 63 % 92 % 1011,3 hPa 0,0 l/m² 0,1 km/h (0 Bft) SW 232 ° 0 min 0 W/m² 11,1 °C 12,4 °C 1,6 km/h (1 Bft)
28.08.2023 02:42 23,4 °C 12,3 °C 63 % 92 % 1011,2 hPa 0,0 l/m² 0,6 km/h (0 Bft) SW 232 ° 0 min 0 W/m² 11,0 °C 12,3 °C 1,6 km/h (1 Bft)
28.08.2023 02:43 23,4 °C 12,3 °C 63 % 92 % 1011,2 hPa 0,0 l/m² 0,7 km/h (0 Bft) SW 232 ° 0 min 0 W/m² 11,0 °C 12,3 °C 1,6 km/h (1 Bft)
28.08.2023 02:45 23,3 °C 12,3 °C 63 % 93 % 1011,2 hPa 0,0 l/m² 0,1 km/h (0 Bft) SW 232 ° 0 min 0 W/m² 11,2 °C 12,3 °C 1,6 km/h (1 Bft)
28.08.2023 02:47 23,3 °C 12,3 °C 63 % 93 % 1011,2 hPa 0,0 l/m² 0,3 km/h (0 Bft) SW 232 ° 0 min 0 W/m² 11,2 °C 12,3 °C 1,6 km/h (1 Bft)
28.08.2023 02:49 23,3 °C 12,3 °C 63 % 93 % 1011,2 hPa 0,0 l/m² 1,4 km/h (1 Bft) SW 232 ° 0 min 0 W/m² 11,2 °C 12,3 °C 3,2 km/h (1 Bft)
28.08.2023 02:52 23,3 °C 12,3 °C 63 % 93 % 1011,3 hPa 0,0 l/m² 0,8 km/h (0 Bft) SW 232 ° 0 min 0 W/m² 11,2 °C 12,3 °C 1,6 km/h (1 Bft)
28.08.2023 02:53 23,4 °C 12,3 °C 63 % 93 % 1011,3 hPa 0,0 l/m² 0,0 km/h (0 Bft) SW 232 ° 0 min 0 W/m² 11,2 °C 12,3 °C 0,0 km/h (0 Bft)
28.08.2023 02:54 23,3 °C 12,3 °C 63 % 93 % 1011,3 hPa 0,0 l/m² 0,0 km/h (0 Bft) SW 232 ° 0 min 0 W/m² 11,2 °C 12,3 °C 0,0 km/h (0 Bft)
28.08.2023 02:55 23,3 °C 12,3 °C 63 % 93 % 1011,3 hPa 0,0 l/m² 0,0 km/h (0 Bft) SW 232 ° 0 min 0 W/m² 11,2 °C 12,3 °C 0,0 km/h (0 Bft)
28.08.2023 02:57 23,3 °C 12,3 °C 63 % 93 % 1011,4 hPa 0,0 l/m² 0,0 km/h (0 Bft) SW 232 ° 0 min 0 W/m² 11,2 °C 12,3 °C 0,0 km/h (0 Bft)
28.08.2023 02:59 23,3 °C 12,2 °C 63 % 93 % 1011,5 hPa 0,0 l/m² 0,0 km/h (0 Bft) SW 232 ° 0 min 0 W/m² 11,1 °C 12,2 °C 0,0 km/h (0 Bft)
28.08.2023 03:00 23,3 °C 12,2 °C 63 % 93 % 1011,4 hPa 0,0 l/m² 0,0 km/h (0 Bft) N 0 ° 0 min 0 W/m² 11,1 °C 12,2 °C 0,0 km/h (0 Bft)
28.08.2023 03:01 23,3 °C 12,2 °C 63 % 93 % 1011,4 hPa 0,0 l/m² 0,0 km/h (0 Bft) N 0 ° 0 min 0 W/m² 11,1 °C 12,2 °C 0,0 km/h (0 Bft)
28.08.2023 03:08 23,3 °C 12,2 °C 63 % 93 % 1011,5 hPa 0,0 l/m² 1,4 km/h (1 Bft) SW 232 ° 0 min 0 W/m² 11,1 °C 12,2 °C 3,2 km/h (1 Bft)
28.08.2023 03:09 23,3 °C 12,2 °C 63 % 93 % 1011,4 hPa 0,0 l/m² 0,6 km/h (0 Bft) SW 232 ° 0 min 0 W/m² 11,1 °C 12,2 °C 1,6 km/h (1 Bft)
28.08.2023 03:11 23,3 °C 12,1 °C 63 % 93 % 1011,4 hPa 0,0 l/m² 0,0 km/h (0 Bft) SW 232 ° 0 min 0 W/m² 11,0 °C 12,1 °C 0,0 km/h (0 Bft)
28.08.2023 03:12 23,3 °C 12,1 °C 63 % 93 % 1011,2 hPa 0,0 l/m² 0,0 km/h (0 Bft) SW 232 ° 0 min 0 W/m² 11,0 °C 12,1 °C 0,0 km/h (0 Bft)
28.08.2023 03:13 23,3 °C 12,1 °C 63 % 93 % 1011,2 hPa 0,0 l/m² 0,0 km/h (0 Bft) SW 232 ° 0 min 0 W/m² 11,0 °C 12,1 °C 0,0 km/h (0 Bft)
28.08.2023 03:14 23,3 °C 12,0 °C 63 % 94 % 1011,3 hPa 0,0 l/m² 0,0 km/h (0 Bft) SW 232 ° 0 min 0 W/m² 11,1 °C 12,0 °C 0,0 km/h (0 Bft)
28.08.2023 03:16 23,3 °C 11,9 °C 63 % 94 % 1011,2 hPa 0,0 l/m² 0,0 km/h (0 Bft) SW 232 ° 0 min 0 W/m² 11,0 °C 11,9 °C 0,0 km/h (0 Bft)
28.08.2023 03:18 23,3 °C 11,9 °C 63 % 94 % 1011,3 hPa 0,0 l/m² 0,0 km/h (0 Bft) SW 232 ° 0 min 0 W/m² 11,0 °C 11,9 °C 0,0 km/h (0 Bft)
28.08.2023 03:20 23,3 °C 11,9 °C 63 % 94 % 1011,3 hPa 0,0 l/m² 0,0 km/h (0 Bft) SW 232 ° 0 min 0 W/m² 11,0 °C 11,9 °C 0,0 km/h (0 Bft)
28.08.2023 03:21 23,3 °C 11,8 °C 63 % 94 % 1011,3 hPa 0,0 l/m² 0,0 km/h (0 Bft) SW 232 ° 0 min 0 W/m² 10,9 °C 11,8 °C 0,0 km/h (0 Bft)
28.08.2023 03:22 23,3 °C 11,8 °C 63 % 94 % 1011,3 hPa 0,0 l/m² 0,0 km/h (0 Bft) SW 232 ° 0 min 0 W/m² 10,9 °C 11,8 °C 0,0 km/h (0 Bft)
28.08.2023 03:23 23,3 °C 11,8 °C 63 % 94 % 1011,3 hPa 0,0 l/m² 0,0 km/h (0 Bft) SW 232 ° 0 min 0 W/m² 10,9 °C 11,8 °C 0,0 km/h (0 Bft)
28.08.2023 03:24 23,3 °C 11,8 °C 63 % 94 % 1011,3 hPa 0,0 l/m² 0,0 km/h (0 Bft) SW 232 ° 0 min 0 W/m² 10,9 °C 11,8 °C 0,0 km/h (0 Bft)
28.08.2023 03:26 23,3 °C 11,8 °C 63 % 94 % 1011,3 hPa 0,0 l/m² 0,6 km/h (0 Bft) SW 232 ° 0 min 0 W/m² 10,9 °C 11,8 °C 1,6 km/h (1 Bft)
28.08.2023 03:28 23,3 °C 11,8 °C 63 % 94 % 1011,2 hPa 0,0 l/m² 0,2 km/h (0 Bft) SW 232 ° 0 min 0 W/m² 10,9 °C 11,8 °C 1,6 km/h (1 Bft)
28.08.2023 03:30 23,3 °C 11,8 °C 63 % 94 % 1011,2 hPa 0,0 l/m² 1,2 km/h (1 Bft) SW 232 ° 0 min 0 W/m² 10,9 °C 11,8 °C 3,2 km/h (1 Bft)
28.08.2023 03:31 23,3 °C 11,8 °C 63 % 94 % 1011,2 hPa 0,0 l/m² 1,0 km/h (0 Bft) SW 232 ° 0 min 0 W/m² 10,9 °C 11,8 °C 1,6 km/h (1 Bft)
28.08.2023 03:33 23,3 °C 11,7 °C 63 % 94 % 1011,2 hPa 0,0 l/m² 1,0 km/h (0 Bft) SW 232 ° 0 min 0 W/m² 10,8 °C 11,7 °C 3,2 km/h (1 Bft)
28.08.2023 03:35 23,3 °C 11,6 °C 63 % 94 % 1011,2 hPa 0,0 l/m² 1,1 km/h (1 Bft) SW 227 ° 0 min 0 W/m² 10,7 °C 11,6 °C 3,2 km/h (1 Bft)
28.08.2023 03:37 23,3 °C 11,6 °C 63 % 94 % 1011,2 hPa 0,0 l/m² 2,4 km/h (1 Bft) S-SO 163 ° 0 min 0 W/m² 10,7 °C 11,6 °C 3,2 km/h (1 Bft)
28.08.2023 03:39 23,3 °C 11,6 °C 63 % 94 % 1011,1 hPa 0,0 l/m² 2,0 km/h (1 Bft) S-SO 163 ° 0 min 0 W/m² 10,7 °C 11,6 °C 3,2 km/h (1 Bft)
28.08.2023 03:40 23,3 °C 11,6 °C 63 % 94 % 1011,2 hPa 0,0 l/m² 2,4 km/h (1 Bft) S-SO 162 ° 0 min 0 W/m² 10,7 °C 11,6 °C 3,2 km/h (1 Bft)
28.08.2023 03:42 23,3 °C 11,7 °C 63 % 94 % 1011,2 hPa 0,0 l/m² 1,2 km/h (1 Bft) S-SO 162 ° 0 min 0 W/m² 10,8 °C 11,7 °C 3,2 km/h (1 Bft)
28.08.2023 03:44 23,3 °C 11,8 °C 63 % 94 % 1011,3 hPa 0,0 l/m² 1,0 km/h (0 Bft) S-SO 162 ° 0 min 0 W/m² 10,9 °C 11,8 °C 3,2 km/h (1 Bft)
28.08.2023 03:46 23,3 °C 11,8 °C 63 % 94 % 1011,2 hPa 0,0 l/m² 3,3 km/h (1 Bft) SO 126 ° 0 min 0 W/m² 10,9 °C 11,8 °C 4,8 km/h (1 Bft)
28.08.2023 03:47 23,3 °C 11,8 °C 63 % 94 % 1011,2 hPa 0,0 l/m² 3,1 km/h (1 Bft) SO 124 ° 0 min 0 W/m² 10,9 °C 11,8 °C 4,8 km/h (1 Bft)
28.08.2023 03:49 23,3 °C 11,8 °C 63 % 94 % 1011,2 hPa 0,0 l/m² 1,7 km/h (1 Bft) SO 124 ° 0 min 0 W/m² 10,9 °C 11,8 °C 4,8 km/h (1 Bft)
28.08.2023 03:50 23,3 °C 11,8 °C 63 % 94 % 1011,2 hPa 0,0 l/m² 0,0 km/h (0 Bft) SO 124 ° 0 min 0 W/m² 10,9 °C 11,8 °C 0,0 km/h (0 Bft)
28.08.2023 03:51 23,3 °C 11,8 °C 63 % 94 % 1011,2 hPa 0,0 l/m² 0,0 km/h (0 Bft) SO 124 ° 0 min 0 W/m² 10,9 °C 11,8 °C 0,0 km/h (0 Bft)
28.08.2023 03:52 23,3 °C 11,8 °C 63 % 94 % 1011,2 hPa 0,0 l/m² 0,0 km/h (0 Bft) SO 124 ° 0 min 0 W/m² 10,9 °C 11,8 °C 0,0 km/h (0 Bft)
28.08.2023 03:53 23,3 °C 11,8 °C 63 % 94 % 1011,1 hPa 0,0 l/m² 0,0 km/h (0 Bft) SO 124 ° 0 min 0 W/m² 10,9 °C 11,8 °C 0,0 km/h (0 Bft)
28.08.2023 03:54 23,3 °C 11,8 °C 63 % 94 % 1011,1 hPa 0,0 l/m² 0,0 km/h (0 Bft) SO 124 ° 0 min 0 W/m² 10,9 °C 11,8 °C 0,0 km/h (0 Bft)
28.08.2023 03:55 23,3 °C 11,8 °C 63 % 94 % 1011,2 hPa 0,0 l/m² 0,1 km/h (0 Bft) S 182 ° 0 min 0 W/m² 10,9 °C 11,8 °C 1,6 km/h (1 Bft)
28.08.2023 03:56 23,3 °C 11,8 °C 63 % 94 % 1011,0 hPa 0,0 l/m² 1,7 km/h (1 Bft) S-SW 200 ° 0 min 0 W/m² 10,9 °C 11,8 °C 3,2 km/h (1 Bft)
28.08.2023 03:57 23,3 °C 11,9 °C 63 % 94 % 1011,1 hPa 0,0 l/m² 2,5 km/h (1 Bft) S-SW 200 ° 0 min 0 W/m² 11,0 °C 11,9 °C 4,8 km/h (1 Bft)
28.08.2023 03:58 23,3 °C 11,9 °C 63 % 94 % 1011,1 hPa 0,0 l/m² 4,5 km/h (1 Bft) SW 226 ° 0 min 0 W/m² 11,0 °C 11,9 °C 6,4 km/h (2 Bft)
28.08.2023 03:59 23,3 °C 11,9 °C 63 % 94 % 1011,1 hPa 0,0 l/m² 3,3 km/h (1 Bft) SW 226 ° 0 min 0 W/m² 11,0 °C 11,9 °C 4,8 km/h (1 Bft)
28.08.2023 04:01 23,3 °C 12,0 °C 63 % 94 % 1011,0 hPa 0,0 l/m² 3,8 km/h (1 Bft) W-SW 237 ° 0 min 0 W/m² 11,1 °C 12,0 °C 4,8 km/h (1 Bft)
28.08.2023 04:03 23,3 °C 11,9 °C 63 % 94 % 1011,1 hPa 0,0 l/m² 1,9 km/h (1 Bft) W-SW 237 ° 0 min 0 W/m² 11,0 °C 11,9 °C 3,2 km/h (1 Bft)
28.08.2023 04:04 23,3 °C 11,9 °C 63 % 94 % 1011,1 hPa 0,0 l/m² 0,1 km/h (0 Bft) W-SW 237 ° 0 min 0 W/m² 11,0 °C 11,9 °C 1,6 km/h (1 Bft)
28.08.2023 04:05 23,3 °C 11,9 °C 63 % 94 % 1011,1 hPa 0,0 l/m² 2,1 km/h (1 Bft) W-SW 237 ° 0 min 0 W/m² 11,0 °C 11,9 °C 3,2 km/h (1 Bft)
28.08.2023 04:06 23,3 °C 11,9 °C 63 % 94 % 1011,1 hPa 0,0 l/m² 1,9 km/h (1 Bft) W-SW 237 ° 0 min 0 W/m² 11,0 °C 11,9 °C 3,2 km/h (1 Bft)
28.08.2023 04:07 23,3 °C 11,9 °C 63 % 94 % 1011,1 hPa 0,0 l/m² 0,3 km/h (0 Bft) W-SW 237 ° 0 min 0 W/m² 11,0 °C 11,9 °C 1,6 km/h (1 Bft)
28.08.2023 04:08 23,3 °C 11,8 °C 63 % 93 % 1011,1 hPa 0,0 l/m² 1,9 km/h (1 Bft) W-SW 237 ° 0 min 0 W/m² 10,7 °C 11,8 °C 3,2 km/h (1 Bft)
28.08.2023 04:09 23,3 °C 11,8 °C 63 % 93 % 1011,1 hPa 0,0 l/m² 0,5 km/h (0 Bft) W-SW 237 ° 0 min 0 W/m² 10,7 °C 11,8 °C 3,2 km/h (1 Bft)
28.08.2023 04:11 23,3 °C 11,7 °C 63 % 93 % 1011,2 hPa 0,0 l/m² 0,1 km/h (0 Bft) W-SW 237 ° 0 min 0 W/m² 10,6 °C 11,7 °C 1,6 km/h (1 Bft)
28.08.2023 04:13 23,3 °C 11,7 °C 63 % 93 % 1011,2 hPa 0,0 l/m² 0,6 km/h (0 Bft) W-SW 237 ° 0 min 0 W/m² 10,6 °C 11,7 °C 3,2 km/h (1 Bft)
28.08.2023 04:14 23,3 °C 11,6 °C 63 % 93 % 1011,2 hPa 0,0 l/m² 0,7 km/h (0 Bft) W-SW 237 ° 0 min 0 W/m² 10,5 °C 11,6 °C 1,6 km/h (1 Bft)
28.08.2023 04:15 23,3 °C 11,6 °C 63 % 94 % 1011,2 hPa 0,0 l/m² 0,9 km/h (0 Bft) W-SW 237 ° 0 min 0 W/m² 10,7 °C 11,6 °C 1,6 km/h (1 Bft)
28.08.2023 04:16 23,3 °C 11,6 °C 63 % 94 % 1011,3 hPa 0,0 l/m² 0,9 km/h (0 Bft) W-SW 237 ° 0 min 0 W/m² 10,7 °C 11,6 °C 3,2 km/h (1 Bft)
28.08.2023 04:17 23,3 °C 11,6 °C 63 % 94 % 1011,3 hPa 0,0 l/m² 1,5 km/h (1 Bft) W-SW 237 ° 0 min 0 W/m² 10,7 °C 11,6 °C 3,2 km/h (1 Bft)
28.08.2023 04:18 23,3 °C 11,6 °C 63 % 93 % 1011,5 hPa 0,0 l/m² 0,9 km/h (0 Bft) W-SW 237 ° 0 min 0 W/m² 10,5 °C 11,6 °C 3,2 km/h (1 Bft)
28.08.2023 04:19 23,3 °C 11,5 °C 63 % 93 % 1011,5 hPa 0,0 l/m² 2,0 km/h (1 Bft) W-SW 237 ° 0 min 0 W/m² 10,4 °C 11,5 °C 3,2 km/h (1 Bft)
28.08.2023 04:21 23,3 °C 11,4 °C 63 % 93 % 1011,5 hPa 0,0 l/m² 1,2 km/h (1 Bft) W-SW 237 ° 0 min 0 W/m² 10,3 °C 11,4 °C 3,2 km/h (1 Bft)
28.08.2023 04:23 23,3 °C 11,4 °C 63 % 93 % 1011,5 hPa 0,0 l/m² 0,0 km/h (0 Bft) W-SW 237 ° 0 min 0 W/m² 10,3 °C 11,4 °C 0,0 km/h (0 Bft)
28.08.2023 04:24 23,3 °C 11,4 °C 63 % 93 % 1011,6 hPa 0,0 l/m² 0,8 km/h (0 Bft) S-SO 167 ° 0 min 0 W/m² 10,3 °C 11,4 °C 6,4 km/h (2 Bft)
28.08.2023 04:25 23,3 °C 11,4 °C 63 % 93 % 1011,6 hPa 0,0 l/m² 5,5 km/h (2 Bft) O 98 ° 0 min 0 W/m² 10,3 °C 11,4 °C 6,4 km/h (2 Bft)
28.08.2023 04:26 23,3 °C 11,3 °C 63 % 93 % 1011,6 hPa 0,0 l/m² 5,6 km/h (2 Bft) O 95 ° 0 min 0 W/m² 10,2 °C 11,3 °C 6,4 km/h (2 Bft)
28.08.2023 04:27 23,3 °C 11,3 °C 63 % 94 % 1011,6 hPa 0,0 l/m² 5,3 km/h (1 Bft) O 95 ° 0 min 0 W/m² 10,4 °C 11,3 °C 6,4 km/h (2 Bft)
28.08.2023 04:28 23,3 °C 11,4 °C 63 % 94 % 1011,6 hPa 0,0 l/m² 5,3 km/h (1 Bft) O 94 ° 0 min 0 W/m² 10,5 °C 11,4 °C 6,4 km/h (2 Bft)
28.08.2023 04:29 23,3 °C 11,3 °C 63 % 94 % 1011,5 hPa 0,0 l/m² 4,1 km/h (1 Bft) O 94 ° 0 min 0 W/m² 10,4 °C 11,3 °C 4,8 km/h (1 Bft)
28.08.2023 04:31 23,3 °C 11,3 °C 63 % 94 % 1011,7 hPa 0,0 l/m² 4,7 km/h (1 Bft) O 94 ° 0 min 0 W/m² 10,4 °C 11,3 °C 6,4 km/h (2 Bft)
28.08.2023 04:33 23,2 °C 11,3 °C 63 % 94 % 1011,7 hPa 0,0 l/m² 2,6 km/h (1 Bft) O 94 ° 0 min 0 W/m² 10,4 °C 11,3 °C 4,8 km/h (1 Bft)
28.08.2023 04:34 23,3 °C 11,4 °C 63 % 94 % 1011,8 hPa 0,0 l/m² 2,7 km/h (1 Bft) O 94 ° 0 min 0 W/m² 10,5 °C 11,4 °C 4,8 km/h (1 Bft)
28.08.2023 04:35 23,3 °C 11,3 °C 63 % 94 % 1011,8 hPa 0,0 l/m² 2,7 km/h (1 Bft) O 94 ° 0 min 0 W/m² 10,4 °C 11,3 °C 4,8 km/h (1 Bft)
28.08.2023 04:36 23,3 °C 11,3 °C 63 % 94 % 1011,8 hPa 0,0 l/m² 4,1 km/h (1 Bft) O 94 ° 0 min 0 W/m² 10,4 °C 11,3 °C 4,8 km/h (1 Bft)
28.08.2023 04:37 23,3 °C 11,3 °C 63 % 94 % 1011,9 hPa 0,0 l/m² 3,8 km/h (1 Bft) O 94 ° 0 min 0 W/m² 10,4 °C 11,3 °C 4,8 km/h (1 Bft)
28.08.2023 04:38 23,3 °C 11,3 °C 63 % 94 % 1012,0 hPa 0,0 l/m² 3,6 km/h (1 Bft) O 95 ° 0 min 0 W/m² 10,4 °C 11,3 °C 6,4 km/h (2 Bft)
28.08.2023 04:39 23,3 °C 11,3 °C 63 % 94 % 1012,0 hPa 0,0 l/m² 4,2 km/h (1 Bft) O 96 ° 0 min 0 W/m² 10,4 °C 11,3 °C 6,4 km/h (2 Bft)
28.08.2023 04:40 23,3 °C 11,3 °C 63 % 94 % 1012,0 hPa 0,0 l/m² 3,0 km/h (1 Bft) O 96 ° 0 min 0 W/m² 10,4 °C 11,3 °C 4,8 km/h (1 Bft)
28.08.2023 04:42 23,3 °C 11,3 °C 63 % 94 % 1011,9 hPa 0,0 l/m² 3,4 km/h (1 Bft) O 97 ° 0 min 0 W/m² 10,4 °C 11,3 °C 6,4 km/h (2 Bft)
28.08.2023 04:43 23,3 °C 11,4 °C 63 % 94 % 1011,9 hPa 0,0 l/m² 2,0 km/h (1 Bft) O 97 ° 0 min 0 W/m² 10,5 °C 11,4 °C 3,2 km/h (1 Bft)
28.08.2023 04:44 23,3 °C 11,4 °C 63 % 94 % 1011,9 hPa 0,0 l/m² 2,0 km/h (1 Bft) O 97 ° 0 min 0 W/m² 10,5 °C 11,4 °C 3,2 km/h (1 Bft)
28.08.2023 04:45 23,3 °C 11,4 °C 63 % 94 % 1011,9 hPa 0,0 l/m² 0,1 km/h (0 Bft) O 97 ° 0 min 0 W/m² 10,5 °C 11,4 °C 1,6 km/h (1 Bft)
28.08.2023 04:46 23,3 °C 11,4 °C 63 % 94 % 1011,9 hPa 0,0 l/m² 0,0 km/h (0 Bft) O 97 ° 0 min 0 W/m² 10,5 °C 11,4 °C 0,0 km/h (0 Bft)
28.08.2023 04:47 23,3 °C 11,4 °C 63 % 94 % 1011,8 hPa 0,0 l/m² 0,0 km/h (0 Bft) O 97 ° 0 min 0 W/m² 10,5 °C 11,4 °C 0,0 km/h (0 Bft)
28.08.2023 04:48 23,3 °C 11,4 °C 63 % 94 % 1011,9 hPa 0,0 l/m² 0,7 km/h (0 Bft) O 97 ° 0 min 0 W/m² 10,5 °C 11,4 °C 3,2 km/h (1 Bft)
28.08.2023 04:49 23,3 °C 11,4 °C 63 % 94 % 1011,9 hPa 0,0 l/m² 2,7 km/h (1 Bft) O 100 ° 0 min 0 W/m² 10,5 °C 11,4 °C 4,8 km/h (1 Bft)
28.08.2023 04:51 23,3 °C 11,6 °C 63 % 94 % 1011,9 hPa 0,0 l/m² 3,1 km/h (1 Bft) O-SO 112 ° 0 min 0 W/m² 10,7 °C 11,6 °C 4,8 km/h (1 Bft)
28.08.2023 04:52 23,3 °C 11,6 °C 63 % 94 % 1011,9 hPa 0,0 l/m² 3,6 km/h (1 Bft) O-SO 112 ° 0 min 0 W/m² 10,7 °C 11,6 °C 4,8 km/h (1 Bft)
28.08.2023 04:53 23,3 °C 11,7 °C 63 % 94 % 1011,9 hPa 0,0 l/m² 4,7 km/h (1 Bft) O-SO 122 ° 0 min 0 W/m² 10,8 °C 11,7 °C 6,4 km/h (2 Bft)
28.08.2023 04:54 23,3 °C 11,7 °C 63 % 94 % 1011,8 hPa 0,0 l/m² 4,5 km/h (1 Bft) O-SO 122 ° 0 min 0 W/m² 10,8 °C 11,7 °C 6,4 km/h (2 Bft)
28.08.2023 04:55 23,3 °C 11,7 °C 63 % 95 % 1011,8 hPa 0,0 l/m² 3,4 km/h (1 Bft) O-SO 122 ° 0 min 0 W/m² 10,9 °C 11,7 °C 4,8 km/h (1 Bft)
28.08.2023 04:56 23,3 °C 11,7 °C 63 % 94 % 1011,9 hPa 0,0 l/m² 4,1 km/h (1 Bft) O-SO 122 ° 0 min 0 W/m² 10,8 °C 11,7 °C 4,8 km/h (1 Bft)
28.08.2023 04:57 23,3 °C 11,8 °C 63 % 94 % 1011,9 hPa 0,0 l/m² 6,4 km/h (2 Bft) S-SO 164 ° 0 min 0 W/m² 10,9 °C 11,8 °C 8,0 km/h (2 Bft)
28.08.2023 04:58 23,3 °C 11,8 °C 63 % 94 % 1012,0 hPa 0,0 l/m² 6,4 km/h (2 Bft) S-SO 165 ° 0 min 0 W/m² 10,9 °C 11,8 °C 8,0 km/h (2 Bft)
28.08.2023 04:59 23,3 °C 11,8 °C 63 % 94 % 1011,9 hPa 0,0 l/m² 6,3 km/h (2 Bft) S 173 ° 0 min 0 W/m² 10,9 °C 11,8 °C 6,4 km/h (2 Bft)
28.08.2023 05:01 23,3 °C 11,9 °C 63 % 94 % 1012,0 hPa 0,0 l/m² 6,2 km/h (2 Bft) SW 227 ° 0 min 0 W/m² 11,0 °C 11,9 °C 8,0 km/h (2 Bft)
28.08.2023 05:03 23,3 °C 11,9 °C 63 % 94 % 1012,0 hPa 0,0 l/m² 5,8 km/h (2 Bft) W-SW 238 ° 0 min 0 W/m² 11,0 °C 11,9 °C 8,0 km/h (2 Bft)
28.08.2023 05:04 23,3 °C 12,0 °C 63 % 94 % 1012,0 hPa 0,0 l/m² 6,3 km/h (2 Bft) W-SW 238 ° 0 min 0 W/m² 11,1 °C 12,0 °C 8,0 km/h (2 Bft)
28.08.2023 05:05 23,3 °C 12,0 °C 63 % 94 % 1012,1 hPa 0,0 l/m² 6,3 km/h (2 Bft) W-SW 238 ° 0 min 0 W/m² 11,1 °C 12,0 °C 8,0 km/h (2 Bft)
28.08.2023 05:06 23,3 °C 12,1 °C 63 % 94 % 1012,0 hPa 0,0 l/m² 5,2 km/h (1 Bft) W-SW 238 ° 0 min 0 W/m² 11,2 °C 12,1 °C 6,4 km/h (2 Bft)
28.08.2023 05:07 23,3 °C 12,1 °C 63 % 94 % 1012,0 hPa 0,0 l/m² 5,5 km/h (2 Bft) W-SW 238 ° 0 min 0 W/m² 11,2 °C 12,1 °C 6,4 km/h (2 Bft)
28.08.2023 05:08 23,3 °C 12,1 °C 63 % 94 % 1012,0 hPa 0,0 l/m² 6,9 km/h (2 Bft) W-SW 238 ° 0 min 0 W/m² 11,2 °C 11,8 °C 8,0 km/h (2 Bft)
28.08.2023 05:09 23,3 °C 12,1 °C 63 % 94 % 1012,0 hPa 0,0 l/m² 6,5 km/h (2 Bft) W-SW 240 ° 0 min 0 W/m² 11,2 °C 12,1 °C 8,0 km/h (2 Bft)
28.08.2023 05:10 23,3 °C 12,1 °C 63 % 94 % 1012,1 hPa 0,0 l/m² 6,0 km/h (2 Bft) W-SW 244 ° 0 min 0 W/m² 11,2 °C 12,1 °C 8,0 km/h (2 Bft)
28.08.2023 05:12 23,3 °C 12,1 °C 63 % 93 % 1012,1 hPa 0,0 l/m² 6,6 km/h (2 Bft) W-SW 245 ° 0 min 0 W/m² 11,0 °C 12,0 °C 8,0 km/h (2 Bft)
28.08.2023 05:13 23,3 °C 12,1 °C 63 % 93 % 1012,1 hPa 0,0 l/m² 7,8 km/h (2 Bft) W-SW 246 ° 0 min 0 W/m² 11,0 °C 11,2 °C 11,3 km/h (2 Bft)
28.08.2023 05:14 23,3 °C 12,1 °C 63 % 93 % 1012,1 hPa 0,0 l/m² 9,1 km/h (2 Bft) W-SW 247 ° 0 min 0 W/m² 11,0 °C 10,4 °C 11,3 km/h (2 Bft)
28.08.2023 05:15 23,3 °C 12,2 °C 63 % 93 % 1012,1 hPa 0,0 l/m² 8,2 km/h (2 Bft) W-SW 248 ° 0 min 0 W/m² 11,1 °C 11,0 °C 11,3 km/h (2 Bft)
28.08.2023 05:16 23,3 °C 12,2 °C 63 % 93 % 1012,1 hPa 0,0 l/m² 8,3 km/h (2 Bft) W-SW 248 ° 0 min 0 W/m² 11,1 °C 11,0 °C 11,3 km/h (2 Bft)
28.08.2023 05:17 23,3 °C 12,1 °C 63 % 93 % 1012,1 hPa 0,0 l/m² 8,7 km/h (2 Bft) W-SW 247 ° 0 min 0 W/m² 11,0 °C 10,6 °C 11,3 km/h (2 Bft)
28.08.2023 05:18 23,3 °C 12,2 °C 63 % 93 % 1012,1 hPa 0,0 l/m² 9,2 km/h (2 Bft) W-SW 241 ° 0 min 0 W/m² 11,1 °C 10,5 °C 11,3 km/h (2 Bft)
28.08.2023 05:19 23,3 °C 12,1 °C 63 % 93 % 1012,1 hPa 0,0 l/m² 6,6 km/h (2 Bft) W-SW 239 ° 0 min 0 W/m² 11,0 °C 12,0 °C 8,0 km/h (2 Bft)
28.08.2023 05:21 23,3 °C 12,1 °C 63 % 93 % 1012,0 hPa 0,0 l/m² 5,5 km/h (2 Bft) SW 234 ° 0 min 0 W/m² 11,0 °C 12,1 °C 8,0 km/h (2 Bft)
28.08.2023 05:23 23,3 °C 12,1 °C 63 % 93 % 1012,0 hPa 0,0 l/m² 6,6 km/h (2 Bft) SW 231 ° 0 min 0 W/m² 11,0 °C 12,0 °C 8,0 km/h (2 Bft)
28.08.2023 05:24 23,3 °C 12,1 °C 63 % 93 % 1012,1 hPa 0,0 l/m² 7,3 km/h (2 Bft) SW 224 ° 0 min 0 W/m² 11,0 °C 11,5 °C 9,7 km/h (2 Bft)
28.08.2023 05:25 23,3 °C 12,1 °C 63 % 93 % 1012,0 hPa 0,0 l/m² 7,6 km/h (2 Bft) SW 224 ° 0 min 0 W/m² 11,0 °C 11,3 °C 9,7 km/h (2 Bft)
28.08.2023 05:26 23,3 °C 12,1 °C 63 % 93 % 1012,0 hPa 0,0 l/m² 8,2 km/h (2 Bft) SW 224 ° 0 min 0 W/m² 11,0 °C 10,9 °C 9,7 km/h (2 Bft)
28.08.2023 05:27 23,3 °C 12,1 °C 63 % 93 % 1012,1 hPa 0,0 l/m² 7,6 km/h (2 Bft) SW 223 ° 0 min 0 W/m² 11,0 °C 11,3 °C 8,0 km/h (2 Bft)
28.08.2023 05:28 23,3 °C 12,1 °C 63 % 93 % 1012,1 hPa 0,0 l/m² 7,3 km/h (2 Bft) SW 225 ° 0 min 0 W/m² 11,0 °C 11,5 °C 8,0 km/h (2 Bft)
28.08.2023 05:29 23,3 °C 12,1 °C 63 % 93 % 1012,1 hPa 0,0 l/m² 7,1 km/h (2 Bft) SW 225 ° 0 min 0 W/m² 11,0 °C 11,6 °C 8,0 km/h (2 Bft)
28.08.2023 05:30 23,3 °C 12,1 °C 63 % 93 % 1012,0 hPa 0,0 l/m² 6,4 km/h (2 Bft) SW 225 ° 0 min 0 W/m² 11,0 °C 12,1 °C 8,0 km/h (2 Bft)
28.08.2023 05:32 23,3 °C 12,1 °C 63 % 93 % 1012,1 hPa 0,0 l/m² 5,2 km/h (1 Bft) SW 225 ° 0 min 0 W/m² 11,0 °C 12,1 °C 6,4 km/h (2 Bft)
28.08.2023 05:33 23,3 °C 12,1 °C 63 % 93 % 1012,1 hPa 0,0 l/m² 4,7 km/h (1 Bft) SW 225 ° 0 min 0 W/m² 11,0 °C 12,1 °C 6,4 km/h (2 Bft)
28.08.2023 05:34 23,3 °C 12,0 °C 63 % 93 % 1012,1 hPa 0,0 l/m² 3,8 km/h (1 Bft) SW 225 ° 0 min 0 W/m² 10,9 °C 12,0 °C 4,8 km/h (1 Bft)
28.08.2023 05:35 23,3 °C 12,0 °C 63 % 93 % 1012,1 hPa 0,0 l/m² 3,0 km/h (1 Bft) SW 225 ° 0 min 0 W/m² 10,9 °C 12,0 °C 4,8 km/h (1 Bft)
28.08.2023 05:36 23,3 °C 12,0 °C 63 % 93 % 1012,1 hPa 0,0 l/m² 2,3 km/h (1 Bft) SW 225 ° 0 min 0 W/m² 10,9 °C 12,0 °C 3,2 km/h (1 Bft)
28.08.2023 05:37 23,3 °C 12,0 °C 63 % 93 % 1012,1 hPa 0,0 l/m² 1,5 km/h (1 Bft) SW 225 ° 0 min 0 W/m² 10,9 °C 12,0 °C 3,2 km/h (1 Bft)
28.08.2023 05:38 23,3 °C 12,0 °C 63 % 93 % 1012,1 hPa 0,0 l/m² 2,2 km/h (1 Bft) SW 225 ° 0 min 0 W/m² 10,9 °C 12,0 °C 3,2 km/h (1 Bft)
28.08.2023 05:39 23,3 °C 11,9 °C 63 % 93 % 1012,1 hPa 0,0 l/m² 1,9 km/h (1 Bft) SW 225 ° 0 min 0 W/m² 10,8 °C 11,9 °C 3,2 km/h (1 Bft)
28.08.2023 05:40 23,3 °C 11,9 °C 63 % 93 % 1012,1 hPa 0,0 l/m² 0,5 km/h (0 Bft) SW 225 ° 0 min 0 W/m² 10,8 °C 11,9 °C 1,6 km/h (1 Bft)
28.08.2023 05:42 23,3 °C 12,0 °C 63 % 93 % 1012,0 hPa 0,0 l/m² 1,2 km/h (1 Bft) SW 225 ° 0 min 0 W/m² 10,9 °C 12,0 °C 3,2 km/h (1 Bft)
28.08.2023 05:44 23,3 °C 11,9 °C 63 % 93 % 1012,0 hPa 0,0 l/m² 1,9 km/h (1 Bft) SW 225 ° 0 min 0 W/m² 10,8 °C 11,9 °C 4,8 km/h (1 Bft)
28.08.2023 05:45 23,3 °C 11,9 °C 63 % 93 % 1012,1 hPa 0,0 l/m² 2,0 km/h (1 Bft) SW 225 ° 0 min 0 W/m² 10,8 °C 11,9 °C 4,8 km/h (1 Bft)
28.08.2023 05:46 23,3 °C 11,9 °C 63 % 93 % 1012,0 hPa 0,0 l/m² 2,1 km/h (1 Bft) SW 225 ° 0 min 0 W/m² 10,8 °C 11,9 °C 3,2 km/h (1 Bft)
28.08.2023 05:47 23,3 °C 11,9 °C 63 % 93 % 1012,0 hPa 0,0 l/m² 2,3 km/h (1 Bft) SW 227 ° 0 min 0 W/m² 10,8 °C 11,9 °C 4,8 km/h (1 Bft)
28.08.2023 05:48 23,3 °C 11,9 °C 63 % 93 % 1012,0 hPa 0,0 l/m² 2,7 km/h (1 Bft) SW 227 ° 0 min 0 W/m² 10,8 °C 11,9 °C 4,8 km/h (1 Bft)
28.08.2023 05:49 23,3 °C 11,9 °C 63 % 93 % 1011,9 hPa 0,0 l/m² 2,1 km/h (1 Bft) SW 227 ° 0 min 0 W/m² 10,8 °C 11,9 °C 4,8 km/h (1 Bft)
28.08.2023 05:50 23,2 °C 11,9 °C 63 % 93 % 1012,0 hPa 0,0 l/m² 1,1 km/h (1 Bft) SW 227 ° 0 min 0 W/m² 10,8 °C 11,9 °C 3,2 km/h (1 Bft)
28.08.2023 05:52 23,3 °C 11,8 °C 63 % 93 % 1011,9 hPa 0,0 l/m² 2,4 km/h (1 Bft) SW 227 ° 0 min 0 W/m² 10,7 °C 11,8 °C 4,8 km/h (1 Bft)
28.08.2023 05:54 23,2 °C 11,8 °C 63 % 93 % 1011,8 hPa 0,0 l/m² 2,0 km/h (1 Bft) SW 227 ° 0 min 0 W/m² 10,7 °C 11,8 °C 3,2 km/h (1 Bft)
28.08.2023 05:55 23,2 °C 11,8 °C 63 % 93 % 1011,7 hPa 0,0 l/m² 0,7 km/h (0 Bft) SW 227 ° 0 min 0 W/m² 10,7 °C 11,8 °C 1,6 km/h (1 Bft)
28.08.2023 05:56 23,2 °C 11,7 °C 63 % 93 % 1011,6 hPa 0,0 l/m² 0,0 km/h (0 Bft) SW 227 ° 0 min 0 W/m² 10,6 °C 11,7 °C 0,0 km/h (0 Bft)
28.08.2023 05:57 23,2 °C 11,7 °C 63 % 93 % 1011,7 hPa 0,0 l/m² 0,0 km/h (0 Bft) SW 227 ° 0 min 0 W/m² 10,6 °C 11,7 °C 0,0 km/h (0 Bft)
28.08.2023 05:58 23,2 °C 11,7 °C 63 % 93 % 1011,7 hPa 0,0 l/m² 0,0 km/h (0 Bft) SW 227 ° 0 min 0 W/m² 10,6 °C 11,7 °C 0,0 km/h (0 Bft)
28.08.2023 05:59 23,2 °C 11,6 °C 63 % 92 % 1011,7 hPa 0,0 l/m² 0,1 km/h (0 Bft) SW 227 ° 0 min 0 W/m² 10,3 °C 11,6 °C 1,6 km/h (1 Bft)
28.08.2023 06:00 23,2 °C 11,6 °C 63 % 92 % 1011,7 hPa 0,0 l/m² 1,1 km/h (1 Bft) SW 227 ° 0 min 0 W/m² 10,3 °C 11,6 °C 3,2 km/h (1 Bft)
28.08.2023 06:02 23,2 °C 11,5 °C 63 % 93 % 1011,8 hPa 0,0 l/m² 1,4 km/h (1 Bft) SW 227 ° 0 min 0 W/m² 10,4 °C 11,5 °C 3,2 km/h (1 Bft)
28.08.2023 06:04 23,2 °C 11,4 °C 63 % 93 % 1011,7 hPa 0,0 l/m² 2,0 km/h (1 Bft) SW 227 ° 0 min 0 W/m² 10,3 °C 11,4 °C 3,2 km/h (1 Bft)
28.08.2023 06:05 23,2 °C 11,4 °C 63 % 93 % 1011,7 hPa 0,0 l/m² 3,8 km/h (1 Bft) O-SO 103 ° 0 min 0 W/m² 10,3 °C 11,4 °C 6,4 km/h (2 Bft)
28.08.2023 06:06 23,3 °C 11,4 °C 63 % 93 % 1011,7 hPa 0,0 l/m² 5,8 km/h (2 Bft) O 101 ° 0 min 0 W/m² 10,3 °C 11,4 °C 6,4 km/h (2 Bft)
28.08.2023 06:07 23,3 °C 11,4 °C 63 % 93 % 1011,7 hPa 0,0 l/m² 5,4 km/h (2 Bft) O 101 ° 0 min 0 W/m² 10,3 °C 11,4 °C 6,4 km/h (2 Bft)
28.08.2023 06:08 23,2 °C 11,3 °C 63 % 93 % 1011,7 hPa 0,0 l/m² 5,0 km/h (1 Bft) O 101 ° 0 min 0 W/m² 10,2 °C 11,3 °C 6,4 km/h (2 Bft)
28.08.2023 06:09 23,2 °C 11,3 °C 63 % 93 % 1011,8 hPa 0,0 l/m² 4,2 km/h (1 Bft) O 101 ° 0 min 0 W/m² 10,2 °C 11,3 °C 6,4 km/h (2 Bft)
28.08.2023 06:11 23,2 °C 11,3 °C 63 % 93 % 1011,6 hPa 0,0 l/m² 1,9 km/h (1 Bft) O 101 ° 0 min 0 W/m² 10,2 °C 11,3 °C 3,2 km/h (1 Bft)
28.08.2023 06:13 23,2 °C 11,3 °C 63 % 93 % 1011,6 hPa 0,0 l/m² 0,2 km/h (0 Bft) O 101 ° 0 min 0 W/m² 10,2 °C 11,3 °C 1,6 km/h (1 Bft)
28.08.2023 06:14 23,2 °C 11,3 °C 63 % 93 % 1011,5 hPa 0,0 l/m² 0,1 km/h (0 Bft) O 101 ° 0 min 0 W/m² 10,2 °C 11,3 °C 1,6 km/h (1 Bft)
28.08.2023 06:15 23,2 °C 11,3 °C 63 % 93 % 1011,5 hPa 0,0 l/m² 0,0 km/h (0 Bft) O 101 ° 0 min 0 W/m² 10,2 °C 11,3 °C 0,0 km/h (0 Bft)
28.08.2023 06:16 23,2 °C 11,4 °C 63 % 93 % 1011,5 hPa 0,0 l/m² 0,0 km/h (0 Bft) O 101 ° 0 min 0 W/m² 10,3 °C 11,4 °C 0,0 km/h (0 Bft)
28.08.2023 06:17 23,2 °C 11,4 °C 63 % 93 % 1011,5 hPa 0,0 l/m² 0,1 km/h (0 Bft) O 101 ° 0 min 0 W/m² 10,3 °C 11,4 °C 1,6 km/h (1 Bft)
28.08.2023 06:18 23,2 °C 11,4 °C 63 % 93 % 1011,4 hPa 0,0 l/m² 0,0 km/h (0 Bft) O 101 ° 0 min 0 W/m² 10,3 °C 11,4 °C 0,0 km/h (0 Bft)
28.08.2023 06:19 23,2 °C 11,4 °C 63 % 93 % 1011,4 hPa 0,0 l/m² 0,2 km/h (0 Bft) O 101 ° 0 min 0 W/m² 10,3 °C 11,4 °C 1,6 km/h (1 Bft)
28.08.2023 06:20 23,2 °C 11,4 °C 63 % 93 % 1011,4 hPa 0,0 l/m² 2,5 km/h (1 Bft) O-SO 102 ° 0 min 0 W/m² 10,3 °C 11,4 °C 3,2 km/h (1 Bft)
28.08.2023 06:22 23,2 °C 11,5 °C 63 % 94 % 1011,4 hPa 0,0 l/m² 4,1 km/h (1 Bft) O-SO 107 ° 0 min 0 W/m² 10,6 °C 11,5 °C 6,4 km/h (2 Bft)
28.08.2023 06:24 23,2 °C 11,6 °C 63 % 94 % 1011,6 hPa 0,0 l/m² 0,3 km/h (0 Bft) O-SO 107 ° 0 min 5 W/m² 10,7 °C 11,6 °C 1,6 km/h (1 Bft)
28.08.2023 06:25 23,2 °C 11,6 °C 63 % 94 % 1011,6 hPa 0,0 l/m² 1,3 km/h (1 Bft) O-SO 107 ° 0 min 5 W/m² 10,7 °C 11,6 °C 3,2 km/h (1 Bft)
28.08.2023 06:26 23,2 °C 11,6 °C 63 % 94 % 1011,6 hPa 0,0 l/m² 4,2 km/h (1 Bft) O-SO 113 ° 0 min 5 W/m² 10,7 °C 11,6 °C 6,4 km/h (2 Bft)
28.08.2023 06:27 23,2 °C 11,6 °C 63 % 94 % 1011,6 hPa 0,0 l/m² 2,5 km/h (1 Bft) O-SO 113 ° 0 min 7 W/m² 10,7 °C 11,6 °C 4,8 km/h (1 Bft)
28.08.2023 06:28 23,2 °C 11,7 °C 63 % 94 % 1011,6 hPa 0,0 l/m² 1,7 km/h (1 Bft) O-SO 113 ° 0 min 7 W/m² 10,8 °C 11,7 °C 3,2 km/h (1 Bft)
28.08.2023 06:29 23,3 °C 11,7 °C 63 % 94 % 1011,5 hPa 0,0 l/m² 1,0 km/h (0 Bft) O-SO 113 ° 0 min 9 W/m² 10,8 °C 11,7 °C 1,6 km/h (1 Bft)
28.08.2023 06:30 23,2 °C 11,8 °C 63 % 93 % 1011,5 hPa 0,0 l/m² 0,5 km/h (0 Bft) O-SO 113 ° 0 min 9 W/m² 10,7 °C 11,8 °C 1,6 km/h (1 Bft)
28.08.2023 06:32 23,2 °C 11,8 °C 63 % 93 % 1011,5 hPa 0,0 l/m² 0,0 km/h (0 Bft) O-SO 113 ° 0 min 12 W/m² 10,7 °C 11,8 °C 0,0 km/h (0 Bft)
28.08.2023 06:34 23,2 °C 11,7 °C 63 % 93 % 1011,5 hPa 0,0 l/m² 0,0 km/h (0 Bft) O-SO 113 ° 0 min 12 W/m² 10,6 °C 11,7 °C 0,0 km/h (0 Bft)
28.08.2023 06:35 23,3 °C 11,7 °C 63 % 93 % 1011,5 hPa 0,0 l/m² 0,0 km/h (0 Bft) O-SO 113 ° 0 min 14 W/m² 10,6 °C 11,7 °C 0,0 km/h (0 Bft)
28.08.2023 06:36 23,2 °C 11,6 °C 63 % 93 % 1011,5 hPa 0,0 l/m² 0,0 km/h (0 Bft) O-SO 113 ° 0 min 14 W/m² 10,5 °C 11,6 °C 0,0 km/h (0 Bft)
28.08.2023 06:37 23,2 °C 11,6 °C 63 % 93 % 1011,5 hPa 0,0 l/m² 0,0 km/h (0 Bft) O-SO 113 ° 0 min 14 W/m² 10,5 °C 11,6 °C 0,0 km/h (0 Bft)
28.08.2023 06:38 23,3 °C 11,6 °C 63 % 93 % 1011,5 hPa 0,0 l/m² 0,1 km/h (0 Bft) O-SO 113 ° 0 min 16 W/m² 10,5 °C 11,6 °C 1,6 km/h (1 Bft)
28.08.2023 06:39 23,2 °C 11,6 °C 63 % 93 % 1011,5 hPa 0,0 l/m² 3,4 km/h (1 Bft) O-SO 115 ° 0 min 16 W/m² 10,5 °C 11,6 °C 6,4 km/h (2 Bft)
28.08.2023 06:40 23,2 °C 11,6 °C 63 % 93 % 1011,6 hPa 0,0 l/m² 3,9 km/h (1 Bft) O-SO 117 ° 0 min 16 W/m² 10,5 °C 11,6 °C 6,4 km/h (2 Bft)
28.08.2023 06:42 23,2 °C 11,7 °C 63 % 93 % 1011,6 hPa 0,0 l/m² 3,9 km/h (1 Bft) O-SO 118 ° 0 min 18 W/m² 10,6 °C 11,7 °C 4,8 km/h (1 Bft)
28.08.2023 06:43 23,2 °C 11,7 °C 63 % 93 % 1011,5 hPa 0,0 l/m² 4,2 km/h (1 Bft) O-SO 118 ° 0 min 19 W/m² 10,6 °C 11,7 °C 6,4 km/h (2 Bft)
28.08.2023 06:44 23,3 °C 11,7 °C 63 % 93 % 1011,6 hPa 0,0 l/m² 3,2 km/h (1 Bft) O-SO 118 ° 0 min 19 W/m² 10,6 °C 11,7 °C 4,8 km/h (1 Bft)
28.08.2023 06:45 23,2 °C 11,7 °C 63 % 93 % 1011,6 hPa 0,0 l/m² 3,1 km/h (1 Bft) O-SO 118 ° 0 min 19 W/m² 10,6 °C 11,7 °C 4,8 km/h (1 Bft)
28.08.2023 06:46 23,2 °C 11,7 °C 63 % 93 % 1011,6 hPa 0,0 l/m² 2,6 km/h (1 Bft) O-SO 118 ° 0 min 19 W/m² 10,6 °C 11,7 °C 3,2 km/h (1 Bft)
28.08.2023 06:47 23,3 °C 11,7 °C 63 % 93 % 1011,5 hPa 0,0 l/m² 1,8 km/h (1 Bft) O-SO 118 ° 0 min 19 W/m² 10,6 °C 11,7 °C 3,2 km/h (1 Bft)
28.08.2023 06:48 23,2 °C 11,7 °C 63 % 93 % 1011,6 hPa 0,0 l/m² 1,8 km/h (1 Bft) O-SO 118 ° 0 min 19 W/m² 10,6 °C 11,7 °C 3,2 km/h (1 Bft)
28.08.2023 06:49 23,2 °C 11,7 °C 63 % 93 % 1011,5 hPa 0,0 l/m² 0,3 km/h (0 Bft) O-SO 118 ° 0 min 21 W/m² 10,6 °C 11,7 °C 1,6 km/h (1 Bft)
28.08.2023 06:50 23,2 °C 11,7 °C 63 % 93 % 1011,5 hPa 0,0 l/m² 0,8 km/h (0 Bft) O-SO 118 ° 0 min 21 W/m² 10,6 °C 11,7 °C 1,6 km/h (1 Bft)
28.08.2023 06:52 23,3 °C 11,8 °C 63 % 93 % 1011,5 hPa 0,0 l/m² 0,1 km/h (0 Bft) O-SO 118 ° 0 min 23 W/m² 10,7 °C 11,8 °C 1,6 km/h (1 Bft)
28.08.2023 06:54 23,2 °C 11,8 °C 61 % 93 % 1011,5 hPa 0,0 l/m² 0,1 km/h (0 Bft) O-SO 118 ° 0 min 25 W/m² 10,7 °C 11,8 °C 1,6 km/h (1 Bft)
28.08.2023 06:55 23,2 °C 11,8 °C 60 % 93 % 1011,5 hPa 0,0 l/m² 0,6 km/h (0 Bft) O-SO 118 ° 0 min 25 W/m² 10,7 °C 11,8 °C 3,2 km/h (1 Bft)
28.08.2023 06:56 23,2 °C 11,8 °C 59 % 93 % 1011,4 hPa 0,0 l/m² 3,2 km/h (1 Bft) O-SO 118 ° 0 min 26 W/m² 10,7 °C 11,8 °C 3,2 km/h (1 Bft)
28.08.2023 06:57 23,2 °C 11,8 °C 59 % 93 % 1011,4 hPa 0,0 l/m² 2,8 km/h (1 Bft) O-SO 118 ° 0 min 28 W/m² 10,7 °C 11,8 °C 3,2 km/h (1 Bft)
28.08.2023 06:58 23,2 °C 11,8 °C 59 % 93 % 1011,5 hPa 0,0 l/m² 3,1 km/h (1 Bft) O-SO 118 ° 0 min 28 W/m² 10,7 °C 11,8 °C 4,8 km/h (1 Bft)
28.08.2023 06:59 23,2 °C 11,8 °C 58 % 93 % 1011,5 hPa 0,0 l/m² 3,3 km/h (1 Bft) O-SO 118 ° 0 min 30 W/m² 10,7 °C 11,8 °C 4,8 km/h (1 Bft)
28.08.2023 07:00 23,2 °C 11,8 °C 58 % 93 % 1011,5 hPa 0,0 l/m² 2,9 km/h (1 Bft) O-SO 118 ° 0 min 32 W/m² 10,7 °C 11,8 °C 4,8 km/h (1 Bft)
28.08.2023 07:02 23,2 °C 11,8 °C 58 % 93 % 1011,5 hPa 0,0 l/m² 2,9 km/h (1 Bft) O-SO 118 ° 0 min 35 W/m² 10,7 °C 11,8 °C 4,8 km/h (1 Bft)
28.08.2023 07:04 23,1 °C 11,8 °C 58 % 93 % 1011,6 hPa 0,0 l/m² 1,0 km/h (0 Bft) O-SO 118 ° 0 min 37 W/m² 10,7 °C 11,8 °C 4,8 km/h (1 Bft)
28.08.2023 07:05 23,1 °C 11,8 °C 58 % 93 % 1011,8 hPa 0,0 l/m² 0,0 km/h (0 Bft) O-SO 118 ° 0 min 39 W/m² 10,7 °C 11,8 °C 0,0 km/h (0 Bft)
28.08.2023 07:06 23,1 °C 11,8 °C 58 % 93 % 1011,7 hPa 0,0 l/m² 0,0 km/h (0 Bft) O-SO 118 ° 0 min 40 W/m² 10,7 °C 11,8 °C 0,0 km/h (0 Bft)
28.08.2023 07:07 23,1 °C 11,8 °C 59 % 93 % 1011,7 hPa 0,0 l/m² 0,0 km/h (0 Bft) O-SO 118 ° 0 min 42 W/m² 10,7 °C 11,8 °C 0,0 km/h (0 Bft)
28.08.2023 07:08 23,1 °C 11,8 °C 58 % 93 % 1011,7 hPa 0,0 l/m² 0,0 km/h (0 Bft) O-SO 118 ° 0 min 47 W/m² 10,7 °C 11,8 °C 0,0 km/h (0 Bft)
28.08.2023 07:09 23,1 °C 11,8 °C 59 % 93 % 1011,8 hPa 0,0 l/m² 0,0 km/h (0 Bft) O-SO 118 ° 0 min 49 W/m² 10,7 °C 11,8 °C 0,0 km/h (0 Bft)
28.08.2023 07:10 23,1 °C 11,8 °C 59 % 93 % 1011,8 hPa 0,0 l/m² 0,0 km/h (0 Bft) O-SO 118 ° 0 min 51 W/m² 10,7 °C 11,8 °C 0,0 km/h (0 Bft)
28.08.2023 07:12 23,1 °C 11,8 °C 59 % 93 % 1011,7 hPa 0,0 l/m² 0,0 km/h (0 Bft) O-SO 118 ° 2 min 53 W/m² 10,7 °C 11,8 °C 0,0 km/h (0 Bft)
28.08.2023 07:14 23,1 °C 11,9 °C 59 % 93 % 1011,7 hPa 0,0 l/m² 0,0 km/h (0 Bft) O-SO 118 ° 2 min 53 W/m² 10,8 °C 11,9 °C 0,0 km/h (0 Bft)
28.08.2023 07:15 23,1 °C 11,9 °C 59 % 93 % 1011,7 hPa 0,0 l/m² 0,0 km/h (0 Bft) O-SO 118 ° 1 min 53 W/m² 10,8 °C 11,9 °C 0,0 km/h (0 Bft)
28.08.2023 07:16 23,1 °C 11,9 °C 59 % 93 % 1011,7 hPa 0,0 l/m² 0,0 km/h (0 Bft) O-SO 118 ° 1 min 53 W/m² 10,8 °C 11,9 °C 0,0 km/h (0 Bft)
28.08.2023 07:17 23,1 °C 11,9 °C 59 % 93 % 1011,7 hPa 0,0 l/m² 0,0 km/h (0 Bft) O-SO 118 ° 1 min 53 W/m² 10,8 °C 11,9 °C 0,0 km/h (0 Bft)
28.08.2023 07:18 23,1 °C 11,9 °C 59 % 93 % 1011,7 hPa 0,0 l/m² 0,2 km/h (0 Bft) O-SO 118 ° 1 min 54 W/m² 10,8 °C 11,9 °C 1,6 km/h (1 Bft)
28.08.2023 07:19 23,1 °C 11,9 °C 59 % 93 % 1011,7 hPa 0,0 l/m² 0,6 km/h (0 Bft) O-SO 118 ° 1 min 54 W/m² 10,8 °C 11,9 °C 1,6 km/h (1 Bft)
28.08.2023 07:20 23,1 °C 11,9 °C 59 % 93 % 1011,7 hPa 0,0 l/m² 0,0 km/h (0 Bft) O-SO 118 ° 1 min 56 W/m² 10,8 °C 11,9 °C 0,0 km/h (0 Bft)
28.08.2023 07:22 23,1 °C 12,0 °C 59 % 93 % 1011,7 hPa 0,0 l/m² 0,0 km/h (0 Bft) O-SO 118 ° 2 min 58 W/m² 10,9 °C 12,0 °C 0,0 km/h (0 Bft)
28.08.2023 07:24 23,1 °C 12,1 °C 59 % 93 % 1011,7 hPa 0,0 l/m² 0,0 km/h (0 Bft) O-SO 118 ° 2 min 62 W/m² 11,0 °C 12,1 °C 0,0 km/h (0 Bft)
28.08.2023 07:25 23,1 °C 12,1 °C 59 % 93 % 1011,7 hPa 0,0 l/m² 0,0 km/h (0 Bft) O-SO 118 ° 1 min 65 W/m² 11,0 °C 12,1 °C 0,0 km/h (0 Bft)
28.08.2023 07:26 23,1 °C 12,1 °C 59 % 93 % 1011,7 hPa 0,0 l/m² 1,1 km/h (1 Bft) O-SO 118 ° 1 min 67 W/m² 11,0 °C 12,1 °C 3,2 km/h (1 Bft)
28.08.2023 07:27 23,1 °C 12,1 °C 59 % 93 % 1011,7 hPa 0,0 l/m² 2,9 km/h (1 Bft) O-SO 118 ° 1 min 69 W/m² 11,0 °C 12,1 °C 4,8 km/h (1 Bft)
28.08.2023 07:28 23,1 °C 12,2 °C 59 % 93 % 1011,8 hPa 0,0 l/m² 4,0 km/h (1 Bft) O-SO 118 ° 1 min 70 W/m² 11,1 °C 12,2 °C 4,8 km/h (1 Bft)
28.08.2023 07:29 23,1 °C 12,2 °C 59 % 93 % 1011,8 hPa 0,0 l/m² 4,1 km/h (1 Bft) O-SO 118 ° 1 min 74 W/m² 11,1 °C 12,2 °C 4,8 km/h (1 Bft)
28.08.2023 07:30 23,1 °C 12,2 °C 59 % 93 % 1011,9 hPa 0,0 l/m² 3,9 km/h (1 Bft) O-SO 118 ° 1 min 76 W/m² 11,1 °C 12,2 °C 6,4 km/h (2 Bft)
28.08.2023 07:32 23,1 °C 12,3 °C 60 % 93 % 1011,8 hPa 0,0 l/m² 3,6 km/h (1 Bft) O-SO 118 ° 2 min 84 W/m² 11,2 °C 12,3 °C 4,8 km/h (1 Bft)
28.08.2023 07:34 23,0 °C 12,4 °C 60 % 93 % 1011,8 hPa 0,0 l/m² 3,5 km/h (1 Bft) O-SO 118 ° 2 min 97 W/m² 11,3 °C 12,4 °C 4,8 km/h (1 Bft)
28.08.2023 07:35 23,0 °C 12,3 °C 60 % 93 % 1011,8 hPa 0,0 l/m² 2,8 km/h (1 Bft) O-SO 118 ° 1 min 100 W/m² 11,2 °C 12,3 °C 4,8 km/h (1 Bft)
28.08.2023 07:36 23,1 °C 12,4 °C 60 % 92 % 1011,8 hPa 0,0 l/m² 2,3 km/h (1 Bft) O-SO 118 ° 1 min 102 W/m² 11,1 °C 12,4 °C 3,2 km/h (1 Bft)
28.08.2023 07:37 23,0 °C 12,4 °C 60 % 92 % 1011,8 hPa 0,0 l/m² 0,7 km/h (0 Bft) O-SO 118 ° 1 min 105 W/m² 11,1 °C 12,4 °C 1,6 km/h (1 Bft)
28.08.2023 07:38 23,0 °C 12,4 °C 60 % 92 % 1011,8 hPa 0,0 l/m² 0,0 km/h (0 Bft) O-SO 118 ° 1 min 107 W/m² 11,1 °C 12,4 °C 0,0 km/h (0 Bft)
28.08.2023 07:39 23,1 °C 12,4 °C 60 % 92 % 1012,0 hPa 0,0 l/m² 0,0 km/h (0 Bft) O-SO 118 ° 1 min 111 W/m² 11,1 °C 12,4 °C 0,0 km/h (0 Bft)
28.08.2023 07:40 23,0 °C 12,4 °C 60 % 92 % 1012,0 hPa 0,0 l/m² 0,0 km/h (0 Bft) O-SO 118 ° 1 min 107 W/m² 11,1 °C 12,4 °C 0,0 km/h (0 Bft)
28.08.2023 07:42 23,0 °C 12,5 °C 60 % 92 % 1012,1 hPa 0,0 l/m² 0,3 km/h (0 Bft) O-SO 118 ° 2 min 107 W/m² 11,2 °C 12,5 °C 1,6 km/h (1 Bft)
28.08.2023 07:44 23,0 °C 12,6 °C 60 % 92 % 1012,1 hPa 0,0 l/m² 0,1 km/h (0 Bft) O-SO 118 ° 2 min 104 W/m² 11,3 °C 12,6 °C 1,6 km/h (1 Bft)
28.08.2023 07:45 23,0 °C 12,6 °C 60 % 92 % 1012,1 hPa 0,0 l/m² 2,3 km/h (1 Bft) O-SO 118 ° 1 min 105 W/m² 11,3 °C 12,6 °C 3,2 km/h (1 Bft)
28.08.2023 07:46 23,0 °C 12,6 °C 60 % 92 % 1012,0 hPa 0,0 l/m² 5,6 km/h (2 Bft) S-SO 153 ° 1 min 105 W/m² 11,3 °C 12,6 °C 6,4 km/h (2 Bft)
28.08.2023 07:47 23,0 °C 12,7 °C 60 % 92 % 1012,0 hPa 0,0 l/m² 5,2 km/h (1 Bft) S-SO 155 ° 1 min 104 W/m² 11,4 °C 12,7 °C 6,4 km/h (2 Bft)
28.08.2023 07:48 23,0 °C 12,7 °C 60 % 92 % 1012,0 hPa 0,0 l/m² 5,3 km/h (1 Bft) SW 220 ° 1 min 114 W/m² 11,4 °C 12,7 °C 8,0 km/h (2 Bft)
28.08.2023 07:49 23,0 °C 12,8 °C 60 % 92 % 1012,0 hPa 0,0 l/m² 5,4 km/h (2 Bft) SW 217 ° 1 min 125 W/m² 11,5 °C 12,8 °C 6,4 km/h (2 Bft)
28.08.2023 07:50 23,0 °C 12,8 °C 60 % 92 % 1012,0 hPa 0,0 l/m² 5,3 km/h (1 Bft) SW 217 ° 1 min 127 W/m² 11,5 °C 12,8 °C 6,4 km/h (2 Bft)
28.08.2023 07:52 23,0 °C 12,9 °C 60 % 92 % 1012,1 hPa 0,0 l/m² 6,4 km/h (2 Bft) S-SW 207 ° 2 min 134 W/m² 11,6 °C 12,9 °C 9,7 km/h (2 Bft)
28.08.2023 07:53 23,0 °C 12,9 °C 60 % 91 % 1012,0 hPa 0,0 l/m² 4,1 km/h (1 Bft) S-SW 207 ° 1 min 125 W/m² 11,5 °C 12,9 °C 6,4 km/h (2 Bft)
28.08.2023 07:54 23,0 °C 12,9 °C 60 % 91 % 1012,0 hPa 0,0 l/m² 2,3 km/h (1 Bft) S-SW 207 ° 1 min 113 W/m² 11,5 °C 12,9 °C 3,2 km/h (1 Bft)
28.08.2023 07:55 23,0 °C 13,0 °C 60 % 91 % 1012,0 hPa 0,0 l/m² 2,2 km/h (1 Bft) S-SW 207 ° 1 min 102 W/m² 11,6 °C 13,0 °C 3,2 km/h (1 Bft)
28.08.2023 07:56 23,0 °C 13,0 °C 60 % 91 % 1012,1 hPa 0,0 l/m² 1,3 km/h (1 Bft) S-SW 207 ° 1 min 97 W/m² 11,6 °C 13,0 °C 4,8 km/h (1 Bft)
28.08.2023 07:57 23,0 °C 13,0 °C 60 % 91 % 1012,1 hPa 0,0 l/m² 0,0 km/h (0 Bft) S-SW 207 ° 1 min 97 W/m² 11,6 °C 13,0 °C 0,0 km/h (0 Bft)
28.08.2023 07:58 23,0 °C 13,1 °C 60 % 91 % 1012,1 hPa 0,0 l/m² 1,1 km/h (1 Bft) S-SW 207 ° 1 min 100 W/m² 11,7 °C 13,1 °C 1,6 km/h (1 Bft)
28.08.2023 07:59 23,0 °C 13,1 °C 60 % 91 % 1012,2 hPa 0,0 l/m² 0,7 km/h (0 Bft) S-SW 209 ° 1 min 104 W/m² 11,7 °C 13,1 °C 4,8 km/h (1 Bft)
28.08.2023 08:00 23,0 °C 13,1 °C 60 % 91 % 1012,2 hPa 0,0 l/m² 3,8 km/h (1 Bft) S-SW 209 ° 1 min 104 W/m² 11,7 °C 13,1 °C 4,8 km/h (1 Bft)
28.08.2023 08:02 23,0 °C 13,1 °C 60 % 90 % 1012,1 hPa 0,0 l/m² 3,2 km/h (1 Bft) S-SW 209 ° 2 min 98 W/m² 11,5 °C 13,1 °C 4,8 km/h (1 Bft)
28.08.2023 08:04 23,0 °C 13,1 °C 60 % 91 % 1012,1 hPa 0,0 l/m² 4,7 km/h (1 Bft) S-SW 209 ° 2 min 104 W/m² 11,7 °C 13,1 °C 8,0 km/h (2 Bft)
28.08.2023 08:05 23,0 °C 13,1 °C 60 % 91 % 1012,1 hPa 0,0 l/m² 6,9 km/h (2 Bft) S-SW 212 ° 1 min 109 W/m² 11,7 °C 12,8 °C 8,0 km/h (2 Bft)
28.08.2023 08:06 23,0 °C 13,2 °C 60 % 91 % 1012,1 hPa 0,0 l/m² 6,4 km/h (2 Bft) S-SW 212 ° 1 min 107 W/m² 11,8 °C 13,2 °C 9,7 km/h (2 Bft)
28.08.2023 08:07 23,0 °C 13,2 °C 60 % 91 % 1012,0 hPa 0,0 l/m² 8,3 km/h (2 Bft) SW 215 ° 1 min 102 W/m² 11,8 °C 12,0 °C 11,3 km/h (2 Bft)
28.08.2023 08:08 23,0 °C 13,2 °C 60 % 91 % 1012,1 hPa 0,0 l/m² 8,1 km/h (2 Bft) SW 214 ° 1 min 107 W/m² 11,8 °C 12,2 °C 11,3 km/h (2 Bft)
28.08.2023 08:09 23,0 °C 13,2 °C 60 % 90 % 1012,1 hPa 0,0 l/m² 10,1 km/h (2 Bft) S-SW 213 ° 1 min 120 W/m² 11,6 °C 11,1 °C 12,9 km/h (3 Bft)
28.08.2023 08:10 23,0 °C 13,2 °C 60 % 90 % 1012,1 hPa 0,0 l/m² 10,7 km/h (2 Bft) S-SW 212 ° 1 min 116 W/m² 11,6 °C 10,8 °C 12,9 km/h (3 Bft)
28.08.2023 08:12 23,0 °C 13,2 °C 60 % 91 % 1012,1 hPa 0,0 l/m² 7,2 km/h (2 Bft) SW 219 ° 2 min 111 W/m² 11,8 °C 12,7 °C 9,7 km/h (2 Bft)
28.08.2023 08:14 23,0 °C 13,2 °C 60 % 91 % 1012,1 hPa 0,0 l/m² 7,0 km/h (2 Bft) SW 217 ° 2 min 132 W/m² 11,8 °C 12,8 °C 8,0 km/h (2 Bft)
28.08.2023 08:15 23,0 °C 13,2 °C 60 % 91 % 1012,1 hPa 0,0 l/m² 8,1 km/h (2 Bft) SW 216 ° 1 min 132 W/m² 11,8 °C 12,2 °C 9,7 km/h (2 Bft)
28.08.2023 08:16 23,0 °C 13,2 °C 60 % 91 % 1012,2 hPa 0,0 l/m² 7,7 km/h (2 Bft) SW 214 ° 1 min 121 W/m² 11,8 °C 12,4 °C 9,7 km/h (2 Bft)
28.08.2023 08:17 23,0 °C 13,2 °C 60 % 90 % 1012,1 hPa 0,0 l/m² 7,7 km/h (2 Bft) S-SW 211 ° 1 min 127 W/m² 11,6 °C 12,4 °C 8,0 km/h (2 Bft)
28.08.2023 08:18 23,0 °C 13,2 °C 60 % 91 % 1012,2 hPa 0,0 l/m² 9,0 km/h (2 Bft) S-SW 211 ° 1 min 105 W/m² 11,8 °C 11,6 °C 11,3 km/h (2 Bft)
28.08.2023 08:19 23,0 °C 13,2 °C 60 % 90 % 1012,1 hPa 0,0 l/m² 10,5 km/h (2 Bft) S-SW 204 ° 1 min 116 W/m² 11,6 °C 10,9 °C 14,5 km/h (3 Bft)
28.08.2023 08:20 23,0 °C 13,2 °C 60 % 90 % 1012,1 hPa 0,0 l/m² 9,9 km/h (2 Bft) S-SW 205 ° 1 min 113 W/m² 11,6 °C 11,2 °C 12,9 km/h (3 Bft)
28.08.2023 08:22 23,0 °C 13,3 °C 60 % 90 % 1012,2 hPa 0,0 l/m² 9,6 km/h (2 Bft) SW 225 ° 2 min 137 W/m² 11,7 °C 11,4 °C 12,9 km/h (3 Bft)
28.08.2023 08:24 23,0 °C 13,3 °C 60 % 90 % 1012,2 hPa 0,0 l/m² 8,4 km/h (2 Bft) S-SW 205 ° 2 min 123 W/m² 11,7 °C 12,1 °C 11,3 km/h (2 Bft)
28.08.2023 08:25 23,0 °C 13,3 °C 60 % 90 % 1012,2 hPa 0,0 l/m² 8,9 km/h (2 Bft) S-SW 201 ° 1 min 113 W/m² 11,7 °C 11,8 °C 12,9 km/h (3 Bft)
28.08.2023 08:26 23,0 °C 13,3 °C 60 % 90 % 1012,2 hPa 0,0 l/m² 10,3 km/h (2 Bft) S-SW 200 ° 1 min 113 W/m² 11,7 °C 11,1 °C 12,9 km/h (3 Bft)
28.08.2023 08:27 23,0 °C 13,3 °C 60 % 90 % 1012,2 hPa 0,0 l/m² 10,3 km/h (2 Bft) S-SW 206 ° 1 min 111 W/m² 11,7 °C 11,1 °C 12,9 km/h (3 Bft)
28.08.2023 08:28 23,0 °C 13,3 °C 60 % 90 % 1012,3 hPa 0,0 l/m² 8,4 km/h (2 Bft) S 190 ° 1 min 113 W/m² 11,7 °C 12,1 °C 11,3 km/h (2 Bft)
28.08.2023 08:29 23,0 °C 13,3 °C 60 % 90 % 1012,4 hPa 0,0 l/m² 8,7 km/h (2 Bft) S-SW 206 ° 1 min 113 W/m² 11,7 °C 11,9 °C 9,7 km/h (2 Bft)
28.08.2023 08:30 23,0 °C 13,3 °C 60 % 90 % 1012,4 hPa 0,0 l/m² 6,4 km/h (2 Bft) S-SW 202 ° 1 min 107 W/m² 11,7 °C 13,3 °C 8,0 km/h (2 Bft)
28.08.2023 08:32 23,0 °C 13,3 °C 61 % 90 % 1012,3 hPa 0,0 l/m² 7,7 km/h (2 Bft) S-SW 197 ° 2 min 116 W/m² 11,7 °C 12,5 °C 11,3 km/h (2 Bft)
28.08.2023 08:34 23,0 °C 13,3 °C 61 % 90 % 1012,4 hPa 0,0 l/m² 6,7 km/h (2 Bft) S 184 ° 2 min 134 W/m² 11,7 °C 13,1 °C 9,7 km/h (2 Bft)
28.08.2023 08:35 23,0 °C 13,3 °C 61 % 90 % 1012,4 hPa 0,0 l/m² 7,2 km/h (2 Bft) S-SW 192 ° 1 min 139 W/m² 11,7 °C 12,8 °C 9,7 km/h (2 Bft)
28.08.2023 08:36 23,0 °C 13,4 °C 61 % 89 % 1012,4 hPa 0,0 l/m² 4,6 km/h (1 Bft) S 191 ° 1 min 148 W/m² 11,6 °C 13,4 °C 6,4 km/h (2 Bft)
28.08.2023 08:37 23,0 °C 13,4 °C 61 % 90 % 1012,3 hPa 0,0 l/m² 5,6 km/h (2 Bft) S 188 ° 1 min 158 W/m² 11,8 °C 13,4 °C 8,0 km/h (2 Bft)
28.08.2023 08:38 23,0 °C 13,4 °C 61 % 90 % 1012,3 hPa 0,0 l/m² 4,8 km/h (1 Bft) S 188 ° 1 min 160 W/m² 11,8 °C 13,4 °C 6,4 km/h (2 Bft)
28.08.2023 08:39 23,0 °C 13,4 °C 61 % 90 % 1012,3 hPa 0,0 l/m² 3,0 km/h (1 Bft) S 188 ° 1 min 158 W/m² 11,8 °C 13,4 °C 4,8 km/h (1 Bft)
28.08.2023 08:40 23,0 °C 13,5 °C 61 % 90 % 1012,3 hPa 0,0 l/m² 2,6 km/h (1 Bft) S 188 ° 1 min 162 W/m² 11,9 °C 13,5 °C 3,2 km/h (1 Bft)
28.08.2023 08:42 23,0 °C 13,5 °C 61 % 90 % 1012,3 hPa 0,0 l/m² 3,0 km/h (1 Bft) S 188 ° 2 min 179 W/m² 11,9 °C 13,5 °C 4,8 km/h (1 Bft)
28.08.2023 08:44 23,0 °C 13,5 °C 61 % 90 % 1012,3 hPa 0,0 l/m² 2,8 km/h (1 Bft) S 188 ° 2 min 188 W/m² 11,9 °C 13,5 °C 6,4 km/h (2 Bft)
28.08.2023 08:45 23,0 °C 13,5 °C 61 % 89 % 1012,3 hPa 0,0 l/m² 2,8 km/h (1 Bft) S 188 ° 1 min 178 W/m² 11,7 °C 13,5 °C 4,8 km/h (1 Bft)
28.08.2023 08:46 23,0 °C 13,5 °C 61 % 89 % 1012,4 hPa 0,0 l/m² 0,3 km/h (0 Bft) S 188 ° 1 min 171 W/m² 11,7 °C 13,5 °C 1,6 km/h (1 Bft)
28.08.2023 08:47 23,0 °C 13,6 °C 61 % 90 % 1012,3 hPa 0,0 l/m² 2,5 km/h (1 Bft) S 188 ° 1 min 162 W/m² 12,0 °C 13,6 °C 4,8 km/h (1 Bft)
28.08.2023 08:48 23,0 °C 13,6 °C 61 % 89 % 1012,3 hPa 0,0 l/m² 0,5 km/h (0 Bft) S 188 ° 1 min 156 W/m² 11,8 °C 13,6 °C 1,6 km/h (1 Bft)
28.08.2023 08:49 23,0 °C 13,6 °C 61 % 90 % 1012,4 hPa 0,0 l/m² 0,5 km/h (0 Bft) S 188 ° 1 min 156 W/m² 12,0 °C 13,6 °C 1,6 km/h (1 Bft)
28.08.2023 08:50 23,0 °C 13,6 °C 61 % 89 % 1012,4 hPa 0,0 l/m² 0,7 km/h (0 Bft) S 188 ° 1 min 156 W/m² 11,8 °C 13,6 °C 1,6 km/h (1 Bft)
28.08.2023 08:52 23,0 °C 13,7 °C 61 % 89 % 1012,4 hPa 0,0 l/m² 2,8 km/h (1 Bft) S 188 ° 2 min 160 W/m² 11,9 °C 13,7 °C 6,4 km/h (2 Bft)
28.08.2023 08:54 23,0 °C 13,7 °C 61 % 89 % 1012,3 hPa 0,0 l/m² 0,7 km/h (0 Bft) S 188 ° 2 min 162 W/m² 11,9 °C 13,7 °C 3,2 km/h (1 Bft)
28.08.2023 08:55 23,0 °C 13,7 °C 61 % 89 % 1012,3 hPa 0,0 l/m² 2,5 km/h (1 Bft) S 188 ° 1 min 162 W/m² 11,9 °C 13,7 °C 4,8 km/h (1 Bft)
28.08.2023 08:56 23,0 °C 13,7 °C 61 % 89 % 1012,3 hPa 0,0 l/m² 1,7 km/h (1 Bft) S 188 ° 1 min 160 W/m² 11,9 °C 13,7 °C 3,2 km/h (1 Bft)
28.08.2023 08:57 23,0 °C 13,8 °C 61 % 89 % 1012,2 hPa 0,0 l/m² 0,0 km/h (0 Bft) S 188 ° 1 min 158 W/m² 12,0 °C 13,8 °C 0,0 km/h (0 Bft)
28.08.2023 08:58 23,0 °C 13,8 °C 61 % 88 % 1012,3 hPa 0,0 l/m² 0,6 km/h (0 Bft) S 188 ° 1 min 158 W/m² 11,8 °C 13,8 °C 1,6 km/h (1 Bft)
28.08.2023 08:59 23,0 °C 13,8 °C 61 % 88 % 1012,3 hPa 0,0 l/m² 1,3 km/h (1 Bft) S 188 ° 1 min 156 W/m² 11,8 °C 13,8 °C 3,2 km/h (1 Bft)
28.08.2023 09:01 23,0 °C 13,8 °C 61 % 88 % 1012,4 hPa 0,0 l/m² 0,6 km/h (0 Bft) S 188 ° 2 min 156 W/m² 11,8 °C 13,8 °C 3,2 km/h (1 Bft)
28.08.2023 09:03 23,0 °C 13,8 °C 61 % 89 % 1012,2 hPa 0,0 l/m² 0,0 km/h (0 Bft) S 188 ° 2 min 160 W/m² 12,0 °C 13,8 °C 0,0 km/h (0 Bft)
28.08.2023 09:04 23,0 °C 13,9 °C 61 % 89 % 1012,2 hPa 0,0 l/m² 0,0 km/h (0 Bft) S 188 ° 1 min 160 W/m² 12,1 °C 13,9 °C 0,0 km/h (0 Bft)
28.08.2023 09:05 23,0 °C 13,9 °C 61 % 89 % 1012,2 hPa 0,0 l/m² 0,0 km/h (0 Bft) S 188 ° 1 min 162 W/m² 12,1 °C 13,9 °C 0,0 km/h (0 Bft)
28.08.2023 09:07 23,0 °C 14,0 °C 61 % 89 % 1012,2 hPa 0,0 l/m² 0,0 km/h (0 Bft) S 188 ° 2 min 163 W/m² 12,2 °C 14,0 °C 0,0 km/h (0 Bft)
28.08.2023 09:08 23,0 °C 14,0 °C 61 % 88 % 1012,2 hPa 0,0 l/m² 2,3 km/h (1 Bft) S 188 ° 1 min 163 W/m² 12,0 °C 14,0 °C 4,8 km/h (1 Bft)
28.08.2023 09:09 23,0 °C 14,0 °C 61 % 88 % 1012,3 hPa 0,0 l/m² 1,1 km/h (1 Bft) S 188 ° 1 min 165 W/m² 12,0 °C 14,0 °C 3,2 km/h (1 Bft)
28.08.2023 09:11 23,0 °C 14,1 °C 61 % 88 % 1012,3 hPa 0,0 l/m² 5,4 km/h (2 Bft) W-SW 240 ° 2 min 169 W/m² 12,1 °C 14,1 °C 9,7 km/h (2 Bft)
28.08.2023 09:13 23,0 °C 14,1 °C 61 % 88 % 1012,2 hPa 0,0 l/m² 6,6 km/h (2 Bft) S-SW 211 ° 2 min 171 W/m² 12,1 °C 14,0 °C 11,3 km/h (2 Bft)
28.08.2023 09:14 23,0 °C 14,1 °C 61 % 88 % 1012,3 hPa 0,0 l/m² 6,7 km/h (2 Bft) SW 219 ° 1 min 172 W/m² 12,1 °C 13,9 °C 8,0 km/h (2 Bft)
28.08.2023 09:15 22,9 °C 14,1 °C 61 % 88 % 1012,3 hPa 0,0 l/m² 8,2 km/h (2 Bft) SW 223 ° 1 min 174 W/m² 12,1 °C 13,0 °C 9,7 km/h (2 Bft)
28.08.2023 09:16 22,9 °C 14,1 °C 61 % 88 % 1012,3 hPa 0,0 l/m² 7,3 km/h (2 Bft) SW 223 ° 1 min 176 W/m² 12,1 °C 13,6 °C 8,0 km/h (2 Bft)
28.08.2023 09:17 22,9 °C 14,1 °C 61 % 88 % 1012,2 hPa 0,0 l/m² 6,9 km/h (2 Bft) SW 221 ° 1 min 179 W/m² 12,1 °C 13,8 °C 8,0 km/h (2 Bft)
28.08.2023 09:18 23,0 °C 14,1 °C 61 % 88 % 1012,2 hPa 0,0 l/m² 7,2 km/h (2 Bft) SW 221 ° 1 min 181 W/m² 12,1 °C 13,6 °C 9,7 km/h (2 Bft)
28.08.2023 09:19 23,0 °C 14,2 °C 61 % 89 % 1012,2 hPa 0,0 l/m² 6,9 km/h (2 Bft) SW 219 ° 1 min 183 W/m² 12,4 °C 13,9 °C 8,0 km/h (2 Bft)
28.08.2023 09:21 23,0 °C 14,2 °C 61 % 89 % 1012,1 hPa 0,0 l/m² 6,7 km/h (2 Bft) SW 221 ° 2 min 183 W/m² 12,4 °C 14,0 °C 8,0 km/h (2 Bft)
28.08.2023 09:23 23,0 °C 14,2 °C 61 % 88 % 1012,1 hPa 0,0 l/m² 7,0 km/h (2 Bft) SW 221 ° 2 min 181 W/m² 12,2 °C 13,8 °C 8,0 km/h (2 Bft)
28.08.2023 09:24 23,0 °C 14,2 °C 61 % 88 % 1012,1 hPa 0,0 l/m² 6,7 km/h (2 Bft) SW 221 ° 1 min 181 W/m² 12,2 °C 14,0 °C 8,0 km/h (2 Bft)
28.08.2023 09:25 23,0 °C 14,3 °C 61 % 88 % 1012,1 hPa 0,0 l/m² 6,7 km/h (2 Bft) SW 221 ° 1 min 183 W/m² 12,3 °C 14,1 °C 8,0 km/h (2 Bft)
28.08.2023 09:26 23,0 °C 14,3 °C 61 % 89 % 1012,0 hPa 0,0 l/m² 4,9 km/h (1 Bft) SW 221 ° 1 min 186 W/m² 12,5 °C 14,3 °C 8,0 km/h (2 Bft)
28.08.2023 09:27 23,0 °C 14,3 °C 61 % 89 % 1012,1 hPa 0,0 l/m² 7,5 km/h (2 Bft) SW 229 ° 1 min 190 W/m² 12,5 °C 13,7 °C 9,7 km/h (2 Bft)
28.08.2023 09:28 23,0 °C 14,3 °C 61 % 88 % 1012,1 hPa 0,0 l/m² 5,8 km/h (2 Bft) SW 229 ° 1 min 197 W/m² 12,3 °C 14,3 °C 8,0 km/h (2 Bft)
28.08.2023 09:29 23,0 °C 14,3 °C 61 % 88 % 1012,1 hPa 0,0 l/m² 5,8 km/h (2 Bft) SW 225 ° 1 min 204 W/m² 12,3 °C 14,3 °C 8,0 km/h (2 Bft)
28.08.2023 09:31 23,0 °C 14,4 °C 61 % 88 % 1012,1 hPa 0,0 l/m² 6,0 km/h (2 Bft) SW 219 ° 2 min 216 W/m² 12,4 °C 14,4 °C 8,0 km/h (2 Bft)
28.08.2023 09:33 23,0 °C 14,4 °C 61 % 88 % 1012,2 hPa 0,0 l/m² 4,4 km/h (1 Bft) SW 219 ° 2 min 229 W/m² 12,4 °C 14,4 °C 8,0 km/h (2 Bft)
28.08.2023 09:34 22,9 °C 14,4 °C 61 % 88 % 1012,2 hPa 0,0 l/m² 4,8 km/h (1 Bft) SW 219 ° 1 min 237 W/m² 12,4 °C 14,4 °C 6,4 km/h (2 Bft)
28.08.2023 09:35 22,9 °C 14,5 °C 61 % 88 % 1012,2 hPa 0,0 l/m² 5,2 km/h (1 Bft) SW 230 ° 1 min 237 W/m² 12,5 °C 14,5 °C 6,4 km/h (2 Bft)
28.08.2023 09:36 23,0 °C 14,5 °C 61 % 88 % 1012,3 hPa 0,0 l/m² 4,4 km/h (1 Bft) SW 230 ° 1 min 237 W/m² 12,5 °C 14,5 °C 8,0 km/h (2 Bft)
28.08.2023 09:37 23,0 °C 14,5 °C 61 % 87 % 1012,3 hPa 0,0 l/m² 5,7 km/h (2 Bft) SW 225 ° 1 min 236 W/m² 12,4 °C 14,5 °C 6,4 km/h (2 Bft)
28.08.2023 09:38 22,9 °C 14,6 °C 61 % 87 % 1012,3 hPa 0,0 l/m² 6,4 km/h (2 Bft) SW 224 ° 1 min 234 W/m² 12,5 °C 14,6 °C 9,7 km/h (2 Bft)
28.08.2023 09:39 22,9 °C 14,6 °C 61 % 87 % 1012,3 hPa 0,0 l/m² 5,6 km/h (2 Bft) SW 215 ° 1 min 234 W/m² 12,5 °C 14,6 °C 8,0 km/h (2 Bft)
28.08.2023 09:41 22,9 °C 14,6 °C 61 % 87 % 1012,2 hPa 0,0 l/m² 5,5 km/h (2 Bft) S-SW 202 ° 2 min 223 W/m² 12,5 °C 14,6 °C 8,0 km/h (2 Bft)
28.08.2023 09:43 23,0 °C 14,6 °C 61 % 87 % 1012,3 hPa 0,0 l/m² 4,6 km/h (1 Bft) S-SW 208 ° 2 min 218 W/m² 12,5 °C 14,6 °C 6,4 km/h (2 Bft)
28.08.2023 09:44 22,9 °C 14,6 °C 61 % 87 % 1012,3 hPa 0,0 l/m² 6,4 km/h (2 Bft) S-SW 200 ° 1 min 216 W/m² 12,5 °C 14,6 °C 8,0 km/h (2 Bft)
28.08.2023 09:45 22,9 °C 14,7 °C 61 % 87 % 1012,3 hPa 0,0 l/m² 4,8 km/h (1 Bft) S-SW 201 ° 1 min 216 W/m² 12,6 °C 14,7 °C 8,0 km/h (2 Bft)
28.08.2023 09:46 23,0 °C 14,7 °C 61 % 87 % 1012,3 hPa 0,0 l/m² 8,2 km/h (2 Bft) S-SW 196 ° 1 min 213 W/m² 12,6 °C 13,7 °C 12,9 km/h (3 Bft)
28.08.2023 09:47 23,0 °C 14,7 °C 61 % 87 % 1012,3 hPa 0,0 l/m² 8,5 km/h (2 Bft) S 186 ° 1 min 209 W/m² 12,6 °C 13,5 °C 11,3 km/h (2 Bft)
28.08.2023 09:48 23,0 °C 14,7 °C 61 % 86 % 1012,3 hPa 0,0 l/m² 6,4 km/h (2 Bft) S-SW 197 ° 1 min 207 W/m² 12,4 °C 14,7 °C 9,7 km/h (2 Bft)
28.08.2023 09:49 22,9 °C 14,7 °C 61 % 86 % 1012,2 hPa 0,0 l/m² 5,9 km/h (2 Bft) S-SW 199 ° 1 min 204 W/m² 12,4 °C 14,7 °C 8,0 km/h (2 Bft)
28.08.2023 09:51 23,0 °C 14,7 °C 61 % 86 % 1012,2 hPa 0,0 l/m² 8,2 km/h (2 Bft) S-SW 211 ° 2 min 202 W/m² 12,4 °C 13,7 °C 11,3 km/h (2 Bft)
28.08.2023 09:53 23,0 °C 14,7 °C 61 % 86 % 1012,2 hPa 0,0 l/m² 7,0 km/h (2 Bft) SW 219 ° 2 min 199 W/m² 12,4 °C 14,4 °C 9,7 km/h (2 Bft)
28.08.2023 09:54 23,0 °C 14,7 °C 61 % 86 % 1012,2 hPa 0,0 l/m² 6,0 km/h (2 Bft) SW 218 ° 1 min 197 W/m² 12,4 °C 14,7 °C 8,0 km/h (2 Bft)
28.08.2023 09:55 22,9 °C 14,8 °C 61 % 86 % 1012,1 hPa 0,0 l/m² 8,2 km/h (2 Bft) S-SW 207 ° 1 min 195 W/m² 12,5 °C 13,8 °C 9,7 km/h (2 Bft)
28.08.2023 09:56 23,0 °C 14,7 °C 61 % 87 % 1012,2 hPa 0,0 l/m² 5,6 km/h (2 Bft) S-SW 212 ° 1 min 193 W/m² 12,6 °C 14,7 °C 8,0 km/h (2 Bft)
28.08.2023 09:57 23,0 °C 14,8 °C 61 % 87 % 1012,1 hPa 0,0 l/m² 4,8 km/h (1 Bft) S-SW 212 ° 1 min 192 W/m² 12,7 °C 14,8 °C 6,4 km/h (2 Bft)
28.08.2023 09:58 23,0 °C 14,8 °C 61 % 86 % 1012,1 hPa 0,0 l/m² 6,9 km/h (2 Bft) S-SW 211 ° 1 min 192 W/m² 12,5 °C 14,5 °C 8,0 km/h (2 Bft)
28.08.2023 09:59 23,0 °C 14,8 °C 61 % 86 % 1012,1 hPa 0,0 l/m² 7,0 km/h (2 Bft) SW 215 ° 1 min 192 W/m² 12,5 °C 14,5 °C 8,0 km/h (2 Bft)
28.08.2023 10:01 23,0 °C 14,8 °C 61 % 86 % 1012,2 hPa 0,0 l/m² 6,7 km/h (2 Bft) S-SW 211 ° 2 min 193 W/m² 12,5 °C 14,6 °C 9,7 km/h (2 Bft)
28.08.2023 10:03 22,9 °C 14,8 °C 61 % 86 % 1012,1 hPa 0,0 l/m² 6,4 km/h (2 Bft) SW 216 ° 2 min 197 W/m² 12,5 °C 14,8 °C 8,0 km/h (2 Bft)
28.08.2023 10:04 22,9 °C 14,8 °C 61 % 86 % 1012,2 hPa 0,0 l/m² 6,2 km/h (2 Bft) SW 217 ° 1 min 199 W/m² 12,5 °C 14,8 °C 8,0 km/h (2 Bft)
28.08.2023 10:05 23,0 °C 14,8 °C 61 % 86 % 1012,1 hPa 0,0 l/m² 7,6 km/h (2 Bft) S-SW 211 ° 1 min 199 W/m² 12,5 °C 14,1 °C 8,0 km/h (2 Bft)
28.08.2023 10:07 23,0 °C 14,8 °C 61 % 86 % 1012,1 hPa 0,0 l/m² 7,4 km/h (2 Bft) S-SW 210 ° 2 min 199 W/m² 12,5 °C 14,2 °C 9,7 km/h (2 Bft)
28.08.2023 10:08 23,0 °C 14,8 °C 61 % 86 % 1012,1 hPa 0,0 l/m² 5,9 km/h (2 Bft) S-SW 210 ° 1 min 199 W/m² 12,5 °C 14,8 °C 6,4 km/h (2 Bft)
28.08.2023 10:09 23,0 °C 14,9 °C 61 % 86 % 1012,1 hPa 0,0 l/m² 6,4 km/h (2 Bft) S-SW 206 ° 1 min 199 W/m² 12,6 °C 14,9 °C 8,0 km/h (2 Bft)
28.08.2023 10:11 22,9 °C 14,9 °C 61 % 86 % 1012,0 hPa 0,0 l/m² 7,3 km/h (2 Bft) S-SW 209 ° 2 min 197 W/m² 12,6 °C 14,4 °C 8,0 km/h (2 Bft)
28.08.2023 10:13 22,9 °C 14,9 °C 61 % 86 % 1012,0 hPa 0,0 l/m² 6,1 km/h (2 Bft) SW 235 ° 2 min 193 W/m² 12,6 °C 14,9 °C 8,0 km/h (2 Bft)
28.08.2023 10:14 22,9 °C 14,9 °C 61 % 86 % 1011,9 hPa 0,0 l/m² 4,2 km/h (1 Bft) SW 234 ° 1 min 190 W/m² 12,6 °C 14,9 °C 6,4 km/h (2 Bft)
28.08.2023 10:15 23,0 °C 15,0 °C 61 % 87 % 1012,0 hPa 0,0 l/m² 3,4 km/h (1 Bft) SW 234 ° 1 min 185 W/m² 12,9 °C 15,0 °C 4,8 km/h (1 Bft)
28.08.2023 10:16 23,0 °C 14,9 °C 61 % 86 % 1012,0 hPa 0,0 l/m² 5,0 km/h (1 Bft) SW 232 ° 1 min 183 W/m² 12,6 °C 14,9 °C 8,0 km/h (2 Bft)
28.08.2023 10:17 23,0 °C 14,9 °C 61 % 86 % 1012,0 hPa 0,0 l/m² 5,2 km/h (1 Bft) SW 231 ° 1 min 185 W/m² 12,6 °C 14,9 °C 6,4 km/h (2 Bft)
28.08.2023 10:18 22,9 °C 14,9 °C 61 % 86 % 1012,0 hPa 0,0 l/m² 4,8 km/h (1 Bft) SW 232 ° 1 min 185 W/m² 12,6 °C 14,9 °C 6,4 km/h (2 Bft)
28.08.2023 10:19 22,9 °C 15,0 °C 61 % 86 % 1012,0 hPa 0,0 l/m² 5,4 km/h (2 Bft) SW 229 ° 1 min 186 W/m² 12,7 °C 15,0 °C 6,4 km/h (2 Bft)
28.08.2023 10:21 22,9 °C 15,1 °C 61 % 86 % 1011,9 hPa 0,0 l/m² 5,2 km/h (1 Bft) SW 229 ° 2 min 193 W/m² 12,8 °C 15,1 °C 6,4 km/h (2 Bft)
28.08.2023 10:23 22,9 °C 15,0 °C 61 % 85 % 1011,9 hPa 0,0 l/m² 4,8 km/h (1 Bft) SW 232 ° 2 min 195 W/m² 12,5 °C 15,0 °C 6,4 km/h (2 Bft)
28.08.2023 10:24 22,9 °C 15,0 °C 61 % 85 % 1012,0 hPa 0,0 l/m² 2,3 km/h (1 Bft) SW 232 ° 1 min 197 W/m² 12,5 °C 15,0 °C 4,8 km/h (1 Bft)
28.08.2023 10:25 22,9 °C 14,9 °C 61 % 85 % 1012,0 hPa 0,0 l/m² 4,7 km/h (1 Bft) SW 232 ° 1 min 197 W/m² 12,4 °C 14,9 °C 6,4 km/h (2 Bft)
28.08.2023 10:26 23,0 °C 14,9 °C 61 % 85 % 1012,0 hPa 0,0 l/m² 3,7 km/h (1 Bft) SW 232 ° 1 min 195 W/m² 12,4 °C 14,9 °C 4,8 km/h (1 Bft)
28.08.2023 10:27 23,0 °C 14,9 °C 61 % 85 % 1012,0 hPa 0,0 l/m² 3,1 km/h (1 Bft) SW 232 ° 1 min 195 W/m² 12,4 °C 14,9 °C 6,4 km/h (2 Bft)
28.08.2023 10:28 22,9 °C 15,0 °C 61 % 85 % 1012,0 hPa 0,0 l/m² 1,8 km/h (1 Bft) SW 232 ° 1 min 193 W/m² 12,5 °C 15,0 °C 4,8 km/h (1 Bft)
28.08.2023 10:29 22,9 °C 14,9 °C 61 % 85 % 1012,0 hPa 0,0 l/m² 3,8 km/h (1 Bft) SW 225 ° 1 min 193 W/m² 12,4 °C 14,9 °C 8,0 km/h (2 Bft)
28.08.2023 10:31 23,0 °C 14,9 °C 61 % 85 % 1012,0 hPa 0,0 l/m² 3,7 km/h (1 Bft) SW 221 ° 2 min 197 W/m² 12,4 °C 14,9 °C 6,4 km/h (2 Bft)
28.08.2023 10:33 22,9 °C 14,9 °C 61 % 86 % 1011,9 hPa 0,0 l/m² 3,3 km/h (1 Bft) SW 219 ° 2 min 200 W/m² 12,6 °C 14,9 °C 8,0 km/h (2 Bft)
28.08.2023 10:34 22,9 °C 14,9 °C 61 % 86 % 1012,0 hPa 0,0 l/m² 6,2 km/h (2 Bft) SW 216 ° 1 min 202 W/m² 12,6 °C 14,9 °C 8,0 km/h (2 Bft)
28.08.2023 10:35 22,9 °C 15,0 °C 61 % 86 % 1012,0 hPa 0,0 l/m² 3,9 km/h (1 Bft) SW 216 ° 1 min 202 W/m² 12,7 °C 15,0 °C 6,4 km/h (2 Bft)
28.08.2023 10:36 22,9 °C 15,0 °C 61 % 86 % 1012,0 hPa 0,0 l/m² 2,6 km/h (1 Bft) SW 216 ° 1 min 206 W/m² 12,7 °C 15,0 °C 4,8 km/h (1 Bft)
28.08.2023 10:37 22,9 °C 15,0 °C 61 % 86 % 1012,0 hPa 0,0 l/m² 5,4 km/h (2 Bft) SW 215 ° 1 min 207 W/m² 12,7 °C 15,0 °C 6,4 km/h (2 Bft)
28.08.2023 10:38 23,0 °C 15,1 °C 61 % 86 % 1012,1 hPa 0,0 l/m² 6,4 km/h (2 Bft) SW 215 ° 1 min 213 W/m² 12,8 °C 15,1 °C 8,0 km/h (2 Bft)
28.08.2023 10:39 23,0 °C 15,1 °C 61 % 86 % 1012,1 hPa 0,0 l/m² 8,1 km/h (2 Bft) S-SW 210 ° 1 min 216 W/m² 12,8 °C 14,2 °C 9,7 km/h (2 Bft)
28.08.2023 10:41 23,0 °C 15,1 °C 61 % 86 % 1012,1 hPa 0,0 l/m² 6,5 km/h (2 Bft) S-SW 210 ° 2 min 221 W/m² 12,8 °C 15,1 °C 8,0 km/h (2 Bft)
28.08.2023 10:43 22,9 °C 15,1 °C 61 % 86 % 1012,1 hPa 0,0 l/m² 4,9 km/h (1 Bft) S-SW 210 ° 2 min 225 W/m² 12,8 °C 15,1 °C 8,0 km/h (2 Bft)
28.08.2023 10:44 23,0 °C 15,1 °C 61 % 86 % 1012,1 hPa 0,0 l/m² 3,3 km/h (1 Bft) S-SW 210 ° 1 min 227 W/m² 12,8 °C 15,1 °C 4,8 km/h (1 Bft)
28.08.2023 10:45 23,0 °C 15,1 °C 61 % 86 % 1012,1 hPa 0,0 l/m² 3,8 km/h (1 Bft) S-SW 210 ° 1 min 227 W/m² 12,8 °C 15,1 °C 4,8 km/h (1 Bft)
28.08.2023 10:46 22,9 °C 15,2 °C 61 % 86 % 1012,0 hPa 0,0 l/m² 4,2 km/h (1 Bft) S-SW 210 ° 1 min 225 W/m² 12,9 °C 15,2 °C 6,4 km/h (2 Bft)
28.08.2023 10:47 22,9 °C 15,2 °C 61 % 86 % 1012,0 hPa 0,0 l/m² 6,3 km/h (2 Bft) S-SW 205 ° 1 min 225 W/m² 12,9 °C 15,2 °C 8,0 km/h (2 Bft)
28.08.2023 10:48 23,0 °C 15,2 °C 61 % 86 % 1012,1 hPa 0,0 l/m² 6,0 km/h (2 Bft) S 190 ° 1 min 225 W/m² 12,9 °C 15,2 °C 8,0 km/h (2 Bft)
28.08.2023 10:49 22,9 °C 15,2 °C 61 % 86 % 1012,1 hPa 0,0 l/m² 5,3 km/h (1 Bft) S 190 ° 1 min 227 W/m² 12,9 °C 15,2 °C 6,4 km/h (2 Bft)
28.08.2023 10:51 22,9 °C 15,3 °C 61 % 86 % 1012,1 hPa 0,0 l/m² 5,4 km/h (2 Bft) S 190 ° 2 min 241 W/m² 13,0 °C 15,3 °C 8,0 km/h (2 Bft)
28.08.2023 10:53 23,0 °C 15,3 °C 61 % 86 % 1012,1 hPa 0,0 l/m² 4,2 km/h (1 Bft) S-SW 193 ° 2 min 250 W/m² 13,0 °C 15,3 °C 6,4 km/h (2 Bft)
28.08.2023 10:54 22,9 °C 15,3 °C 61 % 86 % 1012,0 hPa 0,0 l/m² 6,0 km/h (2 Bft) S-SW 194 ° 1 min 248 W/m² 13,0 °C 15,3 °C 8,0 km/h (2 Bft)
28.08.2023 10:55 22,9 °C 15,3 °C 61 % 86 % 1012,1 hPa 0,0 l/m² 4,8 km/h (1 Bft) S-SW 194 ° 1 min 244 W/m² 13,0 °C 15,3 °C 6,4 km/h (2 Bft)
28.08.2023 10:57 23,0 °C 15,3 °C 61 % 86 % 1012,2 hPa 0,0 l/m² 5,3 km/h (1 Bft) S-SW 196 ° 2 min 246 W/m² 13,0 °C 15,3 °C 8,0 km/h (2 Bft)
28.08.2023 10:58 23,0 °C 15,3 °C 61 % 86 % 1012,2 hPa 0,0 l/m² 5,6 km/h (2 Bft) S-SW 197 ° 1 min 246 W/m² 13,0 °C 15,3 °C 6,4 km/h (2 Bft)
28.08.2023 10:59 23,0 °C 15,3 °C 61 % 86 % 1012,1 hPa 0,0 l/m² 5,3 km/h (1 Bft) S-SW 197 ° 1 min 246 W/m² 13,0 °C 15,3 °C 6,4 km/h (2 Bft)
28.08.2023 11:01 22,9 °C 15,3 °C 61 % 85 % 1012,2 hPa 0,0 l/m² 3,8 km/h (1 Bft) S-SW 197 ° 2 min 250 W/m² 12,8 °C 15,3 °C 6,4 km/h (2 Bft)
28.08.2023 11:03 22,9 °C 15,4 °C 61 % 85 % 1012,2 hPa 0,0 l/m² 1,5 km/h (1 Bft) S-SW 197 ° 2 min 255 W/m² 12,9 °C 15,4 °C 4,8 km/h (1 Bft)
28.08.2023 11:04 22,9 °C 15,5 °C 61 % 85 % 1012,2 hPa 0,0 l/m² 2,8 km/h (1 Bft) S-SW 197 ° 1 min 251 W/m² 13,0 °C 15,5 °C 4,8 km/h (1 Bft)
28.08.2023 11:05 23,0 °C 15,6 °C 61 % 86 % 1012,2 hPa 0,0 l/m² 1,8 km/h (1 Bft) S-SW 197 ° 1 min 248 W/m² 13,3 °C 15,6 °C 4,8 km/h (1 Bft)
28.08.2023 11:06 22,9 °C 15,7 °C 61 % 85 % 1012,3 hPa 0,0 l/m² 3,2 km/h (1 Bft) S-SW 197 ° 1 min 246 W/m² 13,2 °C 15,7 °C 4,8 km/h (1 Bft)
28.08.2023 11:07 22,9 °C 15,8 °C 61 % 85 % 1012,2 hPa 0,0 l/m² 6,2 km/h (2 Bft) SW 225 ° 1 min 243 W/m² 13,3 °C 15,8 °C 8,0 km/h (2 Bft)
28.08.2023 11:08 23,0 °C 15,7 °C 61 % 84 % 1012,2 hPa 0,0 l/m² 5,8 km/h (2 Bft) SW 225 ° 1 min 236 W/m² 13,0 °C 15,7 °C 8,0 km/h (2 Bft)
28.08.2023 11:09 22,9 °C 15,7 °C 61 % 84 % 1012,2 hPa 0,0 l/m² 3,6 km/h (1 Bft) SW 226 ° 1 min 232 W/m² 13,0 °C 15,7 °C 4,8 km/h (1 Bft)
28.08.2023 11:11 22,9 °C 15,6 °C 61 % 85 % 1012,3 hPa 0,0 l/m² 2,8 km/h (1 Bft) SW 226 ° 2 min 229 W/m² 13,1 °C 15,6 °C 4,8 km/h (1 Bft)
28.08.2023 11:13 23,0 °C 15,6 °C 61 % 84 % 1012,3 hPa 0,0 l/m² 2,1 km/h (1 Bft) SW 226 ° 2 min 221 W/m² 12,9 °C 15,6 °C 4,8 km/h (1 Bft)
28.08.2023 11:14 22,9 °C 15,6 °C 61 % 85 % 1012,4 hPa 0,0 l/m² 2,9 km/h (1 Bft) SW 225 ° 1 min 214 W/m² 13,1 °C 15,6 °C 6,4 km/h (2 Bft)
28.08.2023 11:15 22,9 °C 15,6 °C 61 % 85 % 1012,4 hPa 0,0 l/m² 3,5 km/h (1 Bft) SW 225 ° 1 min 211 W/m² 13,1 °C 15,6 °C 6,4 km/h (2 Bft)
28.08.2023 11:16 22,9 °C 15,6 °C 61 % 85 % 1012,4 hPa 0,0 l/m² 3,7 km/h (1 Bft) SW 225 ° 1 min 209 W/m² 13,1 °C 15,6 °C 4,8 km/h (1 Bft)
28.08.2023 11:17 22,9 °C 15,6 °C 61 % 86 % 1012,4 hPa 0,0 l/m² 3,6 km/h (1 Bft) SW 225 ° 1 min 207 W/m² 13,3 °C 15,6 °C 4,8 km/h (1 Bft)
28.08.2023 11:18 23,0 °C 15,6 °C 61 % 85 % 1012,4 hPa 0,0 l/m² 2,2 km/h (1 Bft) SW 225 ° 1 min 206 W/m² 13,1 °C 15,6 °C 3,2 km/h (1 Bft)
28.08.2023 11:19 23,0 °C 15,6 °C 61 % 84 % 1012,4 hPa 0,0 l/m² 1,5 km/h (1 Bft) SW 225 ° 1 min 204 W/m² 12,9 °C 15,6 °C 3,2 km/h (1 Bft)
28.08.2023 11:21 22,9 °C 15,7 °C 61 % 85 % 1012,3 hPa 0,0 l/m² 5,2 km/h (1 Bft) SW 225 ° 2 min 204 W/m² 13,2 °C 15,7 °C 6,4 km/h (2 Bft)
28.08.2023 11:23 23,0 °C 15,7 °C 61 % 85 % 1012,2 hPa 0,0 l/m² 5,3 km/h (1 Bft) SW 229 ° 2 min 211 W/m² 13,2 °C 15,7 °C 8,0 km/h (2 Bft)
28.08.2023 11:24 23,0 °C 15,7 °C 61 % 85 % 1012,2 hPa 0,0 l/m² 4,5 km/h (1 Bft) SW 229 ° 1 min 213 W/m² 13,2 °C 15,7 °C 4,8 km/h (1 Bft)
28.08.2023 11:25 22,9 °C 15,7 °C 61 % 85 % 1012,2 hPa 0,0 l/m² 2,4 km/h (1 Bft) SW 229 ° 1 min 218 W/m² 13,2 °C 15,7 °C 3,2 km/h (1 Bft)
28.08.2023 11:26 23,0 °C 15,7 °C 61 % 85 % 1012,2 hPa 0,0 l/m² 3,2 km/h (1 Bft) SW 229 ° 1 min 230 W/m² 13,2 °C 15,7 °C 4,8 km/h (1 Bft)
28.08.2023 11:27 23,0 °C 15,7 °C 61 % 85 % 1012,2 hPa 0,0 l/m² 3,5 km/h (1 Bft) SW 229 ° 1 min 239 W/m² 13,2 °C 15,7 °C 4,8 km/h (1 Bft)
28.08.2023 11:28 23,0 °C 15,7 °C 61 % 85 % 1012,3 hPa 0,0 l/m² 3,5 km/h (1 Bft) SW 229 ° 1 min 248 W/m² 13,2 °C 15,7 °C 4,8 km/h (1 Bft)
28.08.2023 11:29 22,9 °C 15,6 °C 61 % 84 % 1012,3 hPa 0,0 l/m² 3,0 km/h (1 Bft) SW 229 ° 1 min 258 W/m² 12,9 °C 15,6 °C 4,8 km/h (1 Bft)
28.08.2023 11:31 23,0 °C 15,7 °C 61 % 86 % 1012,4 hPa 0,0 l/m² 4,2 km/h (1 Bft) SW 229 ° 2 min 309 W/m² 13,4 °C 15,7 °C 8,0 km/h (2 Bft)
28.08.2023 11:33 23,0 °C 15,8 °C 61 % 84 % 1012,3 hPa 0,0 l/m² 4,6 km/h (1 Bft) SW 215 ° 2 min 362 W/m² 13,1 °C 15,8 °C 8,0 km/h (2 Bft)
28.08.2023 11:34 23,0 °C 15,9 °C 61 % 85 % 1012,3 hPa 0,0 l/m² 6,7 km/h (2 Bft) SW 214 ° 1 min 364 W/m² 13,4 °C 15,7 °C 8,0 km/h (2 Bft)
28.08.2023 11:35 23,0 °C 15,9 °C 61 % 82 % 1012,3 hPa 0,0 l/m² 5,6 km/h (2 Bft) SW 214 ° 1 min 348 W/m² 12,8 °C 15,9 °C 8,0 km/h (2 Bft)
28.08.2023 11:36 23,0 °C 15,8 °C 61 % 83 % 1012,2 hPa 0,0 l/m² 4,8 km/h (1 Bft) SW 214 ° 1 min 339 W/m² 12,9 °C 15,8 °C 6,4 km/h (2 Bft)
28.08.2023 11:37 22,9 °C 15,9 °C 61 % 82 % 1012,2 hPa 0,0 l/m² 4,5 km/h (1 Bft) SW 214 ° 1 min 350 W/m² 12,8 °C 15,9 °C 6,4 km/h (2 Bft)
28.08.2023 11:38 22,9 °C 15,9 °C 61 % 83 % 1012,2 hPa 0,0 l/m² 3,9 km/h (1 Bft) SW 214 ° 1 min 357 W/m² 13,0 °C 15,9 °C 6,4 km/h (2 Bft)
28.08.2023 11:39 22,9 °C 15,9 °C 61 % 83 % 1012,2 hPa 0,0 l/m² 4,4 km/h (1 Bft) SW 214 ° 1 min 387 W/m² 13,0 °C 15,9 °C 8,0 km/h (2 Bft)
28.08.2023 11:41 22,9 °C 16,1 °C 61 % 83 % 1012,2 hPa 0,0 l/m² 4,5 km/h (1 Bft) SW 214 ° 2 min 524 W/m² 13,2 °C 16,1 °C 6,4 km/h (2 Bft)
28.08.2023 11:43 22,9 °C 16,3 °C 61 % 82 % 1012,2 hPa 0,0 l/m² 6,0 km/h (2 Bft) SW 217 ° 2 min 508 W/m² 13,2 °C 16,3 °C 8,0 km/h (2 Bft)
28.08.2023 11:44 23,0 °C 16,2 °C 61 % 81 % 1012,1 hPa 0,0 l/m² 5,6 km/h (2 Bft) SW 217 ° 1 min 524 W/m² 12,9 °C 16,2 °C 8,0 km/h (2 Bft)
28.08.2023 11:45 23,0 °C 16,2 °C 61 % 80 % 1012,1 hPa 0,0 l/m² 7,2 km/h (2 Bft) SW 216 ° 1 min 506 W/m² 12,7 °C 15,8 °C 9,7 km/h (2 Bft)
28.08.2023 11:46 23,0 °C 16,2 °C 61 % 81 % 1012,1 hPa 0,0 l/m² 6,1 km/h (2 Bft) SW 215 ° 1 min 504 W/m² 12,9 °C 16,2 °C 8,0 km/h (2 Bft)
28.08.2023 11:47 23,0 °C 16,2 °C 61 % 81 % 1012,1 hPa 0,0 l/m² 6,3 km/h (2 Bft) SW 215 ° 1 min 483 W/m² 12,9 °C 16,2 °C 8,0 km/h (2 Bft)
28.08.2023 11:48 23,0 °C 16,1 °C 61 % 80 % 1012,2 hPa 0,0 l/m² 5,2 km/h (1 Bft) S-SW 213 ° 1 min 482 W/m² 12,6 °C 16,1 °C 8,0 km/h (2 Bft)
28.08.2023 11:49 23,0 °C 16,1 °C 61 % 82 % 1012,2 hPa 0,0 l/m² 5,5 km/h (2 Bft) S-SW 210 ° 1 min 462 W/m² 13,0 °C 16,1 °C 6,4 km/h (2 Bft)
28.08.2023 11:51 23,0 °C 16,1 °C 61 % 81 % 1012,2 hPa 0,0 l/m² 4,8 km/h (1 Bft) S-SW 210 ° 2 min 397 W/m² 12,8 °C 16,1 °C 6,4 km/h (2 Bft)
28.08.2023 11:53 23,0 °C 16,1 °C 61 % 81 % 1012,2 hPa 0,0 l/m² 3,2 km/h (1 Bft) S-SW 210 ° 2 min 350 W/m² 12,8 °C 16,1 °C 6,4 km/h (2 Bft)
28.08.2023 11:54 23,0 °C 16,2 °C 61 % 82 % 1012,3 hPa 0,0 l/m² 1,9 km/h (1 Bft) S-SW 211 ° 1 min 338 W/m² 13,1 °C 16,2 °C 3,2 km/h (1 Bft)
28.08.2023 11:55 23,0 °C 16,3 °C 61 % 83 % 1012,3 hPa 0,0 l/m² 3,7 km/h (1 Bft) S-SW 211 ° 1 min 323 W/m² 13,4 °C 16,3 °C 4,8 km/h (1 Bft)
28.08.2023 11:56 23,0 °C 16,3 °C 61 % 82 % 1012,2 hPa 0,0 l/m² 2,7 km/h (1 Bft) S-SW 211 ° 1 min 322 W/m² 13,2 °C 16,3 °C 4,8 km/h (1 Bft)
28.08.2023 11:57 23,0 °C 16,4 °C 61 % 82 % 1012,2 hPa 0,0 l/m² 1,8 km/h (1 Bft) S-SW 211 ° 1 min 327 W/m² 13,3 °C 16,4 °C 3,2 km/h (1 Bft)
28.08.2023 11:58 23,0 °C 16,4 °C 61 % 81 % 1012,3 hPa 0,0 l/m² 2,5 km/h (1 Bft) S-SW 211 ° 1 min 330 W/m² 13,1 °C 16,4 °C 4,8 km/h (1 Bft)
28.08.2023 11:59 23,0 °C 16,4 °C 61 % 79 % 1012,3 hPa 0,0 l/m² 5,9 km/h (2 Bft) SW 215 ° 1 min 332 W/m² 12,7 °C 16,4 °C 8,0 km/h (2 Bft)
28.08.2023 12:01 23,0 °C 16,3 °C 61 % 78 % 1012,4 hPa 0,0 l/m² 3,7 km/h (1 Bft) SW 215 ° 2 min 366 W/m² 12,5 °C 16,3 °C 6,4 km/h (2 Bft)
28.08.2023 12:03 23,0 °C 16,3 °C 61 % 79 % 1012,3 hPa 0,0 l/m² 3,3 km/h (1 Bft) SW 215 ° 2 min 371 W/m² 12,6 °C 16,3 °C 6,4 km/h (2 Bft)
28.08.2023 12:04 23,0 °C 16,3 °C 61 % 77 % 1012,4 hPa 0,0 l/m² 0,1 km/h (0 Bft) SW 215 ° 1 min 364 W/m² 12,3 °C 16,3 °C 1,6 km/h (1 Bft)
28.08.2023 12:05 23,0 °C 16,3 °C 61 % 80 % 1012,3 hPa 0,0 l/m² 0,0 km/h (0 Bft) SW 215 ° 1 min 355 W/m² 12,8 °C 16,3 °C 0,0 km/h (0 Bft)
28.08.2023 12:06 23,0 °C 16,6 °C 61 % 81 % 1012,2 hPa 0,0 l/m² 0,0 km/h (0 Bft) SW 215 ° 1 min 380 W/m² 13,3 °C 16,6 °C 0,0 km/h (0 Bft)
28.08.2023 12:07 23,0 °C 16,7 °C 61 % 80 % 1012,2 hPa 0,0 l/m² 0,0 km/h (0 Bft) SW 215 ° 1 min 392 W/m² 13,2 °C 16,7 °C 0,0 km/h (0 Bft)
28.08.2023 12:08 23,0 °C 16,8 °C 61 % 78 % 1012,2 hPa 0,0 l/m² 0,0 km/h (0 Bft) SW 215 ° 1 min 403 W/m² 12,9 °C 16,8 °C 0,0 km/h (0 Bft)
28.08.2023 12:09 23,0 °C 16,7 °C 61 % 78 % 1012,2 hPa 0,0 l/m² 0,0 km/h (0 Bft) SW 215 ° 1 min 408 W/m² 12,8 °C 16,7 °C 0,0 km/h (0 Bft)
28.08.2023 12:11 23,0 °C 16,7 °C 61 % 79 % 1012,1 hPa 0,0 l/m² 3,5 km/h (1 Bft) SW 215 ° 2 min 429 W/m² 13,0 °C 16,7 °C 6,4 km/h (2 Bft)
28.08.2023 12:13 23,1 °C 16,5 °C 61 % 78 % 1012,0 hPa 0,0 l/m² 3,0 km/h (1 Bft) SW 215 ° 2 min 452 W/m² 12,6 °C 16,5 °C 4,8 km/h (1 Bft)
28.08.2023 12:14 23,0 °C 16,6 °C 61 % 80 % 1012,0 hPa 0,0 l/m² 5,2 km/h (1 Bft) SW 215 ° 1 min 455 W/m² 13,1 °C 16,6 °C 6,4 km/h (2 Bft)
28.08.2023 12:15 23,1 °C 16,6 °C 61 % 81 % 1012,0 hPa 0,0 l/m² 3,9 km/h (1 Bft) SW 215 ° 1 min 457 W/m² 13,3 °C 16,6 °C 6,4 km/h (2 Bft)
28.08.2023 12:16 23,1 °C 16,6 °C 61 % 79 % 1012,0 hPa 0,0 l/m² 3,2 km/h (1 Bft) SW 215 ° 1 min 452 W/m² 12,9 °C 16,6 °C 6,4 km/h (2 Bft)
28.08.2023 12:17 23,1 °C 16,6 °C 61 % 81 % 1012,0 hPa 0,0 l/m² 6,6 km/h (2 Bft) SW 215 ° 1 min 424 W/m² 13,3 °C 16,5 °C 8,0 km/h (2 Bft)
28.08.2023 12:18 23,1 °C 16,6 °C 61 % 79 % 1012,0 hPa 0,0 l/m² 4,6 km/h (1 Bft) SW 215 ° 1 min 464 W/m² 12,9 °C 16,6 °C 6,4 km/h (2 Bft)
28.08.2023 12:19 23,0 °C 16,6 °C 61 % 80 % 1012,0 hPa 0,0 l/m² 3,2 km/h (1 Bft) SW 215 ° 1 min 448 W/m² 13,1 °C 16,6 °C 4,8 km/h (1 Bft)
28.08.2023 12:21 23,0 °C 16,4 °C 61 % 78 % 1012,0 hPa 0,0 l/m² 3,9 km/h (1 Bft) SW 215 ° 2 min 431 W/m² 12,6 °C 16,4 °C 6,4 km/h (2 Bft)
28.08.2023 12:23 23,1 °C 16,4 °C 61 % 78 % 1011,9 hPa 0,0 l/m² 2,2 km/h (1 Bft) SW 215 ° 2 min 432 W/m² 12,6 °C 16,4 °C 4,8 km/h (1 Bft)
28.08.2023 12:24 23,1 °C 16,4 °C 61 % 80 % 1012,0 hPa 0,0 l/m² 0,5 km/h (0 Bft) SW 215 ° 1 min 504 W/m² 12,9 °C 16,4 °C 1,6 km/h (1 Bft)
28.08.2023 12:25 23,1 °C 16,4 °C 61 % 78 % 1012,0 hPa 0,0 l/m² 0,0 km/h (0 Bft) SW 215 ° 1 min 512 W/m² 12,6 °C 16,4 °C 0,0 km/h (0 Bft)
28.08.2023 12:26 23,1 °C 16,4 °C 61 % 78 % 1012,0 hPa 0,0 l/m² 0,0 km/h (0 Bft) SW 215 ° 1 min 499 W/m² 12,6 °C 16,4 °C 0,0 km/h (0 Bft)
28.08.2023 12:27 23,1 °C 16,6 °C 61 % 79 % 1012,0 hPa 0,0 l/m² 2,3 km/h (1 Bft) SW 215 ° 1 min 492 W/m² 12,9 °C 16,6 °C 4,8 km/h (1 Bft)
28.08.2023 12:28 23,1 °C 16,6 °C 61 % 77 % 1012,0 hPa 0,0 l/m² 2,2 km/h (1 Bft) SW 215 ° 1 min 459 W/m² 12,5 °C 16,6 °C 4,8 km/h (1 Bft)
28.08.2023 12:29 23,1 °C 16,4 °C 61 % 77 % 1012,1 hPa 0,0 l/m² 0,5 km/h (0 Bft) SW 215 ° 1 min 452 W/m² 12,4 °C 16,4 °C 1,6 km/h (1 Bft)
28.08.2023 12:31 23,1 °C 16,6 °C 61 % 78 % 1012,0 hPa 0,0 l/m² 0,4 km/h (0 Bft) SW 215 ° 2 min 468 W/m² 12,7 °C 16,6 °C 3,2 km/h (1 Bft)
28.08.2023 12:33 23,1 °C 16,9 °C 61 % 81 % 1012,0 hPa 0,0 l/m² 2,0 km/h (1 Bft) SW 215 ° 2 min 466 W/m² 13,6 °C 16,9 °C 3,2 km/h (1 Bft)
28.08.2023 12:34 23,1 °C 16,9 °C 61 % 77 % 1012,0 hPa 0,0 l/m² 2,7 km/h (1 Bft) SW 215 ° 1 min 482 W/m² 12,8 °C 16,9 °C 4,8 km/h (1 Bft)
28.08.2023 12:35 23,1 °C 16,8 °C 61 % 78 % 1012,0 hPa 0,0 l/m² 0,8 km/h (0 Bft) SW 215 ° 1 min 489 W/m² 12,9 °C 16,8 °C 4,8 km/h (1 Bft)
28.08.2023 12:36 23,1 °C 16,8 °C 61 % 78 % 1012,1 hPa 0,0 l/m² 0,6 km/h (0 Bft) SW 215 ° 1 min 526 W/m² 12,9 °C 16,8 °C 3,2 km/h (1 Bft)
28.08.2023 12:37 23,1 °C 16,8 °C 61 % 77 % 1012,0 hPa 0,0 l/m² 0,9 km/h (0 Bft) SW 215 ° 1 min 543 W/m² 12,7 °C 16,8 °C 3,2 km/h (1 Bft)
28.08.2023 12:38 23,1 °C 16,8 °C 61 % 77 % 1012,1 hPa 0,0 l/m² 0,8 km/h (0 Bft) SW 215 ° 1 min 608 W/m² 12,7 °C 16,8 °C 1,6 km/h (1 Bft)
28.08.2023 12:39 23,1 °C 16,7 °C 61 % 78 % 1012,1 hPa 0,0 l/m² 3,1 km/h (1 Bft) SW 215 ° 1 min 610 W/m² 12,8 °C 16,7 °C 8,0 km/h (2 Bft)
28.08.2023 12:41 23,1 °C 17,2 °C 61 % 78 % 1012,2 hPa 0,0 l/m² 5,6 km/h (2 Bft) SW 225 ° 2 min 587 W/m² 13,3 °C 17,2 °C 8,0 km/h (2 Bft)
28.08.2023 12:43 23,1 °C 17,4 °C 61 % 74 % 1012,2 hPa 0,0 l/m² 2,5 km/h (1 Bft) SW 225 ° 2 min 390 W/m² 12,7 °C 17,4 °C 6,4 km/h (2 Bft)
28.08.2023 12:45 23,1 °C 17,4 °C 61 % 75 % 1012,2 hPa 0,0 l/m² 0,8 km/h (0 Bft) SW 225 ° 2 min 338 W/m² 12,9 °C 17,4 °C 3,2 km/h (1 Bft)
28.08.2023 12:46 23,1 °C 17,4 °C 61 % 76 % 1012,3 hPa 0,0 l/m² 2,3 km/h (1 Bft) SW 225 ° 1 min 330 W/m² 13,1 °C 17,4 °C 4,8 km/h (1 Bft)
28.08.2023 12:47 23,1 °C 17,4 °C 61 % 75 % 1012,3 hPa 0,0 l/m² 4,9 km/h (1 Bft) W-SW 244 ° 1 min 327 W/m² 12,9 °C 17,4 °C 8,0 km/h (2 Bft)
28.08.2023 12:48 23,1 °C 17,3 °C 61 % 75 % 1012,4 hPa 0,0 l/m² 4,7 km/h (1 Bft) W-SW 243 ° 1 min 339 W/m² 12,8 °C 17,3 °C 6,4 km/h (2 Bft)
28.08.2023 12:49 23,1 °C 17,3 °C 61 % 75 % 1012,3 hPa 0,0 l/m² 4,7 km/h (1 Bft) W-SW 248 ° 1 min 339 W/m² 12,8 °C 17,3 °C 6,4 km/h (2 Bft)
28.08.2023 12:51 23,1 °C 17,2 °C 61 % 77 % 1012,2 hPa 0,0 l/m² 2,2 km/h (1 Bft) W-SW 248 ° 2 min 327 W/m² 13,1 °C 17,2 °C 4,8 km/h (1 Bft)
28.08.2023 12:53 23,1 °C 17,2 °C 61 % 76 % 1012,2 hPa 0,0 l/m² 3,1 km/h (1 Bft) W-SW 247 ° 2 min 308 W/m² 12,9 °C 17,2 °C 8,0 km/h (2 Bft)
28.08.2023 12:54 23,1 °C 17,2 °C 61 % 77 % 1012,2 hPa 0,0 l/m² 6,8 km/h (2 Bft) SW 236 ° 1 min 301 W/m² 13,1 °C 17,0 °C 8,0 km/h (2 Bft)
28.08.2023 12:55 23,1 °C 17,1 °C 61 % 75 % 1012,3 hPa 0,0 l/m² 4,3 km/h (1 Bft) SW 236 ° 1 min 294 W/m² 12,6 °C 17,1 °C 6,4 km/h (2 Bft)
28.08.2023 12:56 23,1 °C 17,0 °C 61 % 75 % 1012,2 hPa 0,0 l/m² 3,4 km/h (1 Bft) SW 236 ° 1 min 294 W/m² 12,5 °C 17,0 °C 4,8 km/h (1 Bft)
28.08.2023 12:57 23,1 °C 16,9 °C 61 % 77 % 1012,3 hPa 0,0 l/m² 0,7 km/h (0 Bft) SW 236 ° 1 min 294 W/m² 12,8 °C 16,9 °C 3,2 km/h (1 Bft)
28.08.2023 12:58 23,1 °C 16,8 °C 61 % 75 % 1012,3 hPa 0,0 l/m² 1,6 km/h (1 Bft) SW 236 ° 1 min 294 W/m² 12,3 °C 16,8 °C 3,2 km/h (1 Bft)
28.08.2023 12:59 23,1 °C 16,8 °C 61 % 77 % 1012,3 hPa 0,0 l/m² 1,4 km/h (1 Bft) SW 236 ° 1 min 302 W/m² 12,7 °C 16,8 °C 3,2 km/h (1 Bft)
28.08.2023 13:01 23,1 °C 16,9 °C 61 % 75 % 1012,3 hPa 0,0 l/m² 2,1 km/h (1 Bft) SW 236 ° 2 min 315 W/m² 12,4 °C 16,9 °C 4,8 km/h (1 Bft)
28.08.2023 13:03 23,1 °C 17,1 °C 61 % 75 % 1012,3 hPa 0,0 l/m² 2,4 km/h (1 Bft) W-SW 250 ° 2 min 323 W/m² 12,6 °C 17,1 °C 6,4 km/h (2 Bft)
28.08.2023 13:04 23,1 °C 17,1 °C 61 % 75 % 1012,3 hPa 0,0 l/m² 2,2 km/h (1 Bft) W-SW 250 ° 1 min 327 W/m² 12,6 °C 17,1 °C 4,8 km/h (1 Bft)
28.08.2023 13:05 23,1 °C 17,1 °C 61 % 75 % 1012,3 hPa 0,0 l/m² 0,1 km/h (0 Bft) W-SW 250 ° 1 min 338 W/m² 12,6 °C 17,1 °C 1,6 km/h (1 Bft)
28.08.2023 13:06 23,1 °C 17,2 °C 61 % 76 % 1012,3 hPa 0,0 l/m² 1,2 km/h (1 Bft) W-SW 250 ° 1 min 341 W/m² 12,9 °C 17,2 °C 4,8 km/h (1 Bft)
28.08.2023 13:07 23,1 °C 17,3 °C 61 % 76 % 1012,3 hPa 0,0 l/m² 2,3 km/h (1 Bft) W-SW 250 ° 1 min 343 W/m² 13,0 °C 17,3 °C 3,2 km/h (1 Bft)
28.08.2023 13:08 23,1 °C 17,3 °C 61 % 76 % 1012,3 hPa 0,0 l/m² 1,8 km/h (1 Bft) W-SW 250 ° 1 min 341 W/m² 13,0 °C 17,3 °C 3,2 km/h (1 Bft)
28.08.2023 13:09 23,1 °C 17,2 °C 61 % 78 % 1012,2 hPa 0,0 l/m² 6,1 km/h (2 Bft) W-SW 242 ° 1 min 339 W/m² 13,3 °C 17,2 °C 8,0 km/h (2 Bft)
28.08.2023 13:11 23,1 °C 17,1 °C 61 % 76 % 1012,2 hPa 0,0 l/m² 4,4 km/h (1 Bft) W-SW 242 ° 2 min 330 W/m² 12,8 °C 17,1 °C 8,0 km/h (2 Bft)
28.08.2023 13:13 23,1 °C 17,2 °C 61 % 79 % 1012,2 hPa 0,0 l/m² 3,5 km/h (1 Bft) W-SW 242 ° 2 min 325 W/m² 13,5 °C 17,2 °C 6,4 km/h (2 Bft)
28.08.2023 13:14 23,1 °C 17,2 °C 61 % 77 % 1012,2 hPa 0,0 l/m² 6,4 km/h (2 Bft) W-SW 245 ° 1 min 318 W/m² 13,1 °C 17,2 °C 8,0 km/h (2 Bft)
28.08.2023 13:15 23,1 °C 17,2 °C 61 % 76 % 1012,2 hPa 0,0 l/m² 4,8 km/h (1 Bft) W-SW 245 ° 1 min 309 W/m² 12,9 °C 17,2 °C 6,4 km/h (2 Bft)
28.08.2023 13:16 23,1 °C 17,2 °C 61 % 77 % 1012,3 hPa 0,0 l/m² 5,3 km/h (1 Bft) W-SW 244 ° 1 min 301 W/m² 13,1 °C 17,2 °C 6,4 km/h (2 Bft)
28.08.2023 13:17 23,1 °C 17,2 °C 61 % 76 % 1012,3 hPa 0,0 l/m² 4,8 km/h (1 Bft) W-SW 244 ° 1 min 290 W/m² 12,9 °C 17,2 °C 6,4 km/h (2 Bft)
28.08.2023 13:18 23,1 °C 17,1 °C 61 % 77 % 1012,3 hPa 0,0 l/m² 3,6 km/h (1 Bft) W-SW 244 ° 1 min 279 W/m² 13,0 °C 17,1 °C 4,8 km/h (1 Bft)
28.08.2023 13:19 23,1 °C 17,0 °C 61 % 76 % 1012,3 hPa 0,0 l/m² 0,8 km/h (0 Bft) W-SW 244 ° 1 min 278 W/m² 12,7 °C 17,0 °C 1,6 km/h (1 Bft)
28.08.2023 13:21 23,1 °C 16,9 °C 61 % 77 % 1012,2 hPa 0,0 l/m² 0,1 km/h (0 Bft) W-SW 244 ° 2 min 278 W/m² 12,8 °C 16,9 °C 1,6 km/h (1 Bft)
28.08.2023 13:23 23,1 °C 17,2 °C 61 % 77 % 1012,1 hPa 0,0 l/m² 0,1 km/h (0 Bft) W-SW 244 ° 2 min 283 W/m² 13,1 °C 17,2 °C 1,6 km/h (1 Bft)
28.08.2023 13:24 23,1 °C 17,2 °C 61 % 76 % 1012,2 hPa 0,0 l/m² 1,7 km/h (1 Bft) W-SW 244 ° 1 min 285 W/m² 12,9 °C 17,2 °C 3,2 km/h (1 Bft)
28.08.2023 13:25 23,1 °C 17,3 °C 61 % 76 % 1012,2 hPa 0,0 l/m² 1,5 km/h (1 Bft) W-SW 244 ° 1 min 287 W/m² 13,0 °C 17,3 °C 3,2 km/h (1 Bft)
28.08.2023 13:26 23,1 °C 17,3 °C 61 % 75 % 1012,2 hPa 0,0 l/m² 0,2 km/h (0 Bft) W-SW 244 ° 1 min 287 W/m² 12,8 °C 17,3 °C 1,6 km/h (1 Bft)
28.08.2023 13:27 23,1 °C 17,4 °C 61 % 78 % 1012,3 hPa 0,0 l/m² 0,2 km/h (0 Bft) W-SW 244 ° 1 min 287 W/m² 13,5 °C 17,4 °C 1,6 km/h (1 Bft)
28.08.2023 13:28 23,1 °C 17,5 °C 61 % 76 % 1012,2 hPa 0,0 l/m² 1,0 km/h (0 Bft) W-SW 244 ° 1 min 287 W/m² 13,2 °C 17,5 °C 3,2 km/h (1 Bft)
28.08.2023 13:29 23,1 °C 17,6 °C 61 % 75 % 1012,3 hPa 0,0 l/m² 3,7 km/h (1 Bft) W-SW 254 ° 1 min 285 W/m² 13,1 °C 17,6 °C 8,0 km/h (2 Bft)
28.08.2023 13:31 23,0 °C 17,6 °C 61 % 75 % 1012,1 hPa 0,0 l/m² 2,0 km/h (1 Bft) W-SW 254 ° 2 min 287 W/m² 13,1 °C 17,6 °C 6,4 km/h (2 Bft)
28.08.2023 13:33 23,1 °C 17,5 °C 61 % 75 % 1012,1 hPa 0,0 l/m² 5,6 km/h (2 Bft) W-SW 254 ° 2 min 285 W/m² 13,0 °C 17,5 °C 8,0 km/h (2 Bft)
28.08.2023 13:34 23,1 °C 17,4 °C 61 % 75 % 1012,1 hPa 0,0 l/m² 5,5 km/h (2 Bft) W-SW 252 ° 1 min 287 W/m² 12,9 °C 17,4 °C 8,0 km/h (2 Bft)
28.08.2023 13:35 23,1 °C 17,4 °C 61 % 76 % 1012,1 hPa 0,0 l/m² 4,4 km/h (1 Bft) W-NW 291 ° 1 min 290 W/m² 13,1 °C 17,4 °C 8,0 km/h (2 Bft)
28.08.2023 13:36 23,1 °C 17,4 °C 61 % 76 % 1012,0 hPa 0,0 l/m² 2,8 km/h (1 Bft) W-NW 292 ° 1 min 292 W/m² 13,1 °C 17,4 °C 6,4 km/h (2 Bft)
28.08.2023 13:37 23,1 °C 17,5 °C 61 % 74 % 1012,1 hPa 0,0 l/m² 3,9 km/h (1 Bft) W-NW 295 ° 1 min 294 W/m² 12,8 °C 17,5 °C 6,4 km/h (2 Bft)
28.08.2023 13:38 23,1 °C 17,6 °C 61 % 75 % 1012,0 hPa 0,0 l/m² 1,9 km/h (1 Bft) W-NW 295 ° 1 min 294 W/m² 13,1 °C 17,6 °C 3,2 km/h (1 Bft)
28.08.2023 13:39 23,1 °C 17,7 °C 61 % 75 % 1012,0 hPa 0,0 l/m² 2,1 km/h (1 Bft) W 280 ° 1 min 301 W/m² 13,2 °C 17,7 °C 9,7 km/h (2 Bft)
28.08.2023 13:41 23,1 °C 17,6 °C 61 % 74 % 1011,9 hPa 0,0 l/m² 5,2 km/h (1 Bft) W-NW 283 ° 2 min 343 W/m² 12,9 °C 17,6 °C 11,3 km/h (2 Bft)
28.08.2023 13:43 23,1 °C 17,5 °C 61 % 74 % 1011,8 hPa 0,0 l/m² 5,7 km/h (2 Bft) W 278 ° 2 min 362 W/m² 12,8 °C 17,5 °C 11,3 km/h (2 Bft)
28.08.2023 13:44 23,1 °C 17,6 °C 61 % 75 % 1011,9 hPa 0,0 l/m² 0,5 km/h (0 Bft) W 278 ° 1 min 371 W/m² 13,1 °C 17,6 °C 1,6 km/h (1 Bft)
28.08.2023 13:45 23,1 °C 17,6 °C 61 % 75 % 1011,8 hPa 0,0 l/m² 6,9 km/h (2 Bft) W 269 ° 1 min 373 W/m² 13,1 °C 17,4 °C 11,3 km/h (2 Bft)
28.08.2023 13:46 23,1 °C 17,5 °C 61 % 74 % 1011,9 hPa 0,0 l/m² 3,3 km/h (1 Bft) W 269 ° 1 min 383 W/m² 12,8 °C 17,5 °C 6,4 km/h (2 Bft)
28.08.2023 13:47 23,1 °C 17,5 °C 61 % 74 % 1011,9 hPa 0,0 l/m² 1,9 km/h (1 Bft) W 269 ° 1 min 387 W/m² 12,8 °C 17,5 °C 3,2 km/h (1 Bft)
28.08.2023 13:48 23,1 °C 17,6 °C 61 % 75 % 1012,0 hPa 0,0 l/m² 0,7 km/h (0 Bft) W 269 ° 1 min 388 W/m² 13,1 °C 17,6 °C 1,6 km/h (1 Bft)
28.08.2023 13:49 23,1 °C 17,7 °C 61 % 77 % 1011,9 hPa 0,0 l/m² 3,9 km/h (1 Bft) W 271 ° 1 min 394 W/m² 13,6 °C 17,7 °C 6,4 km/h (2 Bft)
28.08.2023 13:51 23,1 °C 17,9 °C 61 % 77 % 1011,8 hPa 0,0 l/m² 3,6 km/h (1 Bft) W 273 ° 2 min 385 W/m² 13,8 °C 17,9 °C 9,7 km/h (2 Bft)
28.08.2023 13:52 23,1 °C 17,9 °C 61 % 75 % 1011,8 hPa 0,0 l/m² 6,3 km/h (2 Bft) W 275 ° 1 min 373 W/m² 13,4 °C 17,9 °C 11,3 km/h (2 Bft)
28.08.2023 13:53 23,1 °C 17,9 °C 61 % 74 % 1011,8 hPa 0,0 l/m² 6,6 km/h (2 Bft) W 263 ° 1 min 359 W/m² 13,2 °C 17,8 °C 9,7 km/h (2 Bft)
28.08.2023 13:54 23,1 °C 17,8 °C 61 % 74 % 1011,8 hPa 0,0 l/m² 5,4 km/h (2 Bft) W 274 ° 1 min 353 W/m² 13,1 °C 17,8 °C 11,3 km/h (2 Bft)
28.08.2023 13:55 23,1 °C 17,8 °C 61 % 74 % 1011,8 hPa 0,0 l/m² 2,1 km/h (1 Bft) W 275 ° 1 min 360 W/m² 13,1 °C 17,8 °C 4,8 km/h (1 Bft)
28.08.2023 13:56 23,1 °C 17,8 °C 61 % 75 % 1011,8 hPa 0,0 l/m² 2,8 km/h (1 Bft) W 274 ° 1 min 388 W/m² 13,3 °C 17,8 °C 6,4 km/h (2 Bft)
28.08.2023 13:57 23,1 °C 17,8 °C 61 % 76 % 1011,7 hPa 0,0 l/m² 1,4 km/h (1 Bft) W 274 ° 1 min 422 W/m² 13,5 °C 17,8 °C 3,2 km/h (1 Bft)
28.08.2023 13:58 23,1 °C 17,9 °C 61 % 75 % 1011,7 hPa 0,0 l/m² 0,8 km/h (0 Bft) W 274 ° 1 min 413 W/m² 13,4 °C 17,9 °C 3,2 km/h (1 Bft)
28.08.2023 13:59 23,1 °C 17,9 °C 61 % 76 % 1011,7 hPa 0,0 l/m² 1,0 km/h (0 Bft) W 274 ° 1 min 410 W/m² 13,6 °C 17,9 °C 4,8 km/h (1 Bft)
28.08.2023 14:01 23,1 °C 18,2 °C 61 % 75 % 1011,6 hPa 0,0 l/m² 2,5 km/h (1 Bft) W-NW 302 ° 2 min 411 W/m² 13,7 °C 18,2 °C 9,7 km/h (2 Bft)
28.08.2023 14:03 23,1 °C 18,3 °C 61 % 75 % 1011,5 hPa 0,0 l/m² 5,4 km/h (2 Bft) NW 321 ° 2 min 362 W/m² 13,8 °C 18,3 °C 9,7 km/h (2 Bft)
28.08.2023 14:04 23,1 °C 18,3 °C 61 % 73 % 1011,5 hPa 0,0 l/m² 2,5 km/h (1 Bft) NW 320 ° 1 min 334 W/m² 13,4 °C 18,3 °C 4,8 km/h (1 Bft)
28.08.2023 14:05 23,1 °C 18,2 °C 61 % 73 % 1011,5 hPa 0,0 l/m² 3,0 km/h (1 Bft) NW 319 ° 1 min 338 W/m² 13,3 °C 18,2 °C 4,8 km/h (1 Bft)
28.08.2023 14:06 23,1 °C 18,1 °C 61 % 73 % 1011,4 hPa 0,0 l/m² 5,1 km/h (1 Bft) W-NW 288 ° 1 min 353 W/m² 13,2 °C 18,1 °C 11,3 km/h (2 Bft)
28.08.2023 14:07 23,1 °C 18,1 °C 61 % 73 % 1011,5 hPa 0,0 l/m² 3,3 km/h (1 Bft) W-NW 287 ° 1 min 383 W/m² 13,2 °C 18,1 °C 6,4 km/h (2 Bft)
28.08.2023 14:08 23,1 °C 18,1 °C 61 % 73 % 1011,4 hPa 0,0 l/m² 2,8 km/h (1 Bft) W-NW 287 ° 1 min 403 W/m² 13,2 °C 18,1 °C 4,8 km/h (1 Bft)
28.08.2023 14:09 23,1 °C 18,1 °C 61 % 74 % 1011,4 hPa 0,0 l/m² 1,4 km/h (1 Bft) W-NW 287 ° 1 min 418 W/m² 13,4 °C 18,1 °C 4,8 km/h (1 Bft)
28.08.2023 14:11 23,1 °C 18,1 °C 61 % 72 % 1011,5 hPa 0,0 l/m² 3,2 km/h (1 Bft) NW 313 ° 2 min 418 W/m² 13,0 °C 18,1 °C 8,0 km/h (2 Bft)
28.08.2023 14:13 23,1 °C 18,2 °C 61 % 75 % 1011,5 hPa 0,0 l/m² 3,3 km/h (1 Bft) W 271 ° 2 min 464 W/m² 13,7 °C 18,2 °C 9,7 km/h (2 Bft)
28.08.2023 14:14 23,1 °C 18,2 °C 61 % 72 % 1011,5 hPa 0,0 l/m² 7,2 km/h (2 Bft) W 271 ° 1 min 506 W/m² 13,1 °C 17,8 °C 11,3 km/h (2 Bft)
28.08.2023 14:15 23,1 °C 18,2 °C 61 % 73 % 1011,5 hPa 0,0 l/m² 5,4 km/h (2 Bft) W 267 ° 1 min 540 W/m² 13,3 °C 18,2 °C 11,3 km/h (2 Bft)
28.08.2023 14:16 23,1 °C 18,3 °C 61 % 72 % 1011,5 hPa 0,0 l/m² 5,2 km/h (1 Bft) W-NW 287 ° 1 min 520 W/m² 13,2 °C 18,3 °C 6,4 km/h (2 Bft)
28.08.2023 14:17 23,1 °C 18,4 °C 61 % 74 % 1011,6 hPa 0,0 l/m² 6,7 km/h (2 Bft) NW 305 ° 1 min 527 W/m² 13,7 °C 18,3 °C 12,9 km/h (3 Bft)
28.08.2023 14:18 23,1 °C 18,6 °C 61 % 72 % 1011,5 hPa 0,0 l/m² 4,7 km/h (1 Bft) W-NW 285 ° 1 min 547 W/m² 13,4 °C 18,6 °C 6,4 km/h (2 Bft)
28.08.2023 14:19 23,1 °C 18,6 °C 61 % 70 % 1011,5 hPa 0,0 l/m² 3,1 km/h (1 Bft) W-NW 292 ° 1 min 524 W/m² 13,0 °C 18,6 °C 4,8 km/h (1 Bft)
28.08.2023 14:21 23,1 °C 18,6 °C 61 % 71 % 1011,4 hPa 0,0 l/m² 4,3 km/h (1 Bft) N 355 ° 2 min 438 W/m² 13,2 °C 18,6 °C 8,0 km/h (2 Bft)
28.08.2023 14:23 23,1 °C 18,6 °C 61 % 72 % 1011,4 hPa 0,0 l/m² 3,7 km/h (1 Bft) NW 317 ° 2 min 371 W/m² 13,4 °C 18,6 °C 6,4 km/h (2 Bft)
28.08.2023 14:24 23,1 °C 18,6 °C 61 % 71 % 1011,3 hPa 0,0 l/m² 2,3 km/h (1 Bft) NW 317 ° 1 min 364 W/m² 13,2 °C 18,6 °C 4,8 km/h (1 Bft)
28.08.2023 14:25 23,1 °C 18,4 °C 61 % 70 % 1011,2 hPa 0,0 l/m² 7,6 km/h (2 Bft) N-NW 333 ° 1 min 350 W/m² 12,8 °C 17,8 °C 8,0 km/h (2 Bft)
28.08.2023 14:26 23,1 °C 18,4 °C 61 % 71 % 1011,2 hPa 0,0 l/m² 3,1 km/h (1 Bft) N-NW 334 ° 1 min 338 W/m² 13,0 °C 18,4 °C 8,0 km/h (2 Bft)
28.08.2023 14:27 23,1 °C 18,3 °C 61 % 70 % 1011,2 hPa 0,0 l/m² 2,1 km/h (1 Bft) N-NW 329 ° 1 min 352 W/m² 12,7 °C 18,3 °C 3,2 km/h (1 Bft)
28.08.2023 14:28 23,1 °C 18,3 °C 61 % 71 % 1011,2 hPa 0,0 l/m² 2,3 km/h (1 Bft) N-NW 328 ° 1 min 392 W/m² 12,9 °C 18,3 °C 4,8 km/h (1 Bft)
28.08.2023 14:29 23,1 °C 18,4 °C 61 % 72 % 1011,1 hPa 0,0 l/m² 3,8 km/h (1 Bft) N-NW 329 ° 1 min 438 W/m² 13,3 °C 18,4 °C 6,4 km/h (2 Bft)
28.08.2023 14:31 23,1 °C 18,4 °C 61 % 70 % 1011,1 hPa 0,0 l/m² 5,1 km/h (1 Bft) NW 309 ° 2 min 490 W/m² 12,8 °C 18,4 °C 11,3 km/h (2 Bft)
28.08.2023 14:33 23,1 °C 18,7 °C 61 % 71 % 1011,1 hPa 0,0 l/m² 1,6 km/h (1 Bft) NW 307 ° 2 min 557 W/m² 13,3 °C 18,7 °C 4,8 km/h (1 Bft)
28.08.2023 14:34 23,1 °C 18,9 °C 61 % 71 % 1011,0 hPa 0,0 l/m² 0,8 km/h (0 Bft) NW 307 ° 1 min 536 W/m² 13,5 °C 18,9 °C 3,2 km/h (1 Bft)
28.08.2023 14:35 23,1 °C 19,0 °C 61 % 71 % 1011,1 hPa 0,0 l/m² 5,1 km/h (1 Bft) N-NW 334 ° 1 min 522 W/m² 13,6 °C 19,0 °C 8,0 km/h (2 Bft)
28.08.2023 14:36 23,1 °C 18,9 °C 61 % 69 % 1011,1 hPa 0,0 l/m² 3,3 km/h (1 Bft) N-NW 336 ° 1 min 469 W/m² 13,1 °C 18,9 °C 6,4 km/h (2 Bft)
28.08.2023 14:37 23,1 °C 18,9 °C 61 % 71 % 1011,0 hPa 0,0 l/m² 4,4 km/h (1 Bft) N 9 ° 1 min 432 W/m² 13,5 °C 18,9 °C 6,4 km/h (2 Bft)
28.08.2023 14:38 23,1 °C 18,9 °C 61 % 69 % 1011,0 hPa 0,0 l/m² 2,0 km/h (1 Bft) N 9 ° 1 min 374 W/m² 13,1 °C 18,9 °C 3,2 km/h (1 Bft)
28.08.2023 14:39 23,1 °C 18,8 °C 61 % 69 % 1011,0 hPa 0,0 l/m² 3,8 km/h (1 Bft) N 5 ° 1 min 350 W/m² 13,0 °C 18,8 °C 6,4 km/h (2 Bft)
28.08.2023 14:41 23,1 °C 18,7 °C 61 % 69 % 1011,0 hPa 0,0 l/m² 1,2 km/h (1 Bft) N 5 ° 2 min 338 W/m² 12,9 °C 18,7 °C 3,2 km/h (1 Bft)
28.08.2023 14:43 23,1 °C 18,8 °C 61 % 73 % 1010,9 hPa 0,0 l/m² 0,0 km/h (0 Bft) N 5 ° 2 min 323 W/m² 13,9 °C 18,8 °C 1,6 km/h (1 Bft)
28.08.2023 14:44 23,1 °C 18,9 °C 61 % 71 % 1010,9 hPa 0,0 l/m² 3,2 km/h (1 Bft) W-NW 288 ° 1 min 316 W/m² 13,5 °C 18,9 °C 6,4 km/h (2 Bft)
28.08.2023 14:45 23,1 °C 18,8 °C 61 % 70 % 1010,9 hPa 0,0 l/m² 7,2 km/h (2 Bft) N-NW 328 ° 1 min 295 W/m² 13,2 °C 18,4 °C 12,9 km/h (3 Bft)
28.08.2023 14:46 23,1 °C 18,8 °C 61 % 70 % 1010,8 hPa 0,0 l/m² 7,3 km/h (2 Bft) N 5 ° 1 min 287 W/m² 13,2 °C 18,4 °C 9,7 km/h (2 Bft)
28.08.2023 14:47 23,1 °C 18,6 °C 61 % 68 % 1010,8 hPa 0,0 l/m² 4,8 km/h (1 Bft) N 5 ° 1 min 283 W/m² 12,6 °C 18,6 °C 6,4 km/h (2 Bft)
28.08.2023 14:48 23,1 °C 18,6 °C 61 % 70 % 1010,8 hPa 0,0 l/m² 2,4 km/h (1 Bft) N 5 ° 1 min 279 W/m² 13,0 °C 18,6 °C 4,8 km/h (1 Bft)
28.08.2023 14:49 23,1 °C 18,6 °C 61 % 69 % 1010,7 hPa 0,0 l/m² 4,0 km/h (1 Bft) N-NO 13 ° 1 min 279 W/m² 12,8 °C 18,6 °C 6,4 km/h (2 Bft)
28.08.2023 14:51 23,1 °C 18,5 °C 61 % 70 % 1010,8 hPa 0,0 l/m² 4,8 km/h (1 Bft) N-NO 13 ° 2 min 269 W/m² 12,9 °C 18,5 °C 8,0 km/h (2 Bft)
28.08.2023 14:53 23,1 °C 18,4 °C 61 % 69 % 1010,7 hPa 0,0 l/m² 5,7 km/h (2 Bft) N-NW 329 ° 2 min 246 W/m² 12,6 °C 18,4 °C 8,0 km/h (2 Bft)
28.08.2023 14:54 23,1 °C 18,3 °C 61 % 69 % 1010,7 hPa 0,0 l/m² 8,4 km/h (2 Bft) N-NW 331 ° 1 min 236 W/m² 12,5 °C 17,4 °C 9,7 km/h (2 Bft)
28.08.2023 14:55 23,1 °C 18,3 °C 61 % 69 % 1010,7 hPa 0,0 l/m² 5,6 km/h (2 Bft) N-NW 333 ° 1 min 227 W/m² 12,5 °C 18,3 °C 6,4 km/h (2 Bft)
28.08.2023 14:57 23,1 °C 18,2 °C 61 % 69 % 1010,7 hPa 0,0 l/m² 6,7 km/h (2 Bft) N-NW 341 ° 2 min 227 W/m² 12,4 °C 18,1 °C 12,9 km/h (3 Bft)
28.08.2023 14:58 23,1 °C 18,1 °C 61 % 69 % 1010,7 hPa 0,0 l/m² 7,3 km/h (2 Bft) N 360 ° 1 min 230 W/m² 12,3 °C 17,7 °C 12,9 km/h (3 Bft)
28.08.2023 14:59 23,1 °C 18,1 °C 61 % 69 % 1010,7 hPa 0,0 l/m² 6,8 km/h (2 Bft) N-NW 348 ° 1 min 234 W/m² 12,3 °C 17,9 °C 12,9 km/h (3 Bft)
28.08.2023 15:01 23,1 °C 18,1 °C 61 % 70 % 1010,7 hPa 0,0 l/m² 5,8 km/h (2 Bft) N-NW 340 ° 2 min 241 W/m² 12,5 °C 18,1 °C 8,0 km/h (2 Bft)
28.08.2023 15:03 23,1 °C 18,2 °C 61 % 70 % 1010,8 hPa 0,0 l/m² 6,7 km/h (2 Bft) N-NW 338 ° 2 min 246 W/m² 12,6 °C 18,1 °C 8,0 km/h (2 Bft)
28.08.2023 15:04 23,1 °C 18,2 °C 61 % 70 % 1010,8 hPa 0,0 l/m² 5,3 km/h (1 Bft) N-NW 347 ° 1 min 244 W/m² 12,6 °C 18,2 °C 6,4 km/h (2 Bft)
28.08.2023 15:05 23,1 °C 18,2 °C 61 % 71 % 1010,9 hPa 0,0 l/m² 5,3 km/h (1 Bft) N 351 ° 1 min 243 W/m² 12,9 °C 18,2 °C 8,0 km/h (2 Bft)
28.08.2023 15:06 23,1 °C 18,2 °C 61 % 70 % 1010,9 hPa 0,0 l/m² 7,9 km/h (2 Bft) N-NW 336 ° 1 min 243 W/m² 12,6 °C 17,5 °C 12,9 km/h (3 Bft)
28.08.2023 15:07 23,1 °C 18,2 °C 61 % 69 % 1010,9 hPa 0,0 l/m² 8,4 km/h (2 Bft) N-NW 342 ° 1 min 239 W/m² 12,4 °C 17,3 °C 9,7 km/h (2 Bft)
28.08.2023 15:08 23,1 °C 18,2 °C 61 % 70 % 1010,9 hPa 0,0 l/m² 5,2 km/h (1 Bft) N-NW 336 ° 1 min 230 W/m² 12,6 °C 18,2 °C 8,0 km/h (2 Bft)
28.08.2023 15:09 23,1 °C 18,2 °C 61 % 70 % 1010,9 hPa 0,0 l/m² 4,0 km/h (1 Bft) N-NW 334 ° 1 min 221 W/m² 12,6 °C 18,2 °C 6,4 km/h (2 Bft)
28.08.2023 15:11 23,1 °C 18,1 °C 61 % 70 % 1011,0 hPa 0,0 l/m² 4,9 km/h (1 Bft) N-NW 347 ° 2 min 202 W/m² 12,5 °C 18,1 °C 8,0 km/h (2 Bft)
28.08.2023 15:13 23,1 °C 18,1 °C 61 % 71 % 1011,0 hPa 0,0 l/m² 3,2 km/h (1 Bft) N-NW 347 ° 2 min 185 W/m² 12,8 °C 18,1 °C 4,8 km/h (1 Bft)
28.08.2023 15:14 23,1 °C 18,1 °C 61 % 70 % 1011,0 hPa 0,0 l/m² 3,5 km/h (1 Bft) N-NW 347 ° 1 min 172 W/m² 12,5 °C 18,1 °C 6,4 km/h (2 Bft)
28.08.2023 15:15 23,1 °C 18,1 °C 61 % 70 % 1011,1 hPa 0,0 l/m² 1,9 km/h (1 Bft) N-NW 347 ° 1 min 171 W/m² 12,5 °C 18,1 °C 3,2 km/h (1 Bft)
28.08.2023 15:16 23,1 °C 18,1 °C 61 % 70 % 1011,1 hPa 0,0 l/m² 1,5 km/h (1 Bft) N-NW 346 ° 1 min 171 W/m² 12,5 °C 18,1 °C 3,2 km/h (1 Bft)
28.08.2023 15:17 23,1 °C 18,1 °C 61 % 72 % 1011,1 hPa 0,0 l/m² 2,8 km/h (1 Bft) N-NW 346 ° 1 min 172 W/m² 13,0 °C 18,1 °C 4,8 km/h (1 Bft)
28.08.2023 15:18 23,1 °C 18,2 °C 61 % 71 % 1011,1 hPa 0,0 l/m² 3,2 km/h (1 Bft) N-NW 344 ° 1 min 176 W/m² 12,9 °C 18,2 °C 6,4 km/h (2 Bft)
28.08.2023 15:19 23,1 °C 18,2 °C 61 % 71 % 1011,1 hPa 0,0 l/m² 5,5 km/h (2 Bft) N-NW 335 ° 1 min 183 W/m² 12,9 °C 18,2 °C 6,4 km/h (2 Bft)
28.08.2023 15:21 23,1 °C 18,2 °C 61 % 71 % 1011,1 hPa 0,0 l/m² 4,5 km/h (1 Bft) N-NW 335 ° 2 min 214 W/m² 12,9 °C 18,2 °C 8,0 km/h (2 Bft)
28.08.2023 15:22 23,1 °C 18,2 °C 61 % 71 % 1011,0 hPa 0,0 l/m² 3,4 km/h (1 Bft) N-NW 335 ° 1 min 229 W/m² 12,9 °C 18,2 °C 4,8 km/h (1 Bft)
28.08.2023 15:23 23,1 °C 18,2 °C 61 % 70 % 1011,0 hPa 0,0 l/m² 4,8 km/h (1 Bft) N-NW 335 ° 1 min 243 W/m² 12,6 °C 18,2 °C 6,4 km/h (2 Bft)
28.08.2023 15:24 23,1 °C 18,2 °C 61 % 70 % 1011,1 hPa 0,0 l/m² 5,5 km/h (2 Bft) N-NW 335 ° 1 min 258 W/m² 12,6 °C 18,2 °C 6,4 km/h (2 Bft)
28.08.2023 15:25 23,1 °C 18,2 °C 61 % 70 % 1011,1 hPa 0,0 l/m² 4,9 km/h (1 Bft) N-NW 336 ° 1 min 278 W/m² 12,6 °C 18,2 °C 6,4 km/h (2 Bft)
28.08.2023 15:26 23,1 °C 18,2 °C 61 % 71 % 1011,1 hPa 0,0 l/m² 5,2 km/h (1 Bft) N-NW 331 ° 1 min 355 W/m² 12,9 °C 18,2 °C 6,4 km/h (2 Bft)
28.08.2023 15:27 23,1 °C 18,3 °C 61 % 71 % 1011,1 hPa 0,0 l/m² 3,4 km/h (1 Bft) N-NW 331 ° 1 min 432 W/m² 12,9 °C 18,3 °C 4,8 km/h (1 Bft)
28.08.2023 15:28 23,1 °C 18,4 °C 61 % 71 % 1011,0 hPa 0,0 l/m² 2,2 km/h (1 Bft) N-NW 331 ° 1 min 482 W/m² 13,0 °C 18,4 °C 4,8 km/h (1 Bft)
28.08.2023 15:29 23,1 °C 18,6 °C 61 % 71 % 1011,0 hPa 0,0 l/m² 4,4 km/h (1 Bft) NW 323 ° 1 min 536 W/m² 13,2 °C 18,6 °C 6,4 km/h (2 Bft)
28.08.2023 15:31 23,1 °C 18,9 °C 61 % 69 % 1011,0 hPa 0,0 l/m² 3,2 km/h (1 Bft) W-NW 302 ° 2 min 663 W/m² 13,1 °C 18,9 °C 11,3 km/h (2 Bft)
28.08.2023 15:33 23,1 °C 19,1 °C 61 % 70 % 1011,0 hPa 0,0 l/m² 4,3 km/h (1 Bft) W-NW 302 ° 2 min 635 W/m² 13,5 °C 19,1 °C 8,0 km/h (2 Bft)
28.08.2023 15:34 23,1 °C 19,2 °C 61 % 69 % 1011,0 hPa 0,0 l/m² 0,5 km/h (0 Bft) W-NW 302 ° 1 min 675 W/m² 13,4 °C 19,2 °C 3,2 km/h (1 Bft)
28.08.2023 15:35 23,2 °C 19,4 °C 61 % 69 % 1011,0 hPa 0,0 l/m² 2,6 km/h (1 Bft) W-NW 302 ° 1 min 675 W/m² 13,6 °C 19,4 °C 4,8 km/h (1 Bft)
28.08.2023 15:36 23,2 °C 19,5 °C 61 % 69 % 1011,0 hPa 0,0 l/m² 0,7 km/h (0 Bft) W-NW 302 ° 1 min 592 W/m² 13,7 °C 19,5 °C 3,2 km/h (1 Bft)
28.08.2023 15:37 23,2 °C 19,6 °C 61 % 69 % 1011,0 hPa 0,0 l/m² 5,0 km/h (1 Bft) NW 322 ° 1 min 703 W/m² 13,8 °C 19,6 °C 8,0 km/h (2 Bft)
28.08.2023 15:38 23,2 °C 19,6 °C 61 % 69 % 1010,9 hPa 0,0 l/m² 2,3 km/h (1 Bft) NW 322 ° 1 min 710 W/m² 13,8 °C 19,6 °C 4,8 km/h (1 Bft)
28.08.2023 15:39 23,2 °C 19,7 °C 61 % 71 % 1010,9 hPa 0,0 l/m² 0,4 km/h (0 Bft) NW 322 ° 1 min 670 W/m² 14,3 °C 19,7 °C 3,2 km/h (1 Bft)
28.08.2023 15:41 23,2 °C 19,8 °C 61 % 67 % 1011,0 hPa 0,0 l/m² 2,7 km/h (1 Bft) N-NW 332 ° 2 min 670 W/m² 13,5 °C 19,8 °C 8,0 km/h (2 Bft)
28.08.2023 15:43 23,2 °C 19,7 °C 61 % 67 % 1010,9 hPa 0,0 l/m² 4,8 km/h (1 Bft) N-NW 340 ° 2 min 343 W/m² 13,4 °C 19,7 °C 8,0 km/h (2 Bft)
28.08.2023 15:45 23,2 °C 19,4 °C 61 % 66 % 1010,9 hPa 0,0 l/m² 4,1 km/h (1 Bft) N-NW 341 ° 2 min 378 W/m² 12,9 °C 19,4 °C 9,7 km/h (2 Bft)
28.08.2023 15:46 23,2 °C 19,3 °C 61 % 69 % 1011,1 hPa 0,0 l/m² 0,1 km/h (0 Bft) N-NW 340 ° 1 min 457 W/m² 13,5 °C 19,3 °C 1,6 km/h (1 Bft)
28.08.2023 15:47 23,2 °C 19,1 °C 61 % 68 % 1011,0 hPa 0,0 l/m² 1,8 km/h (1 Bft) N-NW 340 ° 1 min 527 W/m² 13,1 °C 19,1 °C 3,2 km/h (1 Bft)
28.08.2023 15:48 23,2 °C 18,9 °C 61 % 69 % 1011,1 hPa 0,0 l/m² 1,4 km/h (1 Bft) N-NW 340 ° 1 min 459 W/m² 13,1 °C 18,9 °C 4,8 km/h (1 Bft)
28.08.2023 15:49 23,2 °C 19,1 °C 61 % 70 % 1011,1 hPa 0,0 l/m² 2,3 km/h (1 Bft) N-NW 340 ° 1 min 446 W/m² 13,5 °C 19,1 °C 4,8 km/h (1 Bft)
28.08.2023 15:51 23,2 °C 19,1 °C 61 % 67 % 1011,1 hPa 0,0 l/m² 1,1 km/h (1 Bft) N-NW 340 ° 2 min 520 W/m² 12,8 °C 19,1 °C 3,2 km/h (1 Bft)
28.08.2023 15:53 23,2 °C 18,9 °C 61 % 69 % 1011,0 hPa 0,0 l/m² 4,4 km/h (1 Bft) N 5 ° 2 min 313 W/m² 13,1 °C 18,9 °C 16,1 km/h (3 Bft)
28.08.2023 15:54 23,2 °C 18,9 °C 61 % 68 % 1011,1 hPa 0,0 l/m² 4,6 km/h (1 Bft) N-NO 26 ° 1 min 308 W/m² 12,9 °C 18,9 °C 6,4 km/h (2 Bft)
28.08.2023 15:55 23,2 °C 19,0 °C 61 % 69 % 1011,0 hPa 0,0 l/m² 6,0 km/h (2 Bft) NO 51 ° 1 min 387 W/m² 13,2 °C 19,0 °C 8,0 km/h (2 Bft)
28.08.2023 15:56 23,2 °C 19,1 °C 61 % 69 % 1011,0 hPa 0,0 l/m² 6,5 km/h (2 Bft) N-NO 24 ° 1 min 297 W/m² 13,3 °C 19,1 °C 8,0 km/h (2 Bft)
28.08.2023 15:57 23,2 °C 19,1 °C 61 % 69 % 1011,0 hPa 0,0 l/m² 3,9 km/h (1 Bft) N-NO 29 ° 1 min 352 W/m² 13,3 °C 19,1 °C 6,4 km/h (2 Bft)
28.08.2023 15:58 23,2 °C 19,2 °C 61 % 69 % 1011,1 hPa 0,0 l/m² 1,9 km/h (1 Bft) N-NO 31 ° 1 min 352 W/m² 13,4 °C 19,2 °C 3,2 km/h (1 Bft)
28.08.2023 15:59 23,2 °C 19,3 °C 61 % 69 % 1011,0 hPa 0,0 l/m² 0,2 km/h (0 Bft) N-NO 31 ° 1 min 301 W/m² 13,5 °C 19,3 °C 1,6 km/h (1 Bft)
28.08.2023 16:01 23,2 °C 19,1 °C 61 % 67 % 1011,2 hPa 0,0 l/m² 1,4 km/h (1 Bft) NW 306 ° 2 min 281 W/m² 12,8 °C 19,1 °C 4,8 km/h (1 Bft)
28.08.2023 16:03 23,2 °C 19,2 °C 61 % 72 % 1011,2 hPa 0,0 l/m² 2,3 km/h (1 Bft) NW 322 ° 2 min 281 W/m² 14,0 °C 19,2 °C 4,8 km/h (1 Bft)
28.08.2023 16:04 23,2 °C 19,2 °C 61 % 71 % 1011,3 hPa 0,0 l/m² 0,0 km/h (0 Bft) NW 322 ° 1 min 276 W/m² 13,8 °C 19,2 °C 0,0 km/h (0 Bft)
28.08.2023 16:05 23,2 °C 19,1 °C 61 % 72 % 1011,2 hPa 0,0 l/m² 1,8 km/h (1 Bft) NW 322 ° 1 min 272 W/m² 13,9 °C 19,1 °C 3,2 km/h (1 Bft)
28.08.2023 16:06 23,2 °C 19,1 °C 61 % 70 % 1011,2 hPa 0,0 l/m² 0,8 km/h (0 Bft) NW 322 ° 1 min 267 W/m² 13,5 °C 19,1 °C 3,2 km/h (1 Bft)
28.08.2023 16:07 23,2 °C 19,1 °C 61 % 69 % 1011,2 hPa 0,0 l/m² 1,9 km/h (1 Bft) NW 322 ° 1 min 250 W/m² 13,3 °C 19,1 °C 3,2 km/h (1 Bft)
28.08.2023 16:08 23,2 °C 18,9 °C 61 % 67 % 1011,2 hPa 0,0 l/m² 0,0 km/h (0 Bft) NW 322 ° 1 min 239 W/m² 12,6 °C 18,9 °C 0,0 km/h (0 Bft)
28.08.2023 16:09 23,2 °C 18,8 °C 61 % 69 % 1011,2 hPa 0,0 l/m² 0,0 km/h (0 Bft) NW 322 ° 1 min 230 W/m² 13,0 °C 18,8 °C 0,0 km/h (0 Bft)
28.08.2023 16:11 23,2 °C 18,9 °C 61 % 69 % 1011,1 hPa 0,0 l/m² 0,0 km/h (0 Bft) NW 322 ° 2 min 214 W/m² 13,1 °C 18,9 °C 1,6 km/h (1 Bft)
28.08.2023 16:12 23,2 °C 18,8 °C 61 % 68 % 1011,1 hPa 0,0 l/m² 1,0 km/h (0 Bft) NW 322 ° 1 min 207 W/m² 12,8 °C 18,8 °C 3,2 km/h (1 Bft)
28.08.2023 16:13 23,2 °C 18,7 °C 61 % 71 % 1011,1 hPa 0,0 l/m² 1,2 km/h (1 Bft) NW 322 ° 1 min 207 W/m² 13,3 °C 18,7 °C 3,2 km/h (1 Bft)
28.08.2023 16:14 23,2 °C 18,7 °C 61 % 70 % 1011,1 hPa 0,0 l/m² 3,7 km/h (1 Bft) NW 322 ° 1 min 207 W/m² 13,1 °C 18,7 °C 6,4 km/h (2 Bft)
28.08.2023 16:15 23,1 °C 18,8 °C 61 % 69 % 1011,0 hPa 0,0 l/m² 4,1 km/h (1 Bft) NW 322 ° 1 min 209 W/m² 13,0 °C 18,8 °C 4,8 km/h (1 Bft)
28.08.2023 16:17 23,1 °C 18,8 °C 61 % 70 % 1011,0 hPa 0,0 l/m² 2,5 km/h (1 Bft) NW 323 ° 2 min 207 W/m² 13,2 °C 18,8 °C 4,8 km/h (1 Bft)
28.08.2023 16:18 23,1 °C 18,9 °C 61 % 69 % 1011,0 hPa 0,0 l/m² 2,0 km/h (1 Bft) NW 323 ° 1 min 204 W/m² 13,1 °C 18,9 °C 3,2 km/h (1 Bft)
28.08.2023 16:19 23,2 °C 18,9 °C 61 % 69 % 1011,0 hPa 0,0 l/m² 3,8 km/h (1 Bft) NW 323 ° 1 min 200 W/m² 13,1 °C 18,9 °C 6,4 km/h (2 Bft)
28.08.2023 16:21 23,1 °C 18,8 °C 61 % 69 % 1011,0 hPa 0,0 l/m² 4,0 km/h (1 Bft) N 360 ° 2 min 195 W/m² 13,0 °C 18,8 °C 8,0 km/h (2 Bft)
28.08.2023 16:23 23,1 °C 18,8 °C 61 % 69 % 1011,0 hPa 0,0 l/m² 2,3 km/h (1 Bft) N 349 ° 2 min 190 W/m² 13,0 °C 18,8 °C 4,8 km/h (1 Bft)
28.08.2023 16:24 23,1 °C 18,8 °C 61 % 70 % 1011,0 hPa 0,0 l/m² 3,7 km/h (1 Bft) N-NW 335 ° 1 min 188 W/m² 13,2 °C 18,8 °C 6,4 km/h (2 Bft)
28.08.2023 16:25 23,1 °C 18,9 °C 61 % 70 % 1010,9 hPa 0,0 l/m² 2,7 km/h (1 Bft) N-NW 335 ° 1 min 186 W/m² 13,3 °C 18,9 °C 4,8 km/h (1 Bft)
28.08.2023 16:27 23,1 °C 18,8 °C 61 % 68 % 1010,9 hPa 0,0 l/m² 3,3 km/h (1 Bft) N-NW 335 ° 2 min 185 W/m² 12,8 °C 18,8 °C 6,4 km/h (2 Bft)
28.08.2023 16:28 23,1 °C 18,8 °C 61 % 70 % 1010,9 hPa 0,0 l/m² 0,9 km/h (0 Bft) N-NW 335 ° 1 min 185 W/m² 13,2 °C 18,8 °C 3,2 km/h (1 Bft)
28.08.2023 16:29 23,1 °C 18,8 °C 61 % 69 % 1010,8 hPa 0,0 l/m² 5,8 km/h (2 Bft) N-NW 340 ° 1 min 186 W/m² 13,0 °C 18,8 °C 8,0 km/h (2 Bft)
28.08.2023 16:31 23,1 °C 18,8 °C 61 % 70 % 1010,8 hPa 0,0 l/m² 5,9 km/h (2 Bft) N-NW 336 ° 2 min 185 W/m² 13,2 °C 18,8 °C 9,7 km/h (2 Bft)
28.08.2023 16:33 23,1 °C 18,7 °C 61 % 68 % 1010,9 hPa 0,0 l/m² 7,5 km/h (2 Bft) N-NW 340 ° 2 min 178 W/m² 12,7 °C 18,2 °C 12,9 km/h (3 Bft)
28.08.2023 16:34 23,1 °C 18,7 °C 61 % 69 % 1010,9 hPa 0,0 l/m² 6,5 km/h (2 Bft) N-NW 339 ° 1 min 174 W/m² 12,9 °C 18,7 °C 9,7 km/h (2 Bft)
28.08.2023 16:35 23,1 °C 18,7 °C 61 % 69 % 1011,0 hPa 0,0 l/m² 5,7 km/h (2 Bft) N-NW 343 ° 1 min 171 W/m² 12,9 °C 18,7 °C 8,0 km/h (2 Bft)
28.08.2023 16:37 23,1 °C 18,6 °C 61 % 69 % 1010,9 hPa 0,0 l/m² 5,1 km/h (1 Bft) N 355 ° 2 min 167 W/m² 12,8 °C 18,6 °C 8,0 km/h (2 Bft)
28.08.2023 16:38 23,1 °C 18,6 °C 61 % 69 % 1010,9 hPa 0,0 l/m² 2,7 km/h (1 Bft) N 351 ° 1 min 167 W/m² 12,8 °C 18,6 °C 4,8 km/h (1 Bft)
28.08.2023 16:39 23,1 °C 18,6 °C 61 % 70 % 1011,0 hPa 0,0 l/m² 1,9 km/h (1 Bft) N 351 ° 1 min 167 W/m² 13,0 °C 18,6 °C 3,2 km/h (1 Bft)
28.08.2023 16:41 23,1 °C 18,7 °C 61 % 69 % 1011,1 hPa 0,0 l/m² 4,2 km/h (1 Bft) N 350 ° 2 min 165 W/m² 12,9 °C 18,7 °C 6,4 km/h (2 Bft)
28.08.2023 16:43 23,1 °C 18,6 °C 61 % 68 % 1011,2 hPa 0,0 l/m² 4,5 km/h (1 Bft) N 350 ° 2 min 162 W/m² 12,6 °C 18,6 °C 6,4 km/h (2 Bft)
28.08.2023 16:44 23,1 °C 18,6 °C 61 % 69 % 1011,2 hPa 0,0 l/m² 3,9 km/h (1 Bft) N 350 ° 1 min 162 W/m² 12,8 °C 18,6 °C 4,8 km/h (1 Bft)
28.08.2023 16:45 23,1 °C 18,6 °C 61 % 69 % 1011,3 hPa 0,0 l/m² 3,0 km/h (1 Bft) N 350 ° 1 min 162 W/m² 12,8 °C 18,6 °C 4,8 km/h (1 Bft)
28.08.2023 16:47 23,1 °C 18,5 °C 61 % 69 % 1011,4 hPa 0,0 l/m² 1,9 km/h (1 Bft) N 350 ° 2 min 146 W/m² 12,7 °C 18,5 °C 4,8 km/h (1 Bft)
28.08.2023 16:48 23,1 °C 18,5 °C 61 % 69 % 1011,4 hPa 0,0 l/m² 1,5 km/h (1 Bft) N 350 ° 1 min 139 W/m² 12,7 °C 18,5 °C 4,8 km/h (1 Bft)
28.08.2023 16:49 23,1 °C 18,6 °C 61 % 71 % 1011,4 hPa 0,0 l/m² 0,1 km/h (0 Bft) N 350 ° 1 min 137 W/m² 13,2 °C 18,6 °C 1,6 km/h (1 Bft)
28.08.2023 16:51 23,1 °C 18,6 °C 61 % 70 % 1011,3 hPa 0,0 l/m² 0,3 km/h (0 Bft) N 350 ° 2 min 142 W/m² 13,0 °C 18,6 °C 3,2 km/h (1 Bft)
28.08.2023 16:53 23,1 °C 18,6 °C 61 % 70 % 1011,3 hPa 0,0 l/m² 2,3 km/h (1 Bft) N 350 ° 2 min 148 W/m² 13,0 °C 18,6 °C 6,4 km/h (2 Bft)
28.08.2023 16:54 23,1 °C 18,5 °C 61 % 70 % 1011,3 hPa 0,0 l/m² 2,7 km/h (1 Bft) N 350 ° 1 min 148 W/m² 12,9 °C 18,5 °C 4,8 km/h (1 Bft)
28.08.2023 16:55 23,1 °C 18,6 °C 61 % 70 % 1011,3 hPa 0,0 l/m² 0,8 km/h (0 Bft) N 350 ° 1 min 148 W/m² 13,0 °C 18,6 °C 3,2 km/h (1 Bft)
28.08.2023 16:56 23,1 °C 18,6 °C 61 % 71 % 1011,4 hPa 0,0 l/m² 0,0 km/h (0 Bft) N 350 ° 1 min 146 W/m² 13,2 °C 18,6 °C 0,0 km/h (0 Bft)
28.08.2023 16:57 23,1 °C 18,7 °C 61 % 72 % 1011,4 hPa 0,0 l/m² 0,0 km/h (0 Bft) N 350 ° 1 min 142 W/m² 13,5 °C 18,7 °C 0,0 km/h (0 Bft)
28.08.2023 16:58 23,1 °C 18,7 °C 61 % 72 % 1011,4 hPa 0,0 l/m² 0,6 km/h (0 Bft) N 350 ° 1 min 139 W/m² 13,5 °C 18,7 °C 3,2 km/h (1 Bft)
28.08.2023 16:59 23,1 °C 18,7 °C 61 % 71 % 1011,4 hPa 0,0 l/m² 1,4 km/h (1 Bft) N 350 ° 1 min 130 W/m² 13,3 °C 18,7 °C 3,2 km/h (1 Bft)
28.08.2023 17:01 23,1 °C 18,6 °C 61 % 69 % 1011,4 hPa 0,0 l/m² 1,8 km/h (1 Bft) N 350 ° 2 min 130 W/m² 12,8 °C 18,6 °C 3,2 km/h (1 Bft)
28.08.2023 17:03 23,1 °C 18,6 °C 61 % 71 % 1011,3 hPa 0,0 l/m² 2,7 km/h (1 Bft) N 350 ° 2 min 130 W/m² 13,2 °C 18,6 °C 4,8 km/h (1 Bft)
28.08.2023 17:04 23,1 °C 18,6 °C 61 % 69 % 1011,3 hPa 0,0 l/m² 2,3 km/h (1 Bft) N 350 ° 1 min 130 W/m² 12,8 °C 18,6 °C 3,2 km/h (1 Bft)
28.08.2023 17:05 23,1 °C 18,6 °C 61 % 70 % 1011,2 hPa 0,0 l/m² 1,7 km/h (1 Bft) N 350 ° 1 min 130 W/m² 13,0 °C 18,6 °C 3,2 km/h (1 Bft)
28.08.2023 17:06 23,1 °C 18,6 °C 61 % 71 % 1011,3 hPa 0,0 l/m² 1,9 km/h (1 Bft) N 350 ° 1 min 132 W/m² 13,2 °C 18,6 °C 3,2 km/h (1 Bft)
28.08.2023 17:07 23,1 °C 18,6 °C 61 % 71 % 1011,1 hPa 0,0 l/m² 1,4 km/h (1 Bft) N 350 ° 1 min 134 W/m² 13,2 °C 18,6 °C 3,2 km/h (1 Bft)
28.08.2023 17:08 23,1 °C 18,6 °C 61 % 71 % 1011,2 hPa 0,0 l/m² 0,2 km/h (0 Bft) N 350 ° 1 min 134 W/m² 13,2 °C 18,6 °C 1,6 km/h (1 Bft)
28.08.2023 17:09 23,1 °C 18,7 °C 61 % 70 % 1011,1 hPa 0,0 l/m² 2,4 km/h (1 Bft) N 350 ° 1 min 135 W/m² 13,1 °C 18,7 °C 3,2 km/h (1 Bft)
28.08.2023 17:11 23,1 °C 18,6 °C 61 % 70 % 1011,0 hPa 0,0 l/m² 3,9 km/h (1 Bft) N 350 ° 2 min 135 W/m² 13,0 °C 18,6 °C 6,4 km/h (2 Bft)
28.08.2023 17:13 23,1 °C 18,6 °C 61 % 71 % 1011,0 hPa 0,0 l/m² 3,6 km/h (1 Bft) N 350 ° 2 min 134 W/m² 13,2 °C 18,6 °C 6,4 km/h (2 Bft)
28.08.2023 17:14 23,1 °C 18,6 °C 61 % 71 % 1010,9 hPa 0,0 l/m² 1,8 km/h (1 Bft) N 350 ° 1 min 134 W/m² 13,2 °C 18,6 °C 3,2 km/h (1 Bft)
28.08.2023 17:15 23,1 °C 18,6 °C 61 % 71 % 1010,9 hPa 0,0 l/m² 3,1 km/h (1 Bft) N 350 ° 1 min 132 W/m² 13,2 °C 18,6 °C 4,8 km/h (1 Bft)
28.08.2023 17:16 23,1 °C 18,6 °C 61 % 71 % 1011,0 hPa 0,0 l/m² 4,4 km/h (1 Bft) N 350 ° 1 min 130 W/m² 13,2 °C 18,6 °C 6,4 km/h (2 Bft)
28.08.2023 17:17 23,1 °C 18,6 °C 61 % 70 % 1011,0 hPa 0,0 l/m² 4,4 km/h (1 Bft) N 350 ° 1 min 127 W/m² 13,0 °C 18,6 °C 4,8 km/h (1 Bft)
28.08.2023 17:18 23,1 °C 18,4 °C 61 % 70 % 1011,0 hPa 0,0 l/m² 2,3 km/h (1 Bft) N 350 ° 1 min 123 W/m² 12,8 °C 18,4 °C 4,8 km/h (1 Bft)
28.08.2023 17:19 23,1 °C 18,5 °C 61 % 68 % 1010,9 hPa 0,0 l/m² 1,5 km/h (1 Bft) N 350 ° 1 min 121 W/m² 12,5 °C 18,5 °C 3,2 km/h (1 Bft)
28.08.2023 17:21 23,1 °C 18,4 °C 61 % 70 % 1010,9 hPa 0,0 l/m² 1,1 km/h (1 Bft) N 350 ° 2 min 120 W/m² 12,8 °C 18,4 °C 3,2 km/h (1 Bft)
28.08.2023 17:23 23,1 °C 18,4 °C 61 % 70 % 1011,0 hPa 0,0 l/m² 1,1 km/h (1 Bft) N 350 ° 2 min 127 W/m² 12,8 °C 18,4 °C 3,2 km/h (1 Bft)
28.08.2023 17:24 23,1 °C 18,4 °C 61 % 71 % 1010,9 hPa 0,0 l/m² 0,1 km/h (0 Bft) N 350 ° 1 min 130 W/m² 13,0 °C 18,4 °C 1,6 km/h (1 Bft)
28.08.2023 17:25 23,1 °C 18,5 °C 61 % 70 % 1011,0 hPa 0,0 l/m² 1,4 km/h (1 Bft) N 350 ° 1 min 134 W/m² 12,9 °C 18,5 °C 3,2 km/h (1 Bft)
28.08.2023 17:26 23,1 °C 18,5 °C 61 % 70 % 1010,9 hPa 0,0 l/m² 2,2 km/h (1 Bft) N 350 ° 1 min 135 W/m² 12,9 °C 18,5 °C 4,8 km/h (1 Bft)
28.08.2023 17:27 23,1 °C 18,5 °C 61 % 71 % 1011,0 hPa 0,0 l/m² 2,4 km/h (1 Bft) N 350 ° 1 min 135 W/m² 13,1 °C 18,5 °C 4,8 km/h (1 Bft)
28.08.2023 17:28 23,1 °C 18,6 °C 61 % 71 % 1011,0 hPa 0,0 l/m² 6,0 km/h (2 Bft) N 350 ° 1 min 135 W/m² 13,2 °C 18,6 °C 8,0 km/h (2 Bft)
28.08.2023 17:29 23,1 °C 18,6 °C 61 % 72 % 1011,0 hPa 0,0 l/m² 5,1 km/h (1 Bft) NO 48 ° 1 min 132 W/m² 13,4 °C 18,6 °C 6,4 km/h (2 Bft)
28.08.2023 17:31 23,1 °C 18,6 °C 61 % 72 % 1011,1 hPa 0,0 l/m² 3,9 km/h (1 Bft) O-NO 57 ° 2 min 125 W/m² 13,4 °C 18,6 °C 6,4 km/h (2 Bft)
28.08.2023 17:33 23,1 °C 18,6 °C 61 % 74 % 1011,1 hPa 0,0 l/m² 4,6 km/h (1 Bft) O-NO 58 ° 2 min 116 W/m² 13,9 °C 18,6 °C 6,4 km/h (2 Bft)
28.08.2023 17:34 23,1 °C 18,6 °C 61 % 75 % 1011,0 hPa 0,0 l/m² 5,1 km/h (1 Bft) O-NO 61 ° 1 min 113 W/m² 14,1 °C 18,6 °C 6,4 km/h (2 Bft)
28.08.2023 17:35 23,0 °C 18,6 °C 61 % 74 % 1011,0 hPa 0,0 l/m² 4,3 km/h (1 Bft) O-NO 61 ° 1 min 105 W/m² 13,9 °C 18,6 °C 4,8 km/h (1 Bft)
28.08.2023 17:36 23,0 °C 18,5 °C 61 % 73 % 1011,1 hPa 0,0 l/m² 3,8 km/h (1 Bft) O-NO 61 ° 1 min 102 W/m² 13,6 °C 18,5 °C 4,8 km/h (1 Bft)
28.08.2023 17:37 23,0 °C 18,4 °C 61 % 73 % 1011,1 hPa 0,0 l/m² 3,7 km/h (1 Bft) O-NO 61 ° 1 min 100 W/m² 13,5 °C 18,4 °C 4,8 km/h (1 Bft)
28.08.2023 17:38 23,1 °C 18,4 °C 61 % 74 % 1011,1 hPa 0,0 l/m² 3,9 km/h (1 Bft) O-NO 61 ° 1 min 98 W/m² 13,7 °C 18,4 °C 4,8 km/h (1 Bft)
28.08.2023 17:39 23,0 °C 18,4 °C 61 % 75 % 1011,1 hPa 0,0 l/m² 3,9 km/h (1 Bft) O-NO 61 ° 1 min 97 W/m² 13,9 °C 18,4 °C 4,8 km/h (1 Bft)
28.08.2023 17:41 23,0 °C 18,4 °C 61 % 73 % 1011,2 hPa 0,0 l/m² 3,1 km/h (1 Bft) O-NO 61 ° 2 min 95 W/m² 13,5 °C 18,4 °C 4,8 km/h (1 Bft)
28.08.2023 17:43 23,1 °C 18,4 °C 61 % 73 % 1011,1 hPa 0,0 l/m² 0,2 km/h (0 Bft) O-NO 61 ° 2 min 93 W/m² 13,5 °C 18,4 °C 1,6 km/h (1 Bft)
28.08.2023 17:44 23,0 °C 18,3 °C 61 % 71 % 1011,2 hPa 0,0 l/m² 0,0 km/h (0 Bft) O-NO 61 ° 1 min 93 W/m² 12,9 °C 18,3 °C 0,0 km/h (0 Bft)
28.08.2023 17:45 23,0 °C 18,3 °C 61 % 72 % 1011,2 hPa 0,0 l/m² 0,0 km/h (0 Bft) O-NO 61 ° 1 min 93 W/m² 13,2 °C 18,3 °C 0,0 km/h (0 Bft)
28.08.2023 17:46 23,0 °C 18,3 °C 61 % 74 % 1011,2 hPa 0,0 l/m² 0,0 km/h (0 Bft) O-NO 61 ° 1 min 95 W/m² 13,6 °C 18,3 °C 0,0 km/h (0 Bft)
28.08.2023 17:47 23,0 °C 18,3 °C 61 % 73 % 1011,1 hPa 0,0 l/m² 0,0 km/h (0 Bft) O-NO 61 ° 1 min 95 W/m² 13,4 °C 18,3 °C 0,0 km/h (0 Bft)
28.08.2023 17:48 23,1 °C 18,3 °C 61 % 74 % 1011,2 hPa 0,0 l/m² 0,5 km/h (0 Bft) O-NO 61 ° 1 min 95 W/m² 13,6 °C 18,3 °C 1,6 km/h (1 Bft)
28.08.2023 17:49 23,0 °C 18,3 °C 61 % 73 % 1011,1 hPa 0,0 l/m² 0,2 km/h (0 Bft) O-NO 61 ° 1 min 93 W/m² 13,4 °C 18,3 °C 1,6 km/h (1 Bft)
28.08.2023 17:51 23,0 °C 18,3 °C 61 % 71 % 1011,2 hPa 0,0 l/m² 3,0 km/h (1 Bft) NO 55 ° 2 min 93 W/m² 12,9 °C 18,3 °C 4,8 km/h (1 Bft)
28.08.2023 17:53 23,0 °C 18,3 °C 61 % 71 % 1011,3 hPa 0,0 l/m² 2,9 km/h (1 Bft) NO 55 ° 2 min 93 W/m² 12,9 °C 18,3 °C 4,8 km/h (1 Bft)
28.08.2023 17:54 23,0 °C 18,3 °C 61 % 71 % 1011,3 hPa 0,0 l/m² 0,2 km/h (0 Bft) NO 55 ° 1 min 91 W/m² 12,9 °C 18,3 °C 1,6 km/h (1 Bft)
28.08.2023 17:55 23,0 °C 18,3 °C 61 % 71 % 1011,2 hPa 0,0 l/m² 0,0 km/h (0 Bft) NO 55 ° 1 min 91 W/m² 12,9 °C 18,3 °C 0,0 km/h (0 Bft)
28.08.2023 17:56 23,0 °C 18,3 °C 61 % 73 % 1011,2 hPa 0,0 l/m² 0,4 km/h (0 Bft) NO 55 ° 1 min 90 W/m² 13,4 °C 18,3 °C 1,6 km/h (1 Bft)
28.08.2023 17:57 23,0 °C 18,3 °C 61 % 72 % 1011,2 hPa 0,0 l/m² 0,0 km/h (0 Bft) NO 55 ° 1 min 90 W/m² 13,2 °C 18,3 °C 0,0 km/h (0 Bft)
28.08.2023 17:58 23,0 °C 18,3 °C 61 % 72 % 1011,2 hPa 0,0 l/m² 0,0 km/h (0 Bft) NO 55 ° 1 min 88 W/m² 13,2 °C 18,3 °C 0,0 km/h (0 Bft)
28.08.2023 17:59 23,0 °C 18,3 °C 61 % 72 % 1011,3 hPa 0,0 l/m² 0,0 km/h (0 Bft) NO 55 ° 1 min 88 W/m² 13,2 °C 18,3 °C 0,0 km/h (0 Bft)
28.08.2023 18:00 23,0 °C 18,3 °C 61 % 72 % 1011,3 hPa 0,0 l/m² 0,0 km/h (0 Bft) NO 55 ° 1 min 86 W/m² 13,2 °C 18,3 °C 0,0 km/h (0 Bft)
28.08.2023 18:02 23,0 °C 18,3 °C 61 % 72 % 1011,3 hPa 0,0 l/m² 0,0 km/h (0 Bft) NO 55 ° 2 min 84 W/m² 13,2 °C 18,3 °C 0,0 km/h (0 Bft)
28.08.2023 18:03 23,0 °C 18,3 °C 61 % 71 % 1011,3 hPa 0,0 l/m² 0,0 km/h (0 Bft) NO 55 ° 1 min 84 W/m² 12,9 °C 18,3 °C 0,0 km/h (0 Bft)
28.08.2023 18:04 23,0 °C 18,3 °C 61 % 72 % 1011,3 hPa 0,0 l/m² 0,0 km/h (0 Bft) NO 55 ° 1 min 86 W/m² 13,2 °C 18,3 °C 0,0 km/h (0 Bft)
28.08.2023 18:05 23,0 °C 18,3 °C 61 % 72 % 1011,4 hPa 0,0 l/m² 0,0 km/h (0 Bft) NO 55 ° 1 min 86 W/m² 13,2 °C 18,3 °C 0,0 km/h (0 Bft)
28.08.2023 18:06 23,0 °C 18,3 °C 61 % 73 % 1011,4 hPa 0,0 l/m² 0,0 km/h (0 Bft) NO 55 ° 1 min 84 W/m² 13,4 °C 18,3 °C 0,0 km/h (0 Bft)
28.08.2023 18:07 23,0 °C 18,3 °C 61 % 73 % 1011,4 hPa 0,0 l/m² 0,0 km/h (0 Bft) NO 55 ° 1 min 84 W/m² 13,4 °C 18,3 °C 0,0 km/h (0 Bft)
28.08.2023 18:08 23,0 °C 18,3 °C 61 % 71 % 1011,4 hPa 0,0 l/m² 0,0 km/h (0 Bft) NO 55 ° 1 min 83 W/m² 12,9 °C 18,3 °C 0,0 km/h (0 Bft)
28.08.2023 18:09 23,0 °C 18,3 °C 61 % 71 % 1011,4 hPa 0,0 l/m² 0,0 km/h (0 Bft) NO 55 ° 1 min 83 W/m² 12,9 °C 18,3 °C 0,0 km/h (0 Bft)
28.08.2023 18:11 22,9 °C 18,2 °C 61 % 73 % 1011,4 hPa 0,0 l/m² 0,0 km/h (0 Bft) NO 55 ° 2 min 77 W/m² 13,3 °C 18,2 °C 0,0 km/h (0 Bft)
28.08.2023 18:13 22,9 °C 18,2 °C 61 % 75 % 1011,5 hPa 0,0 l/m² 0,0 km/h (0 Bft) NO 55 ° 2 min 72 W/m² 13,7 °C 18,2 °C 0,0 km/h (0 Bft)
28.08.2023 18:14 23,0 °C 18,2 °C 60 % 75 % 1011,5 hPa 0,0 l/m² 0,0 km/h (0 Bft) NO 55 ° 1 min 70 W/m² 13,7 °C 18,2 °C 0,0 km/h (0 Bft)
28.08.2023 18:15 23,0 °C 18,2 °C 60 % 75 % 1011,4 hPa 0,0 l/m² 0,0 km/h (0 Bft) NO 55 ° 1 min 67 W/m² 13,7 °C 18,2 °C 0,0 km/h (0 Bft)
28.08.2023 18:16 22,9 °C 18,2 °C 60 % 75 % 1011,3 hPa 0,0 l/m² 0,0 km/h (0 Bft) NO 55 ° 1 min 63 W/m² 13,7 °C 18,2 °C 0,0 km/h (0 Bft)
28.08.2023 18:17 23,0 °C 18,2 °C 60 % 75 % 1011,4 hPa 0,0 l/m² 0,0 km/h (0 Bft) NO 55 ° 1 min 63 W/m² 13,7 °C 18,2 °C 0,0 km/h (0 Bft)
28.08.2023 18:18 22,9 °C 18,2 °C 61 % 74 % 1011,3 hPa 0,0 l/m² 0,0 km/h (0 Bft) NO 55 ° 1 min 62 W/m² 13,5 °C 18,2 °C 0,0 km/h (0 Bft)
28.08.2023 18:19 22,9 °C 18,2 °C 61 % 74 % 1011,2 hPa 0,0 l/m² 0,0 km/h (0 Bft) NO 55 ° 1 min 62 W/m² 13,5 °C 18,2 °C 0,0 km/h (0 Bft)
28.08.2023 18:21 22,9 °C 18,1 °C 61 % 74 % 1011,1 hPa 0,0 l/m² 0,0 km/h (0 Bft) NO 55 ° 2 min 60 W/m² 13,4 °C 18,1 °C 0,0 km/h (0 Bft)
28.08.2023 18:23 22,9 °C 18,1 °C 61 % 74 % 1011,1 hPa 0,0 l/m² 0,0 km/h (0 Bft) NO 55 ° 2 min 58 W/m² 13,4 °C 18,1 °C 0,0 km/h (0 Bft)
28.08.2023 18:24 22,9 °C 18,0 °C 61 % 74 % 1011,0 hPa 0,0 l/m² 0,0 km/h (0 Bft) NO 55 ° 1 min 58 W/m² 13,3 °C 18,0 °C 0,0 km/h (0 Bft)
28.08.2023 18:25 23,0 °C 18,1 °C 61 % 72 % 1011,1 hPa 0,0 l/m² 0,0 km/h (0 Bft) NO 55 ° 1 min 58 W/m² 13,0 °C 18,1 °C 0,0 km/h (0 Bft)
28.08.2023 18:26 22,9 °C 18,0 °C 61 % 73 % 1011,1 hPa 0,0 l/m² 0,0 km/h (0 Bft) NO 55 ° 1 min 56 W/m² 13,1 °C 18,0 °C 0,0 km/h (0 Bft)
28.08.2023 18:27 22,9 °C 18,0 °C 61 % 73 % 1011,0 hPa 0,0 l/m² 0,0 km/h (0 Bft) NO 55 ° 1 min 56 W/m² 13,1 °C 18,0 °C 0,0 km/h (0 Bft)
28.08.2023 18:28 22,9 °C 18,0 °C 61 % 72 % 1011,1 hPa 0,0 l/m² 0,0 km/h (0 Bft) NO 55 ° 1 min 56 W/m² 12,9 °C 18,0 °C 0,0 km/h (0 Bft)
28.08.2023 18:29 23,0 °C 18,0 °C 61 % 72 % 1011,1 hPa 0,0 l/m² 0,6 km/h (0 Bft) NO 55 ° 1 min 56 W/m² 12,9 °C 18,0 °C 3,2 km/h (1 Bft)
28.08.2023 18:30 23,0 °C 18,0 °C 61 % 72 % 1011,1 hPa 0,0 l/m² 1,9 km/h (1 Bft) NO 55 ° 1 min 56 W/m² 12,9 °C 18,0 °C 3,2 km/h (1 Bft)
28.08.2023 18:32 23,0 °C 18,1 °C 61 % 71 % 1011,1 hPa 0,0 l/m² 0,4 km/h (0 Bft) NO 55 ° 2 min 56 W/m² 12,8 °C 18,1 °C 1,6 km/h (1 Bft)
28.08.2023 18:33 23,0 °C 18,0 °C 61 % 71 % 1011,1 hPa 0,0 l/m² 0,0 km/h (0 Bft) NO 55 ° 1 min 54 W/m² 12,7 °C 18,0 °C 0,0 km/h (0 Bft)
28.08.2023 18:34 22,9 °C 18,0 °C 61 % 71 % 1011,2 hPa 0,0 l/m² 0,0 km/h (0 Bft) NO 55 ° 1 min 54 W/m² 12,7 °C 18,0 °C 0,0 km/h (0 Bft)
28.08.2023 18:35 23,0 °C 18,1 °C 61 % 71 % 1011,1 hPa 0,0 l/m² 1,0 km/h (0 Bft) NO 55 ° 1 min 53 W/m² 12,8 °C 18,1 °C 1,6 km/h (1 Bft)
28.08.2023 18:36 23,0 °C 18,1 °C 61 % 70 % 1011,2 hPa 0,0 l/m² 0,0 km/h (0 Bft) NO 55 ° 0 min 51 W/m² 12,5 °C 18,1 °C 0,0 km/h (0 Bft)
28.08.2023 18:37 22,9 °C 18,1 °C 61 % 70 % 1011,2 hPa 0,0 l/m² 0,0 km/h (0 Bft) NO 55 ° 0 min 51 W/m² 12,5 °C 18,1 °C 0,0 km/h (0 Bft)
28.08.2023 18:38 23,0 °C 18,1 °C 62 % 71 % 1011,1 hPa 0,0 l/m² 0,0 km/h (0 Bft) NO 55 ° 0 min 51 W/m² 12,8 °C 18,1 °C 0,0 km/h (0 Bft)
28.08.2023 18:39 23,0 °C 18,0 °C 62 % 71 % 1011,1 hPa 0,0 l/m² 0,0 km/h (0 Bft) NO 55 ° 1 min 53 W/m² 12,7 °C 18,0 °C 0,0 km/h (0 Bft)
28.08.2023 18:41 23,0 °C 18,0 °C 62 % 72 % 1011,1 hPa 0,0 l/m² 0,0 km/h (0 Bft) NO 55 ° 2 min 53 W/m² 12,9 °C 18,0 °C 0,0 km/h (0 Bft)
28.08.2023 18:43 23,0 °C 17,9 °C 62 % 73 % 1011,1 hPa 0,0 l/m² 0,0 km/h (0 Bft) NO 55 ° 0 min 51 W/m² 13,0 °C 17,9 °C 0,0 km/h (0 Bft)
28.08.2023 18:44 23,0 °C 17,9 °C 62 % 73 % 1011,1 hPa 0,0 l/m² 0,0 km/h (0 Bft) NO 55 ° 0 min 49 W/m² 13,0 °C 17,9 °C 0,0 km/h (0 Bft)
28.08.2023 18:46 23,1 °C 18,0 °C 62 % 73 % 1011,1 hPa 0,0 l/m² 0,0 km/h (0 Bft) NO 55 ° 0 min 46 W/m² 13,1 °C 18,0 °C 0,0 km/h (0 Bft)
28.08.2023 18:47 23,0 °C 17,9 °C 62 % 73 % 1011,1 hPa 0,0 l/m² 0,0 km/h (0 Bft) NO 55 ° 0 min 44 W/m² 13,0 °C 17,9 °C 0,0 km/h (0 Bft)
28.08.2023 18:48 23,1 °C 17,9 °C 62 % 74 % 1011,1 hPa 0,0 l/m² 0,0 km/h (0 Bft) NO 55 ° 0 min 44 W/m² 13,2 °C 17,9 °C 0,0 km/h (0 Bft)
28.08.2023 18:49 23,0 °C 17,9 °C 62 % 74 % 1011,1 hPa 0,0 l/m² 0,0 km/h (0 Bft) NO 55 ° 0 min 42 W/m² 13,2 °C 17,9 °C 0,0 km/h (0 Bft)
28.08.2023 18:51 23,1 °C 17,9 °C 62 % 72 % 1011,0 hPa 0,0 l/m² 0,7 km/h (0 Bft) NO 55 ° 0 min 40 W/m² 12,8 °C 17,9 °C 3,2 km/h (1 Bft)
28.08.2023 18:53 23,1 °C 17,9 °C 62 % 72 % 1011,0 hPa 0,0 l/m² 0,0 km/h (0 Bft) NO 55 ° 0 min 40 W/m² 12,8 °C 17,9 °C 0,0 km/h (0 Bft)
28.08.2023 18:54 23,1 °C 17,9 °C 62 % 71 % 1010,9 hPa 0,0 l/m² 0,0 km/h (0 Bft) NO 55 ° 0 min 40 W/m² 12,6 °C 17,9 °C 0,0 km/h (0 Bft)
28.08.2023 18:55 23,1 °C 17,9 °C 62 % 72 % 1010,9 hPa 0,0 l/m² 0,0 km/h (0 Bft) NO 55 ° 0 min 39 W/m² 12,8 °C 17,9 °C 0,0 km/h (0 Bft)
28.08.2023 18:56 23,1 °C 17,9 °C 62 % 72 % 1011,0 hPa 0,0 l/m² 0,0 km/h (0 Bft) NO 55 ° 0 min 39 W/m² 12,8 °C 17,9 °C 0,0 km/h (0 Bft)
28.08.2023 18:57 23,1 °C 17,9 °C 62 % 73 % 1011,0 hPa 0,0 l/m² 0,0 km/h (0 Bft) NO 55 ° 0 min 35 W/m² 13,0 °C 17,9 °C 0,0 km/h (0 Bft)
28.08.2023 18:58 23,1 °C 17,9 °C 62 % 73 % 1011,0 hPa 0,0 l/m² 0,3 km/h (0 Bft) NO 55 ° 0 min 35 W/m² 13,0 °C 17,9 °C 1,6 km/h (1 Bft)
28.08.2023 18:59 23,1 °C 17,8 °C 62 % 73 % 1011,0 hPa 0,0 l/m² 0,0 km/h (0 Bft) NO 55 ° 0 min 33 W/m² 12,9 °C 17,8 °C 0,0 km/h (0 Bft)
28.08.2023 19:01 23,1 °C 17,8 °C 62 % 74 % 1011,1 hPa 0,0 l/m² 0,0 km/h (0 Bft) NO 55 ° 0 min 32 W/m² 13,1 °C 17,8 °C 0,0 km/h (0 Bft)
28.08.2023 19:03 23,1 °C 17,8 °C 62 % 73 % 1011,1 hPa 0,0 l/m² 0,0 km/h (0 Bft) NO 55 ° 0 min 28 W/m² 12,9 °C 17,8 °C 0,0 km/h (0 Bft)
28.08.2023 19:04 23,1 °C 17,8 °C 62 % 73 % 1011,0 hPa 0,0 l/m² 0,0 km/h (0 Bft) NO 55 ° 0 min 28 W/m² 12,9 °C 17,8 °C 0,0 km/h (0 Bft)
28.08.2023 19:05 23,1 °C 17,8 °C 62 % 73 % 1011,0 hPa 0,0 l/m² 0,0 km/h (0 Bft) NO 55 ° 0 min 28 W/m² 12,9 °C 17,8 °C 0,0 km/h (0 Bft)
28.08.2023 19:06 23,1 °C 17,8 °C 62 % 74 % 1010,9 hPa 0,0 l/m² 0,0 km/h (0 Bft) NO 55 ° 0 min 26 W/m² 13,1 °C 17,8 °C 0,0 km/h (0 Bft)
28.08.2023 19:07 23,1 °C 17,7 °C 62 % 75 % 1010,9 hPa 0,0 l/m² 0,0 km/h (0 Bft) NO 55 ° 0 min 26 W/m² 13,2 °C 17,7 °C 0,0 km/h (0 Bft)
28.08.2023 19:08 23,1 °C 17,7 °C 62 % 75 % 1010,9 hPa 0,0 l/m² 0,0 km/h (0 Bft) NO 55 ° 0 min 26 W/m² 13,2 °C 17,7 °C 0,0 km/h (0 Bft)
28.08.2023 19:09 23,1 °C 17,7 °C 62 % 74 % 1010,9 hPa 0,0 l/m² 0,0 km/h (0 Bft) NO 55 ° 0 min 26 W/m² 13,0 °C 17,7 °C 0,0 km/h (0 Bft)
28.08.2023 19:11 23,1 °C 17,7 °C 62 % 73 % 1010,9 hPa 0,0 l/m² 0,0 km/h (0 Bft) NO 55 ° 0 min 26 W/m² 12,8 °C 17,7 °C 0,0 km/h (0 Bft)
28.08.2023 19:12 23,1 °C 17,7 °C 62 % 73 % 1010,9 hPa 0,0 l/m² 0,0 km/h (0 Bft) NO 55 ° 0 min 25 W/m² 12,8 °C 17,7 °C 0,0 km/h (0 Bft)
28.08.2023 19:13 23,1 °C 17,7 °C 62 % 73 % 1010,9 hPa 0,0 l/m² 0,0 km/h (0 Bft) NO 55 ° 0 min 25 W/m² 12,8 °C 17,7 °C 0,0 km/h (0 Bft)
28.08.2023 19:14 23,1 °C 17,7 °C 62 % 74 % 1010,9 hPa 0,0 l/m² 0,0 km/h (0 Bft) NO 55 ° 0 min 25 W/m² 13,0 °C 17,7 °C 0,0 km/h (0 Bft)
28.08.2023 19:15 23,1 °C 17,7 °C 62 % 74 % 1010,8 hPa 0,0 l/m² 0,0 km/h (0 Bft) NO 55 ° 0 min 23 W/m² 13,0 °C 17,7 °C 0,0 km/h (0 Bft)
28.08.2023 19:16 23,1 °C 17,7 °C 62 % 74 % 1010,8 hPa 0,0 l/m² 0,0 km/h (0 Bft) NO 55 ° 0 min 23 W/m² 13,0 °C 17,7 °C 0,0 km/h (0 Bft)
28.08.2023 19:17 23,1 °C 17,7 °C 62 % 74 % 1010,8 hPa 0,0 l/m² 0,0 km/h (0 Bft) NO 55 ° 0 min 23 W/m² 13,0 °C 17,7 °C 0,0 km/h (0 Bft)
28.08.2023 19:18 23,1 °C 17,7 °C 62 % 74 % 1010,9 hPa 0,0 l/m² 0,0 km/h (0 Bft) NO 55 ° 0 min 21 W/m² 13,0 °C 17,7 °C 0,0 km/h (0 Bft)
28.08.2023 19:19 23,1 °C 17,7 °C 62 % 75 % 1010,9 hPa 0,0 l/m² 0,0 km/h (0 Bft) NO 55 ° 0 min 21 W/m² 13,2 °C 17,7 °C 0,0 km/h (0 Bft)
28.08.2023 19:21 23,1 °C 17,7 °C 62 % 78 % 1010,9 hPa 0,0 l/m² 0,0 km/h (0 Bft) NO 55 ° 0 min 19 W/m² 13,8 °C 17,7 °C 0,0 km/h (0 Bft)
28.08.2023 19:23 23,1 °C 17,6 °C 62 % 81 % 1010,9 hPa 0,0 l/m² 0,0 km/h (0 Bft) NO 55 ° 0 min 19 W/m² 14,3 °C 17,6 °C 0,0 km/h (0 Bft)
28.08.2023 19:24 23,1 °C 17,5 °C 62 % 82 % 1011,0 hPa 0,0 l/m² 0,0 km/h (0 Bft) NO 55 ° 0 min 18 W/m² 14,4 °C 17,5 °C 0,0 km/h (0 Bft)
28.08.2023 19:25 23,1 °C 17,4 °C 62 % 83 % 1011,0 hPa 0,0 l/m² 0,0 km/h (0 Bft) NO 55 ° 0 min 18 W/m² 14,5 °C 17,4 °C 0,0 km/h (0 Bft)
28.08.2023 19:26 23,1 °C 17,4 °C 62 % 83 % 1011,0 hPa 0,0 l/m² 0,0 km/h (0 Bft) NO 55 ° 0 min 16 W/m² 14,5 °C 17,4 °C 0,0 km/h (0 Bft)
28.08.2023 19:27 23,1 °C 17,3 °C 62 % 83 % 1011,0 hPa 0,0 l/m² 0,0 km/h (0 Bft) NO 55 ° 0 min 16 W/m² 14,4 °C 17,3 °C 0,0 km/h (0 Bft)
28.08.2023 19:28 23,1 °C 17,3 °C 62 % 84 % 1011,1 hPa 0,0 l/m² 0,0 km/h (0 Bft) NO 55 ° 0 min 16 W/m² 14,6 °C 17,3 °C 0,0 km/h (0 Bft)
28.08.2023 19:29 23,1 °C 17,2 °C 62 % 84 % 1011,0 hPa 0,0 l/m² 0,0 km/h (0 Bft) NO 55 ° 0 min 16 W/m² 14,5 °C 17,2 °C 0,0 km/h (0 Bft)
28.08.2023 19:31 23,1 °C 17,1 °C 62 % 83 % 1011,1 hPa 0,0 l/m² 0,0 km/h (0 Bft) NO 55 ° 0 min 14 W/m² 14,2 °C 17,1 °C 0,0 km/h (0 Bft)
28.08.2023 19:33 23,1 °C 17,1 °C 62 % 83 % 1011,1 hPa 0,0 l/m² 0,0 km/h (0 Bft) NO 55 ° 0 min 14 W/m² 14,2 °C 17,1 °C 0,0 km/h (0 Bft)
28.08.2023 19:34 23,1 °C 17,1 °C 62 % 83 % 1011,1 hPa 0,0 l/m² 0,0 km/h (0 Bft) NO 55 ° 0 min 14 W/m² 14,2 °C 17,1 °C 0,0 km/h (0 Bft)
28.08.2023 19:35 23,1 °C 17,1 °C 62 % 83 % 1011,1 hPa 0,0 l/m² 0,0 km/h (0 Bft) NO 55 ° 0 min 14 W/m² 14,2 °C 17,1 °C 0,0 km/h (0 Bft)
28.08.2023 19:36 23,1 °C 17,1 °C 62 % 83 % 1011,1 hPa 0,0 l/m² 0,0 km/h (0 Bft) NO 55 ° 0 min 14 W/m² 14,2 °C 17,1 °C 0,0 km/h (0 Bft)
28.08.2023 19:37 23,1 °C 17,1 °C 62 % 83 % 1011,1 hPa 0,0 l/m² 0,0 km/h (0 Bft) NO 55 ° 0 min 12 W/m² 14,2 °C 17,1 °C 0,0 km/h (0 Bft)
28.08.2023 19:38 23,1 °C 17,1 °C 62 % 82 % 1011,1 hPa 0,0 l/m² 0,0 km/h (0 Bft) NO 55 ° 0 min 12 W/m² 14,0 °C 17,1 °C 0,0 km/h (0 Bft)
28.08.2023 19:39 23,1 °C 17,1 °C 62 % 83 % 1011,1 hPa 0,0 l/m² 0,0 km/h (0 Bft) NO 55 ° 0 min 12 W/m² 14,2 °C 17,1 °C 0,0 km/h (0 Bft)
28.08.2023 19:41 23,1 °C 17,0 °C 62 % 83 % 1011,0 hPa 0,0 l/m² 0,0 km/h (0 Bft) NO 55 ° 0 min 11 W/m² 14,1 °C 17,0 °C 0,0 km/h (0 Bft)
28.08.2023 19:43 23,1 °C 16,9 °C 62 % 83 % 1010,9 hPa 0,0 l/m² 0,3 km/h (0 Bft) NO 55 ° 0 min 9 W/m² 14,0 °C 16,9 °C 3,2 km/h (1 Bft)
28.08.2023 19:44 23,1 °C 16,9 °C 62 % 83 % 1010,9 hPa 0,0 l/m² 1,2 km/h (1 Bft) NO 55 ° 0 min 9 W/m² 14,0 °C 16,9 °C 1,6 km/h (1 Bft)
28.08.2023 19:45 23,1 °C 16,9 °C 62 % 83 % 1010,9 hPa 0,0 l/m² 1,8 km/h (1 Bft) NO 55 ° 0 min 9 W/m² 14,0 °C 16,9 °C 3,2 km/h (1 Bft)
28.08.2023 19:47 23,1 °C 16,9 °C 62 % 83 % 1010,8 hPa 0,0 l/m² 1,5 km/h (1 Bft) NO 55 ° 0 min 7 W/m² 14,0 °C 16,9 °C 3,2 km/h (1 Bft)
28.08.2023 19:48 23,1 °C 16,9 °C 62 % 83 % 1010,8 hPa 0,0 l/m² 1,9 km/h (1 Bft) NO 55 ° 0 min 7 W/m² 14,0 °C 16,9 °C 3,2 km/h (1 Bft)
28.08.2023 19:49 23,0 °C 16,9 °C 62 % 83 % 1010,8 hPa 0,0 l/m² 1,7 km/h (1 Bft) NO 55 ° 0 min 7 W/m² 14,0 °C 16,9 °C 3,2 km/h (1 Bft)
28.08.2023 19:51 23,1 °C 16,9 °C 62 % 82 % 1010,9 hPa 0,0 l/m² 0,4 km/h (0 Bft) NO 55 ° 0 min 5 W/m² 13,8 °C 16,9 °C 1,6 km/h (1 Bft)
28.08.2023 19:53 23,0 °C 16,9 °C 62 % 82 % 1010,9 hPa 0,0 l/m² 0,0 km/h (0 Bft) NO 55 ° 0 min 5 W/m² 13,8 °C 16,9 °C 0,0 km/h (0 Bft)
28.08.2023 19:54 23,1 °C 16,9 °C 62 % 81 % 1011,0 hPa 0,0 l/m² 0,0 km/h (0 Bft) NO 55 ° 0 min 5 W/m² 13,6 °C 16,9 °C 0,0 km/h (0 Bft)
28.08.2023 19:55 23,0 °C 16,9 °C 62 % 82 % 1011,0 hPa 0,0 l/m² 0,0 km/h (0 Bft) NO 55 ° 0 min 5 W/m² 13,8 °C 16,9 °C 0,0 km/h (0 Bft)
28.08.2023 19:57 23,0 °C 16,9 °C 62 % 83 % 1011,1 hPa 0,0 l/m² 0,0 km/h (0 Bft) NO 55 ° 0 min 0 W/m² 14,0 °C 16,9 °C 0,0 km/h (0 Bft)
28.08.2023 19:58 23,0 °C 16,9 °C 62 % 83 % 1011,1 hPa 0,0 l/m² 0,0 km/h (0 Bft) NO 55 ° 0 min 0 W/m² 14,0 °C 16,9 °C 0,0 km/h (0 Bft)
28.08.2023 19:59 23,0 °C 16,9 °C 62 % 84 % 1011,1 hPa 0,0 l/m² 0,0 km/h (0 Bft) NO 55 ° 0 min 0 W/m² 14,2 °C 16,9 °C 0,0 km/h (0 Bft)
28.08.2023 20:01 23,1 °C 16,8 °C 62 % 84 % 1011,1 hPa 0,0 l/m² 0,0 km/h (0 Bft) NO 55 ° 0 min 0 W/m² 14,1 °C 16,8 °C 0,0 km/h (0 Bft)
28.08.2023 20:03 23,1 °C 16,8 °C 62 % 84 % 1011,1 hPa 0,0 l/m² 0,0 km/h (0 Bft) NO 55 ° 0 min 5 W/m² 14,1 °C 16,8 °C 0,0 km/h (0 Bft)
28.08.2023 20:04 23,0 °C 16,7 °C 62 % 84 % 1011,0 hPa 0,0 l/m² 0,0 km/h (0 Bft) NO 55 ° 0 min 5 W/m² 14,0 °C 16,7 °C 0,0 km/h (0 Bft)
28.08.2023 20:05 23,1 °C 16,7 °C 62 % 83 % 1011,0 hPa 0,0 l/m² 0,0 km/h (0 Bft) NO 55 ° 0 min 5 W/m² 13,8 °C 16,7 °C 0,0 km/h (0 Bft)
28.08.2023 20:06 23,1 °C 16,7 °C 62 % 83 % 1011,0 hPa 0,0 l/m² 0,0 km/h (0 Bft) NO 55 ° 0 min 5 W/m² 13,8 °C 16,7 °C 0,0 km/h (0 Bft)
28.08.2023 20:07 23,1 °C 16,7 °C 62 % 83 % 1010,9 hPa 0,0 l/m² 0,0 km/h (0 Bft) NO 55 ° 0 min 0 W/m² 13,8 °C 16,7 °C 0,0 km/h (0 Bft)
28.08.2023 20:08 23,1 °C 16,7 °C 62 % 83 % 1011,0 hPa 0,0 l/m² 0,0 km/h (0 Bft) NO 55 ° 0 min 0 W/m² 13,8 °C 16,7 °C 0,0 km/h (0 Bft)
28.08.2023 20:09 23,1 °C 16,7 °C 62 % 83 % 1010,9 hPa 0,0 l/m² 0,1 km/h (0 Bft) NO 55 ° 0 min 0 W/m² 13,8 °C 16,7 °C 1,6 km/h (1 Bft)
28.08.2023 20:11 23,1 °C 16,7 °C 62 % 84 % 1010,9 hPa 0,0 l/m² 2,1 km/h (1 Bft) NO 55 ° 0 min 0 W/m² 14,0 °C 16,7 °C 3,2 km/h (1 Bft)
28.08.2023 20:13 23,1 °C 16,6 °C 62 % 85 % 1010,9 hPa 0,0 l/m² 3,1 km/h (1 Bft) NO 55 ° 0 min 0 W/m² 14,1 °C 16,6 °C 3,2 km/h (1 Bft)
28.08.2023 20:14 23,1 °C 16,6 °C 62 % 85 % 1011,0 hPa 0,0 l/m² 2,6 km/h (1 Bft) NO 55 ° 0 min 0 W/m² 14,1 °C 16,6 °C 3,2 km/h (1 Bft)
28.08.2023 20:15 23,1 °C 16,5 °C 62 % 86 % 1010,9 hPa 0,0 l/m² 3,1 km/h (1 Bft) NO 55 ° 0 min 0 W/m² 14,1 °C 16,5 °C 3,2 km/h (1 Bft)
28.08.2023 20:16 23,1 °C 16,4 °C 62 % 86 % 1010,9 hPa 0,0 l/m² 2,6 km/h (1 Bft) NO 55 ° 0 min 0 W/m² 14,1 °C 16,4 °C 3,2 km/h (1 Bft)
28.08.2023 20:17 23,1 °C 16,4 °C 62 % 86 % 1011,0 hPa 0,0 l/m² 2,2 km/h (1 Bft) NO 55 ° 0 min 0 W/m² 14,1 °C 16,4 °C 3,2 km/h (1 Bft)
28.08.2023 20:18 23,1 °C 16,4 °C 62 % 87 % 1011,0 hPa 0,0 l/m² 2,4 km/h (1 Bft) NO 55 ° 0 min 0 W/m² 14,2 °C 16,4 °C 3,2 km/h (1 Bft)
28.08.2023 20:19 23,1 °C 16,4 °C 62 % 87 % 1011,0 hPa 0,0 l/m² 1,7 km/h (1 Bft) NO 55 ° 0 min 0 W/m² 14,2 °C 16,4 °C 3,2 km/h (1 Bft)
28.08.2023 20:20 23,1 °C 16,3 °C 62 % 87 % 1011,1 hPa 0,0 l/m² 1,9 km/h (1 Bft) NO 55 ° 0 min 0 W/m² 14,1 °C 16,3 °C 3,2 km/h (1 Bft)
28.08.2023 20:22 23,1 °C 16,3 °C 62 % 87 % 1011,2 hPa 0,0 l/m² 3,0 km/h (1 Bft) NO 55 ° 0 min 0 W/m² 14,1 °C 16,3 °C 3,2 km/h (1 Bft)
28.08.2023 20:23 23,1 °C 16,3 °C 62 % 87 % 1011,1 hPa 0,0 l/m² 2,7 km/h (1 Bft) NO 55 ° 0 min 0 W/m² 14,1 °C 16,3 °C 4,8 km/h (1 Bft)
28.08.2023 20:24 23,1 °C 16,2 °C 62 % 87 % 1011,2 hPa 0,0 l/m² 1,6 km/h (1 Bft) NO 55 ° 0 min 0 W/m² 14,0 °C 16,2 °C 3,2 km/h (1 Bft)
28.08.2023 20:25 23,1 °C 16,2 °C 62 % 87 % 1011,2 hPa 0,0 l/m² 1,0 km/h (0 Bft) NO 55 ° 0 min 0 W/m² 14,0 °C 16,2 °C 3,2 km/h (1 Bft)
28.08.2023 20:26 23,1 °C 16,2 °C 62 % 87 % 1011,1 hPa 0,0 l/m² 1,9 km/h (1 Bft) NO 55 ° 0 min 0 W/m² 14,0 °C 16,2 °C 3,2 km/h (1 Bft)
28.08.2023 20:27 23,1 °C 16,2 °C 62 % 87 % 1011,1 hPa 0,0 l/m² 2,8 km/h (1 Bft) NO 55 ° 0 min 0 W/m² 14,0 °C 16,2 °C 4,8 km/h (1 Bft)
28.08.2023 20:28 23,1 °C 16,2 °C 62 % 86 % 1011,1 hPa 0,0 l/m² 2,2 km/h (1 Bft) NO 55 ° 0 min 0 W/m² 13,9 °C 16,2 °C 3,2 km/h (1 Bft)
28.08.2023 20:29 23,1 °C 16,2 °C 62 % 86 % 1011,2 hPa 0,0 l/m² 2,6 km/h (1 Bft) NO 55 ° 0 min 0 W/m² 13,9 °C 16,2 °C 3,2 km/h (1 Bft)
28.08.2023 20:31 23,1 °C 16,2 °C 62 % 86 % 1011,1 hPa 0,0 l/m² 2,4 km/h (1 Bft) NO 55 ° 0 min 0 W/m² 13,9 °C 16,2 °C 4,8 km/h (1 Bft)
28.08.2023 20:33 23,1 °C 16,2 °C 62 % 86 % 1011,0 hPa 0,0 l/m² 1,6 km/h (1 Bft) NO 55 ° 0 min 0 W/m² 13,9 °C 16,2 °C 4,8 km/h (1 Bft)
28.08.2023 20:34 23,1 °C 16,2 °C 62 % 85 % 1011,1 hPa 0,0 l/m² 2,2 km/h (1 Bft) NO 55 ° 0 min 0 W/m² 13,7 °C 16,2 °C 3,2 km/h (1 Bft)
28.08.2023 20:35 23,1 °C 16,2 °C 62 % 85 % 1011,1 hPa 0,0 l/m² 1,4 km/h (1 Bft) NO 55 ° 0 min 0 W/m² 13,7 °C 16,2 °C 3,2 km/h (1 Bft)
28.08.2023 20:36 23,1 °C 16,2 °C 62 % 85 % 1011,1 hPa 0,0 l/m² 1,0 km/h (0 Bft) NO 55 ° 0 min 0 W/m² 13,7 °C 16,2 °C 1,6 km/h (1 Bft)
28.08.2023 20:37 23,1 °C 16,3 °C 62 % 85 % 1011,1 hPa 0,0 l/m² 0,1 km/h (0 Bft) NO 55 ° 0 min 0 W/m² 13,8 °C 16,3 °C 1,6 km/h (1 Bft)
28.08.2023 20:38 23,1 °C 16,3 °C 62 % 85 % 1011,1 hPa 0,0 l/m² 0,0 km/h (0 Bft) NO 55 ° 0 min 0 W/m² 13,8 °C 16,3 °C 0,0 km/h (0 Bft)
28.08.2023 20:39 23,1 °C 16,3 °C 62 % 85 % 1011,0 hPa 0,0 l/m² 0,0 km/h (0 Bft) NO 55 ° 0 min 0 W/m² 13,8 °C 16,3 °C 0,0 km/h (0 Bft)
28.08.2023 20:41 23,1 °C 16,3 °C 62 % 85 % 1011,0 hPa 0,0 l/m² 0,0 km/h (0 Bft) NO 55 ° 0 min 0 W/m² 13,8 °C 16,3 °C 1,6 km/h (1 Bft)
28.08.2023 20:43 23,1 °C 16,3 °C 62 % 85 % 1011,1 hPa 0,0 l/m² 0,0 km/h (0 Bft) NO 55 ° 0 min 0 W/m² 13,8 °C 16,3 °C 0,0 km/h (0 Bft)
28.08.2023 20:44 23,1 °C 16,3 °C 62 % 85 % 1011,1 hPa 0,0 l/m² 0,0 km/h (0 Bft) NO 55 ° 0 min 0 W/m² 13,8 °C 16,3 °C 0,0 km/h (0 Bft)
28.08.2023 20:45 23,1 °C 16,3 °C 62 % 85 % 1011,2 hPa 0,0 l/m² 0,0 km/h (0 Bft) NO 55 ° 0 min 0 W/m² 13,8 °C 16,3 °C 0,0 km/h (0 Bft)
28.08.2023 20:46 23,1 °C 16,3 °C 62 % 85 % 1011,2 hPa 0,0 l/m² 0,0 km/h (0 Bft) NO 55 ° 0 min 0 W/m² 13,8 °C 16,3 °C 0,0 km/h (0 Bft)
28.08.2023 20:47 23,1 °C 16,3 °C 62 % 85 % 1011,1 hPa 0,0 l/m² 0,0 km/h (0 Bft) NO 55 ° 0 min 0 W/m² 13,8 °C 16,3 °C 0,0 km/h (0 Bft)
28.08.2023 20:48 23,1 °C 16,3 °C 62 % 85 % 1011,1 hPa 0,0 l/m² 0,0 km/h (0 Bft) NO 55 ° 0 min 0 W/m² 13,8 °C 16,3 °C 0,0 km/h (0 Bft)
28.08.2023 20:49 23,1 °C 16,3 °C 62 % 85 % 1011,2 hPa 0,0 l/m² 0,0 km/h (0 Bft) NO 55 ° 0 min 0 W/m² 13,8 °C 16,3 °C 0,0 km/h (0 Bft)
28.08.2023 20:51 23,1 °C 16,3 °C 62 % 85 % 1011,2 hPa 0,0 l/m² 0,0 km/h (0 Bft) NO 55 ° 0 min 0 W/m² 13,8 °C 16,3 °C 0,0 km/h (0 Bft)
28.08.2023 20:53 23,1 °C 16,2 °C 62 % 86 % 1011,3 hPa 0,0 l/m² 0,0 km/h (0 Bft) NO 55 ° 0 min 0 W/m² 13,9 °C 16,2 °C 0,0 km/h (0 Bft)
28.08.2023 20:54 23,1 °C 16,2 °C 62 % 86 % 1011,2 hPa 0,0 l/m² 0,0 km/h (0 Bft) NO 55 ° 0 min 0 W/m² 13,9 °C 16,2 °C 0,0 km/h (0 Bft)
28.08.2023 20:55 23,1 °C 16,1 °C 62 % 86 % 1011,2 hPa 0,0 l/m² 0,0 km/h (0 Bft) NO 55 ° 0 min 0 W/m² 13,8 °C 16,1 °C 0,0 km/h (0 Bft)
28.08.2023 20:56 23,1 °C 16,1 °C 62 % 86 % 1011,1 hPa 0,0 l/m² 0,0 km/h (0 Bft) NO 55 ° 0 min 0 W/m² 13,8 °C 16,1 °C 0,0 km/h (0 Bft)
28.08.2023 20:57 23,1 °C 16,1 °C 62 % 86 % 1011,2 hPa 0,0 l/m² 0,0 km/h (0 Bft) NO 55 ° 0 min 0 W/m² 13,8 °C 16,1 °C 0,0 km/h (0 Bft)
28.08.2023 20:58 23,1 °C 16,1 °C 62 % 86 % 1011,2 hPa 0,0 l/m² 0,0 km/h (0 Bft) NO 55 ° 0 min 0 W/m² 13,8 °C 16,1 °C 0,0 km/h (0 Bft)
28.08.2023 20:59 23,1 °C 16,1 °C 62 % 86 % 1011,2 hPa 0,0 l/m² 0,0 km/h (0 Bft) NO 55 ° 0 min 0 W/m² 13,8 °C 16,1 °C 0,0 km/h (0 Bft)
28.08.2023 21:01 23,2 °C 16,1 °C 62 % 87 % 1011,2 hPa 0,0 l/m² 0,0 km/h (0 Bft) NO 55 ° 0 min 0 W/m² 13,9 °C 16,1 °C 0,0 km/h (0 Bft)
28.08.2023 21:03 23,2 °C 16,1 °C 62 % 86 % 1011,2 hPa 0,0 l/m² 0,0 km/h (0 Bft) NO 55 ° 0 min 0 W/m² 13,8 °C 16,1 °C 0,0 km/h (0 Bft)
28.08.2023 21:04 23,2 °C 16,1 °C 62 % 86 % 1011,2 hPa 0,0 l/m² 0,0 km/h (0 Bft) NO 55 ° 0 min 0 W/m² 13,8 °C 16,1 °C 0,0 km/h (0 Bft)
28.08.2023 21:05 23,2 °C 16,1 °C 62 % 86 % 1011,2 hPa 0,0 l/m² 0,0 km/h (0 Bft) NO 55 ° 0 min 0 W/m² 13,8 °C 16,1 °C 0,0 km/h (0 Bft)
28.08.2023 21:06 23,2 °C 16,1 °C 62 % 86 % 1011,1 hPa 0,0 l/m² 0,0 km/h (0 Bft) NO 55 ° 0 min 0 W/m² 13,8 °C 16,1 °C 0,0 km/h (0 Bft)
28.08.2023 21:07 23,2 °C 16,1 °C 62 % 86 % 1011,1 hPa 0,0 l/m² 0,0 km/h (0 Bft) NO 55 ° 0 min 0 W/m² 13,8 °C 16,1 °C 0,0 km/h (0 Bft)
28.08.2023 21:08 23,2 °C 16,1 °C 62 % 86 % 1011,1 hPa 0,0 l/m² 0,0 km/h (0 Bft) NO 55 ° 0 min 0 W/m² 13,8 °C 16,1 °C 0,0 km/h (0 Bft)
28.08.2023 21:09 23,2 °C 16,1 °C 62 % 86 % 1011,1 hPa 0,0 l/m² 0,0 km/h (0 Bft) NO 55 ° 0 min 0 W/m² 13,8 °C 16,1 °C 0,0 km/h (0 Bft)
28.08.2023 21:11 23,2 °C 16,1 °C 62 % 86 % 1011,1 hPa 0,0 l/m² 0,0 km/h (0 Bft) NO 55 ° 0 min 0 W/m² 13,8 °C 16,1 °C 0,0 km/h (0 Bft)
28.08.2023 21:13 23,2 °C 16,1 °C 62 % 86 % 1011,1 hPa 0,0 l/m² 0,0 km/h (0 Bft) NO 55 ° 0 min 0 W/m² 13,8 °C 16,1 °C 0,0 km/h (0 Bft)
28.08.2023 21:14 23,2 °C 16,1 °C 62 % 86 % 1011,0 hPa 0,0 l/m² 0,0 km/h (0 Bft) NO 55 ° 0 min 0 W/m² 13,8 °C 16,1 °C 0,0 km/h (0 Bft)
28.08.2023 21:15 23,2 °C 16,1 °C 62 % 86 % 1011,0 hPa 0,0 l/m² 0,0 km/h (0 Bft) NO 55 ° 0 min 0 W/m² 13,8 °C 16,1 °C 0,0 km/h (0 Bft)
28.08.2023 21:16 23,2 °C 16,1 °C 62 % 85 % 1011,0 hPa 0,0 l/m² 0,0 km/h (0 Bft) NO 55 ° 0 min 0 W/m² 13,6 °C 16,1 °C 0,0 km/h (0 Bft)
28.08.2023 21:17 23,2 °C 16,1 °C 62 % 86 % 1011,0 hPa 0,0 l/m² 0,0 km/h (0 Bft) NO 55 ° 0 min 0 W/m² 13,8 °C 16,1 °C 0,0 km/h (0 Bft)
28.08.2023 21:18 23,2 °C 16,1 °C 62 % 87 % 1011,0 hPa 0,0 l/m² 0,0 km/h (0 Bft) NO 55 ° 0 min 0 W/m² 13,9 °C 16,1 °C 0,0 km/h (0 Bft)
28.08.2023 21:19 23,2 °C 16,1 °C 62 % 87 % 1011,0 hPa 0,0 l/m² 0,0 km/h (0 Bft) NO 55 ° 0 min 0 W/m² 13,9 °C 16,1 °C 0,0 km/h (0 Bft)
28.08.2023 21:20 23,2 °C 16,1 °C 62 % 87 % 1011,0 hPa 0,0 l/m² 0,0 km/h (0 Bft) NO 55 ° 0 min 0 W/m² 13,9 °C 16,1 °C 0,0 km/h (0 Bft)
28.08.2023 21:22 23,2 °C 16,1 °C 62 % 87 % 1011,1 hPa 0,0 l/m² 0,0 km/h (0 Bft) NO 55 ° 0 min 0 W/m² 13,9 °C 16,1 °C 0,0 km/h (0 Bft)
28.08.2023 21:23 23,2 °C 16,1 °C 62 % 87 % 1011,1 hPa 0,0 l/m² 0,0 km/h (0 Bft) NO 55 ° 0 min 0 W/m² 13,9 °C 16,1 °C 0,0 km/h (0 Bft)
28.08.2023 21:24 23,2 °C 16,1 °C 62 % 88 % 1011,1 hPa 0,0 l/m² 0,0 km/h (0 Bft) NO 55 ° 0 min 0 W/m² 14,1 °C 16,1 °C 0,0 km/h (0 Bft)
28.08.2023 21:25 23,2 °C 16,1 °C 62 % 88 % 1011,1 hPa 0,0 l/m² 0,0 km/h (0 Bft) NO 55 ° 0 min 0 W/m² 14,1 °C 16,1 °C 0,0 km/h (0 Bft)
28.08.2023 21:26 23,2 °C 16,1 °C 62 % 88 % 1011,0 hPa 0,0 l/m² 0,0 km/h (0 Bft) NO 55 ° 0 min 0 W/m² 14,1 °C 16,1 °C 0,0 km/h (0 Bft)
28.08.2023 21:27 23,2 °C 16,1 °C 62 % 88 % 1011,0 hPa 0,0 l/m² 0,0 km/h (0 Bft) NO 55 ° 0 min 0 W/m² 14,1 °C 16,1 °C 0,0 km/h (0 Bft)
28.08.2023 21:28 23,2 °C 16,1 °C 62 % 88 % 1011,0 hPa 0,0 l/m² 0,0 km/h (0 Bft) NO 55 ° 0 min 0 W/m² 14,1 °C 16,1 °C 0,0 km/h (0 Bft)
28.08.2023 21:29 23,2 °C 16,1 °C 62 % 89 % 1011,1 hPa 0,0 l/m² 0,0 km/h (0 Bft) NO 55 ° 0 min 0 W/m² 14,3 °C 16,1 °C 0,0 km/h (0 Bft)
28.08.2023 21:31 23,2 °C 16,1 °C 62 % 89 % 1011,2 hPa 0,0 l/m² 0,0 km/h (0 Bft) NO 55 ° 0 min 0 W/m² 14,3 °C 16,1 °C 0,0 km/h (0 Bft)
28.08.2023 21:33 23,2 °C 16,1 °C 62 % 90 % 1011,2 hPa 0,0 l/m² 1,3 km/h (1 Bft) NO 55 ° 0 min 0 W/m² 14,5 °C 16,1 °C 3,2 km/h (1 Bft)
28.08.2023 21:34 23,2 °C 16,1 °C 62 % 90 % 1011,4 hPa 0,0 l/m² 3,1 km/h (1 Bft) NO 55 ° 0 min 0 W/m² 14,5 °C 16,1 °C 3,2 km/h (1 Bft)
28.08.2023 21:35 23,2 °C 16,1 °C 62 % 90 % 1011,3 hPa 0,0 l/m² 4,0 km/h (1 Bft) O-NO 74 ° 0 min 0 W/m² 14,5 °C 16,1 °C 4,8 km/h (1 Bft)
28.08.2023 21:36 23,2 °C 16,1 °C 62 % 90 % 1011,4 hPa 0,0 l/m² 4,4 km/h (1 Bft) O 90 ° 0 min 0 W/m² 14,5 °C 16,1 °C 4,8 km/h (1 Bft)
28.08.2023 21:37 23,2 °C 16,0 °C 62 % 90 % 1011,4 hPa 0,0 l/m² 3,8 km/h (1 Bft) O 90 ° 0 min 0 W/m² 14,4 °C 16,0 °C 4,8 km/h (1 Bft)
28.08.2023 21:38 23,2 °C 16,0 °C 62 % 90 % 1011,4 hPa 0,0 l/m² 4,5 km/h (1 Bft) O 91 ° 0 min 0 W/m² 14,4 °C 16,0 °C 4,8 km/h (1 Bft)
28.08.2023 21:39 23,2 °C 16,0 °C 62 % 90 % 1011,5 hPa 0,0 l/m² 3,5 km/h (1 Bft) O 91 ° 0 min 0 W/m² 14,4 °C 16,0 °C 4,8 km/h (1 Bft)
28.08.2023 21:41 23,2 °C 15,9 °C 62 % 90 % 1011,4 hPa 0,0 l/m² 2,7 km/h (1 Bft) O 91 ° 0 min 0 W/m² 14,3 °C 15,9 °C 3,2 km/h (1 Bft)
28.08.2023 21:43 23,2 °C 15,9 °C 62 % 90 % 1011,6 hPa 0,0 l/m² 2,5 km/h (1 Bft) O 91 ° 0 min 0 W/m² 14,3 °C 15,9 °C 3,2 km/h (1 Bft)
28.08.2023 21:44 23,2 °C 15,9 °C 62 % 90 % 1011,5 hPa 0,0 l/m² 2,3 km/h (1 Bft) O 91 ° 0 min 0 W/m² 14,3 °C 15,9 °C 3,2 km/h (1 Bft)
28.08.2023 21:46 23,2 °C 15,8 °C 62 % 90 % 1011,5 hPa 0,0 l/m² 1,5 km/h (1 Bft) O 91 ° 0 min 0 W/m² 14,2 °C 15,8 °C 3,2 km/h (1 Bft)
28.08.2023 21:47 23,2 °C 15,9 °C 62 % 90 % 1011,6 hPa 0,0 l/m² 0,9 km/h (0 Bft) O 91 ° 0 min 0 W/m² 14,3 °C 15,9 °C 1,6 km/h (1 Bft)
28.08.2023 21:48 23,2 °C 15,9 °C 62 % 90 % 1011,6 hPa 0,0 l/m² 0,0 km/h (0 Bft) O 91 ° 0 min 0 W/m² 14,3 °C 15,9 °C 0,0 km/h (0 Bft)
28.08.2023 21:49 23,2 °C 15,9 °C 62 % 90 % 1011,6 hPa 0,0 l/m² 0,0 km/h (0 Bft) O 91 ° 0 min 0 W/m² 14,3 °C 15,9 °C 0,0 km/h (0 Bft)
28.08.2023 21:51 23,2 °C 15,9 °C 62 % 90 % 1011,6 hPa 0,0 l/m² 0,0 km/h (0 Bft) O 91 ° 0 min 0 W/m² 14,3 °C 15,9 °C 0,0 km/h (0 Bft)
28.08.2023 21:53 23,2 °C 15,8 °C 62 % 90 % 1011,6 hPa 0,0 l/m² 0,0 km/h (0 Bft) O 91 ° 0 min 0 W/m² 14,2 °C 15,8 °C 0,0 km/h (0 Bft)
28.08.2023 21:54 23,2 °C 15,8 °C 62 % 90 % 1011,6 hPa 0,0 l/m² 0,0 km/h (0 Bft) O 91 ° 0 min 0 W/m² 14,2 °C 15,8 °C 0,0 km/h (0 Bft)
28.08.2023 21:55 23,2 °C 15,8 °C 62 % 90 % 1011,5 hPa 0,0 l/m² 0,0 km/h (0 Bft) O 91 ° 0 min 0 W/m² 14,2 °C 15,8 °C 0,0 km/h (0 Bft)
28.08.2023 21:56 23,2 °C 15,8 °C 62 % 90 % 1011,5 hPa 0,0 l/m² 0,0 km/h (0 Bft) O 91 ° 0 min 0 W/m² 14,2 °C 15,8 °C 0,0 km/h (0 Bft)
28.08.2023 21:57 23,2 °C 15,8 °C 62 % 90 % 1011,5 hPa 0,0 l/m² 0,0 km/h (0 Bft) O 91 ° 0 min 0 W/m² 14,2 °C 15,8 °C 0,0 km/h (0 Bft)
28.08.2023 21:58 23,2 °C 15,8 °C 62 % 90 % 1011,3 hPa 0,0 l/m² 0,0 km/h (0 Bft) O 91 ° 0 min 0 W/m² 14,2 °C 15,8 °C 0,0 km/h (0 Bft)
28.08.2023 21:59 23,2 °C 15,8 °C 62 % 90 % 1011,4 hPa 0,0 l/m² 0,0 km/h (0 Bft) O 91 ° 0 min 0 W/m² 14,2 °C 15,8 °C 0,0 km/h (0 Bft)
28.08.2023 22:01 23,2 °C 15,9 °C 62 % 90 % 1011,3 hPa 0,0 l/m² 0,0 km/h (0 Bft) O 91 ° 0 min 0 W/m² 14,3 °C 15,9 °C 0,0 km/h (0 Bft)
28.08.2023 22:03 23,2 °C 15,9 °C 62 % 89 % 1011,4 hPa 0,0 l/m² 0,0 km/h (0 Bft) O 91 ° 0 min 0 W/m² 14,1 °C 15,9 °C 0,0 km/h (0 Bft)
28.08.2023 22:04 23,2 °C 15,8 °C 62 % 89 % 1011,3 hPa 0,0 l/m² 0,0 km/h (0 Bft) O 91 ° 0 min 0 W/m² 14,0 °C 15,8 °C 0,0 km/h (0 Bft)
28.08.2023 22:05 23,2 °C 15,9 °C 62 % 89 % 1011,4 hPa 0,0 l/m² 0,0 km/h (0 Bft) O 91 ° 0 min 0 W/m² 14,1 °C 15,9 °C 0,0 km/h (0 Bft)
28.08.2023 22:06 23,2 °C 15,9 °C 62 % 89 % 1011,3 hPa 0,0 l/m² 0,0 km/h (0 Bft) O 91 ° 0 min 0 W/m² 14,1 °C 15,9 °C 0,0 km/h (0 Bft)
28.08.2023 22:07 23,2 °C 15,9 °C 62 % 89 % 1011,4 hPa 0,0 l/m² 0,0 km/h (0 Bft) O 91 ° 0 min 0 W/m² 14,1 °C 15,9 °C 0,0 km/h (0 Bft)
28.08.2023 22:08 23,2 °C 15,9 °C 62 % 89 % 1011,4 hPa 0,0 l/m² 0,0 km/h (0 Bft) O 91 ° 0 min 0 W/m² 14,1 °C 15,9 °C 0,0 km/h (0 Bft)
28.08.2023 22:09 23,2 °C 15,9 °C 62 % 89 % 1011,4 hPa 0,0 l/m² 0,0 km/h (0 Bft) O 91 ° 0 min 0 W/m² 14,1 °C 15,9 °C 0,0 km/h (0 Bft)
28.08.2023 22:11 23,2 °C 15,8 °C 62 % 89 % 1011,4 hPa 0,0 l/m² 0,0 km/h (0 Bft) O 91 ° 0 min 0 W/m² 14,0 °C 15,8 °C 0,0 km/h (0 Bft)
28.08.2023 22:13 23,2 °C 15,8 °C 62 % 89 % 1011,4 hPa 0,0 l/m² 0,0 km/h (0 Bft) O 91 ° 0 min 0 W/m² 14,0 °C 15,8 °C 0,0 km/h (0 Bft)
28.08.2023 22:14 23,2 °C 15,8 °C 62 % 89 % 1011,4 hPa 0,0 l/m² 0,0 km/h (0 Bft) O 91 ° 0 min 0 W/m² 14,0 °C 15,8 °C 0,0 km/h (0 Bft)
28.08.2023 22:15 23,2 °C 15,8 °C 62 % 89 % 1011,3 hPa 0,0 l/m² 0,0 km/h (0 Bft) O 91 ° 0 min 0 W/m² 14,0 °C 15,8 °C 0,0 km/h (0 Bft)
28.08.2023 22:17 23,2 °C 15,8 °C 62 % 89 % 1011,3 hPa 0,0 l/m² 0,0 km/h (0 Bft) O 91 ° 0 min 0 W/m² 14,0 °C 15,8 °C 0,0 km/h (0 Bft)
28.08.2023 22:18 23,2 °C 15,8 °C 62 % 89 % 1011,3 hPa 0,0 l/m² 0,0 km/h (0 Bft) O 91 ° 0 min 0 W/m² 14,0 °C 15,8 °C 0,0 km/h (0 Bft)
28.08.2023 22:19 23,2 °C 15,8 °C 62 % 89 % 1011,3 hPa 0,0 l/m² 0,0 km/h (0 Bft) O 91 ° 0 min 0 W/m² 14,0 °C 15,8 °C 0,0 km/h (0 Bft)
28.08.2023 22:21 23,2 °C 15,8 °C 62 % 89 % 1011,2 hPa 0,0 l/m² 0,0 km/h (0 Bft) O 91 ° 0 min 0 W/m² 14,0 °C 15,8 °C 0,0 km/h (0 Bft)
28.08.2023 22:23 23,2 °C 15,8 °C 62 % 89 % 1011,1 hPa 0,0 l/m² 1,6 km/h (1 Bft) O 91 ° 0 min 0 W/m² 14,0 °C 15,8 °C 3,2 km/h (1 Bft)
28.08.2023 22:24 23,2 °C 15,7 °C 62 % 89 % 1011,1 hPa 0,0 l/m² 2,2 km/h (1 Bft) O 91 ° 0 min 0 W/m² 13,9 °C 15,7 °C 3,2 km/h (1 Bft)
28.08.2023 22:25 23,2 °C 15,7 °C 62 % 89 % 1011,1 hPa 0,0 l/m² 1,5 km/h (1 Bft) O 91 ° 0 min 0 W/m² 13,9 °C 15,7 °C 3,2 km/h (1 Bft)
28.08.2023 22:26 23,2 °C 15,7 °C 62 % 89 % 1011,1 hPa 0,0 l/m² 1,0 km/h (0 Bft) O 91 ° 0 min 0 W/m² 13,9 °C 15,7 °C 1,6 km/h (1 Bft)
28.08.2023 22:27 23,2 °C 15,7 °C 62 % 89 % 1011,1 hPa 0,0 l/m² 0,2 km/h (0 Bft) O 91 ° 0 min 0 W/m² 13,9 °C 15,7 °C 1,6 km/h (1 Bft)
28.08.2023 22:28 23,2 °C 15,7 °C 62 % 89 % 1011,0 hPa 0,0 l/m² 0,0 km/h (0 Bft) O 91 ° 0 min 0 W/m² 13,9 °C 15,7 °C 0,0 km/h (0 Bft)
28.08.2023 22:29 23,2 °C 15,7 °C 62 % 88 % 1011,0 hPa 0,0 l/m² 0,0 km/h (0 Bft) O 91 ° 0 min 0 W/m² 13,7 °C 15,7 °C 0,0 km/h (0 Bft)
28.08.2023 22:31 23,2 °C 15,7 °C 62 % 88 % 1011,0 hPa 0,0 l/m² 0,0 km/h (0 Bft) O 91 ° 0 min 0 W/m² 13,7 °C 15,7 °C 0,0 km/h (0 Bft)
28.08.2023 22:33 23,2 °C 15,7 °C 62 % 88 % 1011,0 hPa 0,0 l/m² 0,0 km/h (0 Bft) O 91 ° 0 min 0 W/m² 13,7 °C 15,7 °C 0,0 km/h (0 Bft)
28.08.2023 22:34 23,2 °C 15,7 °C 62 % 88 % 1011,1 hPa 0,0 l/m² 0,0 km/h (0 Bft) O 91 ° 0 min 0 W/m² 13,7 °C 15,7 °C 0,0 km/h (0 Bft)
28.08.2023 22:35 23,2 °C 15,7 °C 62 % 88 % 1011,1 hPa 0,0 l/m² 0,0 km/h (0 Bft) O 91 ° 0 min 0 W/m² 13,7 °C 15,7 °C 0,0 km/h (0 Bft)
28.08.2023 22:36 23,2 °C 15,7 °C 62 % 88 % 1011,1 hPa 0,0 l/m² 0,0 km/h (0 Bft) O 91 ° 0 min 0 W/m² 13,7 °C 15,7 °C 0,0 km/h (0 Bft)
28.08.2023 22:37 23,2 °C 15,7 °C 62 % 88 % 1011,1 hPa 0,0 l/m² 0,0 km/h (0 Bft) O 91 ° 0 min 0 W/m² 13,7 °C 15,7 °C 0,0 km/h (0 Bft)
28.08.2023 22:38 23,2 °C 15,7 °C 62 % 88 % 1011,1 hPa 0,0 l/m² 0,0 km/h (0 Bft) O 91 ° 0 min 0 W/m² 13,7 °C 15,7 °C 0,0 km/h (0 Bft)
28.08.2023 22:39 23,2 °C 15,7 °C 62 % 88 % 1011,0 hPa 0,0 l/m² 0,0 km/h (0 Bft) O 91 ° 0 min 0 W/m² 13,7 °C 15,7 °C 0,0 km/h (0 Bft)
28.08.2023 22:41 23,2 °C 15,7 °C 62 % 89 % 1011,0 hPa 0,0 l/m² 0,0 km/h (0 Bft) O 91 ° 0 min 0 W/m² 13,9 °C 15,7 °C 0,0 km/h (0 Bft)
28.08.2023 22:43 23,2 °C 15,7 °C 62 % 89 % 1011,1 hPa 0,0 l/m² 0,0 km/h (0 Bft) O 91 ° 0 min 0 W/m² 13,9 °C 15,7 °C 0,0 km/h (0 Bft)
28.08.2023 22:44 23,2 °C 15,7 °C 62 % 89 % 1011,1 hPa 0,0 l/m² 0,0 km/h (0 Bft) O 91 ° 0 min 0 W/m² 13,9 °C 15,7 °C 0,0 km/h (0 Bft)
28.08.2023 22:45 23,1 °C 15,6 °C 62 % 89 % 1011,1 hPa 0,0 l/m² 0,0 km/h (0 Bft) O 91 ° 0 min 0 W/m² 13,8 °C 15,6 °C 0,0 km/h (0 Bft)
28.08.2023 22:46 23,1 °C 15,7 °C 62 % 89 % 1011,1 hPa 0,0 l/m² 0,0 km/h (0 Bft) O 91 ° 0 min 0 W/m² 13,9 °C 15,7 °C 0,0 km/h (0 Bft)
28.08.2023 22:47 23,2 °C 15,6 °C 62 % 89 % 1011,1 hPa 0,0 l/m² 0,0 km/h (0 Bft) O 91 ° 0 min 0 W/m² 13,8 °C 15,6 °C 0,0 km/h (0 Bft)
28.08.2023 22:48 23,1 °C 15,7 °C 62 % 89 % 1011,1 hPa 0,0 l/m² 0,0 km/h (0 Bft) O 91 ° 0 min 0 W/m² 13,9 °C 15,7 °C 0,0 km/h (0 Bft)
28.08.2023 22:49 23,1 °C 15,7 °C 62 % 90 % 1011,2 hPa 0,0 l/m² 0,0 km/h (0 Bft) O 91 ° 0 min 0 W/m² 14,1 °C 15,7 °C 0,0 km/h (0 Bft)
28.08.2023 22:50 23,1 °C 15,7 °C 62 % 90 % 1011,2 hPa 0,0 l/m² 0,0 km/h (0 Bft) O 91 ° 0 min 0 W/m² 14,1 °C 15,7 °C 0,0 km/h (0 Bft)
28.08.2023 22:52 23,1 °C 15,7 °C 62 % 90 % 1011,2 hPa 0,0 l/m² 0,0 km/h (0 Bft) O 91 ° 0 min 0 W/m² 14,1 °C 15,7 °C 0,0 km/h (0 Bft)
28.08.2023 22:53 23,1 °C 15,7 °C 62 % 90 % 1011,2 hPa 0,0 l/m² 0,0 km/h (0 Bft) O 91 ° 0 min 0 W/m² 14,1 °C 15,7 °C 0,0 km/h (0 Bft)
28.08.2023 22:54 23,1 °C 15,6 °C 62 % 90 % 1011,2 hPa 0,0 l/m² 0,0 km/h (0 Bft) O 91 ° 0 min 0 W/m² 14,0 °C 15,6 °C 0,0 km/h (0 Bft)
28.08.2023 22:55 23,1 °C 15,6 °C 62 % 90 % 1011,2 hPa 0,0 l/m² 0,0 km/h (0 Bft) O 91 ° 0 min 0 W/m² 14,0 °C 15,6 °C 0,0 km/h (0 Bft)
28.08.2023 22:56 23,1 °C 15,6 °C 62 % 90 % 1011,1 hPa 0,0 l/m² 0,0 km/h (0 Bft) O 91 ° 0 min 0 W/m² 14,0 °C 15,6 °C 0,0 km/h (0 Bft)
28.08.2023 22:57 23,1 °C 15,6 °C 62 % 90 % 1011,2 hPa 0,0 l/m² 0,0 km/h (0 Bft) O 91 ° 0 min 0 W/m² 14,0 °C 15,6 °C 0,0 km/h (0 Bft)
28.08.2023 22:58 23,1 °C 15,6 °C 62 % 90 % 1011,1 hPa 0,0 l/m² 0,0 km/h (0 Bft) O 91 ° 0 min 0 W/m² 14,0 °C 15,6 °C 0,0 km/h (0 Bft)
28.08.2023 22:59 23,1 °C 15,5 °C 62 % 90 % 1011,1 hPa 0,0 l/m² 0,0 km/h (0 Bft) O 91 ° 0 min 0 W/m² 13,9 °C 15,5 °C 0,0 km/h (0 Bft)
28.08.2023 23:00 23,1 °C 15,5 °C 62 % 90 % 1011,1 hPa 0,0 l/m² 0,0 km/h (0 Bft) O 91 ° 0 min 0 W/m² 13,9 °C 15,5 °C 0,0 km/h (0 Bft)
28.08.2023 23:02 23,1 °C 15,4 °C 62 % 90 % 1011,1 hPa 0,0 l/m² 0,0 km/h (0 Bft) O 91 ° 0 min 0 W/m² 13,8 °C 15,4 °C 0,0 km/h (0 Bft)
28.08.2023 23:03 23,1 °C 15,5 °C 62 % 91 % 1011,0 hPa 0,0 l/m² 0,0 km/h (0 Bft) O 91 ° 0 min 0 W/m² 14,0 °C 15,5 °C 0,0 km/h (0 Bft)
28.08.2023 23:04 23,1 °C 15,5 °C 62 % 91 % 1011,0 hPa 0,0 l/m² 0,0 km/h (0 Bft) O 91 ° 0 min 0 W/m² 14,0 °C 15,5 °C 0,0 km/h (0 Bft)
28.08.2023 23:05 23,1 °C 15,5 °C 62 % 91 % 1010,9 hPa 0,0 l/m² 0,0 km/h (0 Bft) O 91 ° 0 min 0 W/m² 14,0 °C 15,5 °C 0,0 km/h (0 Bft)
28.08.2023 23:06 23,1 °C 15,5 °C 62 % 90 % 1010,9 hPa 0,0 l/m² 0,0 km/h (0 Bft) O 91 ° 0 min 0 W/m² 13,9 °C 15,5 °C 0,0 km/h (0 Bft)
28.08.2023 23:07 23,1 °C 15,5 °C 62 % 90 % 1010,8 hPa 0,0 l/m² 0,0 km/h (0 Bft) O 91 ° 0 min 0 W/m² 13,9 °C 15,5 °C 0,0 km/h (0 Bft)
28.08.2023 23:08 23,1 °C 15,5 °C 62 % 91 % 1010,9 hPa 0,0 l/m² 0,0 km/h (0 Bft) O 91 ° 0 min 0 W/m² 14,0 °C 15,5 °C 0,0 km/h (0 Bft)
28.08.2023 23:09 23,1 °C 15,5 °C 62 % 90 % 1010,9 hPa 0,0 l/m² 0,0 km/h (0 Bft) O 91 ° 0 min 0 W/m² 13,9 °C 15,5 °C 0,0 km/h (0 Bft)
28.08.2023 23:11 23,1 °C 15,5 °C 62 % 90 % 1010,9 hPa 0,0 l/m² 0,0 km/h (0 Bft) O 91 ° 0 min 0 W/m² 13,9 °C 15,5 °C 0,0 km/h (0 Bft)
28.08.2023 23:13 23,1 °C 15,4 °C 62 % 90 % 1010,9 hPa 0,0 l/m² 0,0 km/h (0 Bft) O 91 ° 0 min 0 W/m² 13,8 °C 15,4 °C 0,0 km/h (0 Bft)
28.08.2023 23:14 23,1 °C 15,4 °C 62 % 90 % 1010,9 hPa 0,0 l/m² 0,0 km/h (0 Bft) O 91 ° 0 min 0 W/m² 13,8 °C 15,4 °C 0,0 km/h (0 Bft)
28.08.2023 23:15 23,1 °C 15,4 °C 62 % 90 % 1010,8 hPa 0,0 l/m² 0,0 km/h (0 Bft) O 91 ° 0 min 0 W/m² 13,8 °C 15,4 °C 0,0 km/h (0 Bft)
28.08.2023 23:16 23,1 °C 15,4 °C 62 % 90 % 1010,8 hPa 0,0 l/m² 0,0 km/h (0 Bft) N 0 ° 0 min 0 W/m² 13,8 °C 15,4 °C 0,0 km/h (0 Bft)
28.08.2023 23:17 23,1 °C 15,4 °C 62 % 90 % 1010,8 hPa 0,0 l/m² 0,0 km/h (0 Bft) N 0 ° 0 min 0 W/m² 13,8 °C 15,4 °C 0,0 km/h (0 Bft)
28.08.2023 23:18 23,1 °C 15,4 °C 62 % 90 % 1010,8 hPa 0,0 l/m² 0,0 km/h (0 Bft) N 0 ° 0 min 0 W/m² 13,8 °C 15,4 °C 0,0 km/h (0 Bft)
28.08.2023 23:19 23,1 °C 15,4 °C 62 % 90 % 1010,8 hPa 0,0 l/m² 0,0 km/h (0 Bft) N 0 ° 0 min 0 W/m² 13,8 °C 15,4 °C 0,0 km/h (0 Bft)
28.08.2023 23:20 23,1 °C 15,4 °C 62 % 90 % 1010,8 hPa 0,0 l/m² 0,0 km/h (0 Bft) N 0 ° 0 min 0 W/m² 13,8 °C 15,4 °C 0,0 km/h (0 Bft)
28.08.2023 23:21 23,1 °C 15,4 °C 62 % 90 % 1010,8 hPa 0,0 l/m² 0,0 km/h (0 Bft) N 0 ° 0 min 0 W/m² 13,8 °C 15,4 °C 0,0 km/h (0 Bft)
28.08.2023 23:22 23,1 °C 15,4 °C 62 % 90 % 1010,8 hPa 0,0 l/m² 0,0 km/h (0 Bft) N 0 ° 0 min 0 W/m² 13,8 °C 15,4 °C 0,0 km/h (0 Bft)
28.08.2023 23:23 23,0 °C 15,4 °C 62 % 91 % 1010,9 hPa 0,0 l/m² 0,0 km/h (0 Bft) N 0 ° 0 min 0 W/m² 13,9 °C 15,4 °C 0,0 km/h (0 Bft)
28.08.2023 23:24 23,1 °C 15,4 °C 62 % 90 % 1010,8 hPa 0,0 l/m² 0,0 km/h (0 Bft) N 0 ° 0 min 0 W/m² 13,8 °C 15,4 °C 0,0 km/h (0 Bft)
28.08.2023 23:25 23,1 °C 15,4 °C 62 % 90 % 1010,8 hPa 0,0 l/m² 0,0 km/h (0 Bft) N 0 ° 0 min 0 W/m² 13,8 °C 15,4 °C 0,0 km/h (0 Bft)
28.08.2023 23:26 23,0 °C 15,3 °C 62 % 90 % 1010,7 hPa 0,0 l/m² 0,0 km/h (0 Bft) N 0 ° 0 min 0 W/m² 13,7 °C 15,3 °C 0,0 km/h (0 Bft)
28.08.2023 23:27 23,1 °C 15,3 °C 62 % 90 % 1010,7 hPa 0,0 l/m² 0,0 km/h (0 Bft) N 0 ° 0 min 0 W/m² 13,7 °C 15,3 °C 0,0 km/h (0 Bft)
28.08.2023 23:28 23,0 °C 15,3 °C 62 % 90 % 1010,6 hPa 0,0 l/m² 0,0 km/h (0 Bft) N 0 ° 0 min 0 W/m² 13,7 °C 15,3 °C 0,0 km/h (0 Bft)
28.08.2023 23:29 23,0 °C 15,4 °C 62 % 90 % 1010,5 hPa 0,0 l/m² 1,6 km/h (1 Bft) O 90 ° 0 min 0 W/m² 13,8 °C 15,4 °C 3,2 km/h (1 Bft)
28.08.2023 23:30 23,0 °C 15,3 °C 62 % 90 % 1010,5 hPa 0,0 l/m² 1,6 km/h (1 Bft) O 90 ° 0 min 0 W/m² 13,7 °C 15,3 °C 3,2 km/h (1 Bft)
28.08.2023 23:31 23,1 °C 15,4 °C 62 % 90 % 1010,5 hPa 0,0 l/m² 1,6 km/h (1 Bft) O 90 ° 0 min 0 W/m² 13,8 °C 15,4 °C 1,6 km/h (1 Bft)
28.08.2023 23:32 23,0 °C 15,3 °C 62 % 90 % 1010,5 hPa 0,0 l/m² 0,0 km/h (0 Bft) N 0 ° 0 min 0 W/m² 13,7 °C 15,3 °C 0,0 km/h (0 Bft)
28.08.2023 23:33 23,0 °C 15,3 °C 62 % 90 % 1010,5 hPa 0,0 l/m² 0,0 km/h (0 Bft) O 90 ° 0 min 0 W/m² 13,7 °C 15,3 °C 1,6 km/h (1 Bft)
28.08.2023 23:34 23,0 °C 15,3 °C 62 % 90 % 1010,4 hPa 0,0 l/m² 1,6 km/h (1 Bft) O 90 ° 0 min 0 W/m² 13,7 °C 15,3 °C 1,6 km/h (1 Bft)
28.08.2023 23:35 23,0 °C 15,3 °C 62 % 90 % 1010,4 hPa 0,0 l/m² 0,0 km/h (0 Bft) N 0 ° 0 min 0 W/m² 13,7 °C 15,3 °C 0,0 km/h (0 Bft)
28.08.2023 23:36 23,0 °C 15,3 °C 62 % 90 % 1010,4 hPa 0,0 l/m² 0,0 km/h (0 Bft) N 0 ° 0 min 0 W/m² 13,7 °C 15,3 °C 0,0 km/h (0 Bft)
28.08.2023 23:37 23,0 °C 15,3 °C 62 % 90 % 1010,4 hPa 0,0 l/m² 0,0 km/h (0 Bft) O 90 ° 0 min 0 W/m² 13,7 °C 15,3 °C 1,6 km/h (1 Bft)
28.08.2023 23:38 23,1 °C 15,4 °C 62 % 90 % 1010,3 hPa 0,0 l/m² 0,0 km/h (0 Bft) O 90 ° 0 min 0 W/m² 13,8 °C 15,4 °C 1,6 km/h (1 Bft)
28.08.2023 23:39 23,0 °C 15,4 °C 62 % 90 % 1010,3 hPa 0,0 l/m² 0,0 km/h (0 Bft) O 90 ° 0 min 0 W/m² 13,8 °C 15,4 °C 1,6 km/h (1 Bft)
28.08.2023 23:40 23,0 °C 15,4 °C 62 % 90 % 1010,4 hPa 0,0 l/m² 0,0 km/h (0 Bft) N 0 ° 0 min 0 W/m² 13,8 °C 15,4 °C 0,0 km/h (0 Bft)
28.08.2023 23:41 23,0 °C 15,4 °C 62 % 90 % 1010,4 hPa 0,0 l/m² 0,0 km/h (0 Bft) N 0 ° 0 min 0 W/m² 13,8 °C 15,4 °C 0,0 km/h (0 Bft)
28.08.2023 23:42 23,0 °C 15,4 °C 62 % 90 % 1010,5 hPa 0,0 l/m² 0,0 km/h (0 Bft) N 0 ° 0 min 0 W/m² 13,8 °C 15,4 °C 0,0 km/h (0 Bft)
28.08.2023 23:43 23,0 °C 15,3 °C 62 % 90 % 1010,4 hPa 0,0 l/m² 0,0 km/h (0 Bft) N 0 ° 0 min 0 W/m² 13,7 °C 15,3 °C 0,0 km/h (0 Bft)
28.08.2023 23:44 23,0 °C 15,3 °C 62 % 90 % 1010,5 hPa 0,0 l/m² 0,0 km/h (0 Bft) N 0 ° 0 min 0 W/m² 13,7 °C 15,3 °C 0,0 km/h (0 Bft)
28.08.2023 23:45 23,0 °C 15,4 °C 62 % 90 % 1010,4 hPa 0,0 l/m² 0,0 km/h (0 Bft) N 0 ° 0 min 0 W/m² 13,8 °C 15,4 °C 0,0 km/h (0 Bft)
28.08.2023 23:46 23,0 °C 15,4 °C 62 % 91 % 1010,4 hPa 0,0 l/m² 0,0 km/h (0 Bft) N 0 ° 0 min 0 W/m² 13,9 °C 15,4 °C 0,0 km/h (0 Bft)
28.08.2023 23:47 23,0 °C 15,4 °C 62 % 91 % 1010,4 hPa 0,0 l/m² 0,0 km/h (0 Bft) N 0 ° 0 min 0 W/m² 13,9 °C 15,4 °C 0,0 km/h (0 Bft)
28.08.2023 23:48 23,0 °C 15,4 °C 62 % 91 % 1010,4 hPa 0,0 l/m² 0,0 km/h (0 Bft) N 0 ° 0 min 0 W/m² 13,9 °C 15,4 °C 0,0 km/h (0 Bft)
28.08.2023 23:49 23,0 °C 15,4 °C 62 % 91 % 1010,4 hPa 0,0 l/m² 0,0 km/h (0 Bft) N 0 ° 0 min 0 W/m² 13,9 °C 15,4 °C 0,0 km/h (0 Bft)
28.08.2023 23:50 23,0 °C 15,5 °C 62 % 91 % 1010,4 hPa 0,0 l/m² 0,0 km/h (0 Bft) N 0 ° 0 min 0 W/m² 14,0 °C 15,5 °C 0,0 km/h (0 Bft)
28.08.2023 23:51 23,0 °C 15,4 °C 62 % 91 % 1010,4 hPa 0,0 l/m² 0,0 km/h (0 Bft) N 0 ° 0 min 0 W/m² 13,9 °C 15,4 °C 0,0 km/h (0 Bft)
28.08.2023 23:52 23,0 °C 15,4 °C 62 % 91 % 1010,3 hPa 0,0 l/m² 0,0 km/h (0 Bft) N 0 ° 0 min 0 W/m² 13,9 °C 15,4 °C 0,0 km/h (0 Bft)
28.08.2023 23:53 23,0 °C 15,4 °C 62 % 91 % 1010,4 hPa 0,0 l/m² 0,0 km/h (0 Bft) N 0 ° 0 min 0 W/m² 13,9 °C 15,4 °C 0,0 km/h (0 Bft)
28.08.2023 23:54 23,0 °C 15,4 °C 62 % 91 % 1010,4 hPa 0,0 l/m² 0,0 km/h (0 Bft) N 0 ° 0 min 0 W/m² 13,9 °C 15,4 °C 0,0 km/h (0 Bft)
28.08.2023 23:55 23,0 °C 15,3 °C 62 % 92 % 1010,3 hPa 0,0 l/m² 0,0 km/h (0 Bft) N 0 ° 0 min 0 W/m² 14,0 °C 15,3 °C 0,0 km/h (0 Bft)
28.08.2023 23:56 23,0 °C 15,3 °C 62 % 92 % 1010,3 hPa 0,0 l/m² 0,0 km/h (0 Bft) N 0 ° 0 min 0 W/m² 14,0 °C 15,3 °C 0,0 km/h (0 Bft)
28.08.2023 23:57 22,9 °C 15,3 °C 62 % 92 % 1010,2 hPa 0,0 l/m² 0,0 km/h (0 Bft) N 0 ° 0 min 0 W/m² 14,0 °C 15,3 °C 0,0 km/h (0 Bft)
28.08.2023 23:58 23,0 °C 15,3 °C 62 % 92 % 1010,3 hPa 0,0 l/m² 0,0 km/h (0 Bft) N 0 ° 0 min 0 W/m² 14,0 °C 15,3 °C 0,0 km/h (0 Bft)
28.08.2023 23:59 23,0 °C 15,2 °C 62 % 92 % 1010,3 hPa 0,0 l/m² 0,0 km/h (0 Bft) N 0 ° 0 min 0 W/m² 13,9 °C 15,2 °C 0,0 km/h (0 Bft)
_ Min-Zeit 23:57 06:15 07:08 15:45 23:57 - 23:59 - - - - 06:15 05:14 23:59
Minimum _ 22,9 °C 11,3 °C 58 % 66 % 1010,2 hPa - 0,0 km/h (0 Bft) - - - - 10,2 °C 10,4 °C 0,0 km/h (0 Bft)
_ Max-Zeit 00:34 15:41 06:52 04:55 12:48 23:59 08:10 - - 18:41 15:38 19:28 15:41 15:53
Maximum _ 23,6 °C 19,8 °C 63 % 95 % 1012,4 hPa 0,0 l/m² 10,7 km/h
S-SW (2 Bft)
- - 2 min 710 W/m² 14,6 °C 19,8 °C 16,1 km/h
N (3 Bft)
Durchschnitt _ 23,1 °C 15,3 °C 62 % 84 % 1011,5 hPa #0,0 l/m² 2,3 km/h (1 Bft) SW - #11:28 h 117 W/m² 12,6 °C 15,2 °C 3,8 km/h (1 Bft)
© 2009 Mathias Hoßbach